[[{"header":{"parameterUnit":"m.s-1","parameterCategory":1,"la1":30.6,"la2":28.766,"lo1":-90.7593,"lo2":-88.6598,"dx":0.0162,"dy":0.0183,"nx":116,"ny":114,"refTime":"2022-12-09T18:00:00:Z","depth":0,"parameterNumber":2,"parameterNumberName":"U-component_of_WINDS"},"data":[0.0,0.0,0.0,0.0,0.0,0.0,0.0,0.0,0.0,0.0,0.0,0.0,0.0,0.0,0.0,0.0,0.0,0.0,0.0,0.0,0.0,0.0,0.0,0.0,0.0,0.0,0.0,0.0,0.0,0.0,0.0,0.0,0.0,0.0,0.0,0.0,0.0,0.0,0.0,0.0,0.0,0.0,0.0,0.0,0.0,0.0,0.0,0.0,0.0,0.0,0.0,0.0,0.0,0.0,0.0,0.0,0.0,0.0,0.0,0.0,0.0,0.0,0.0,0.0,0.0,0.0,0.0,0.0,0.0,0.0,0.0,0.0,0.0,0.0,0.0,0.0,0.0,0.0,0.0,0.0,0.0,0.0,0.0,0.0,0.0,0.0,0.0,0.0,0.0,0.0,0.0,0.0,0.0,0.0,0.0,0.0,0.0,0.0,0.0,0.0,0.0,0.0,0.0,0.0,0.0,0.0,0.0,0.0,0.0,0.0,0.0,0.0,0.0,0.0,0.0,0.0,0.0,0.0,0.0,0.0,0.0,0.0,0.0,0.0,0.0,0.0,0.0,0.0,0.0,0.0,0.0,0.0,0.0,0.0,0.0,0.0,0.0,0.0,0.0,0.0,0.0,0.0,0.0,0.0,0.0,0.0,0.0,0.0,0.0,0.0,0.0,0.0,0.0,0.0,0.0,0.0,0.0,0.0,0.0,0.0,0.0,0.0,0.0,0.0,0.0,0.0,0.0,0.0,0.0,0.0,0.0,0.0,0.0,0.0,0.0,0.0,0.0,0.0,0.0,0.0,0.0,0.0,0.0,0.0,0.0,0.0,0.0,0.0,0.0,0.0,0.0,0.0,0.0,0.0,0.0,0.0,0.0,0.0,0.0,0.0,0.0,0.0,0.0,0.0,0.0,0.0,0.0,0.0,0.0,0.0,0.0,0.0,0.0,0.0,0.0,0.0,0.0,0.0,0.0,0.0,0.0,0.0,0.0,0.0,0.0,0.0,0.0,0.0,0.0,0.0,0.0,0.0,0.0,0.0,0.0,0.0,0.0,0.0,0.0,0.0,0.0,0.0,0.0,0.0,0.0,0.0,0.0,0.0,0.0,0.0,0.0,0.0,0.0,0.0,0.0,0.0,0.0,0.0,0.0,0.0,0.0,0.0,0.0,0.0,0.0,0.0,0.0,0.0,0.0,0.0,0.0,0.0,0.0,0.0,0.0,0.0,0.0,0.0,0.0,0.0,0.0,0.0,0.0,0.0,0.0,0.0,0.0,0.0,0.0,0.0,0.0,0.0,0.0,0.0,0.0,0.0,0.0,0.0,0.0,0.0,0.0,0.0,0.0,0.0,0.0,0.0,0.0,0.0,0.0,0.0,0.0,0.0,0.0,0.0,0.0,0.0,0.0,0.0,0.0,0.0,0.0,0.0,0.0,0.0,0.0,0.0,0.0,0.0,0.0,0.0,0.0,0.0,0.0,0.0,0.0,0.0,0.0,0.0,0.0,0.0,0.0,0.0,0.0,0.0,0.0,0.0,0.0,0.0,0.0,0.0,0.0,0.0,0.0,0.0,0.0,0.0,0.0,0.0,0.0,0.0,0.0,0.0,0.0,0.0,0.0,0.0,0.0,0.0,0.0,0.0,0.0,0.0,0.0,0.0,0.0,0.0,0.0,0.0,0.0,0.0,0.0,0.0,0.0,0.0,0.0,0.0,0.0,0.0,0.0,0.0,0.0,0.0,0.0,0.0,0.0,0.0,0.0,0.0,0.0,0.0,0.0,0.0,0.0,0.0,0.0,0.0,0.0,0.0,0.0,0.0,0.0,0.0,0.0,0.0,0.0,0.0,0.0,0.0,0.0,0.0,0.0,0.0,0.0,0.0,0.0,0.0,0.0,0.0,0.0,0.0,0.0,0.0,0.0,0.0,0.0,0.0,0.0,0.0,0.0,0.0,0.0,0.0,0.0,0.0,0.0,0.0,0.0,0.0,0.0,0.0,0.0,0.0,0.0,0.0,0.0,0.0,0.0,0.0,0.0,0.0,0.0,0.0,0.0,0.0,0.0,0.0,0.0,0.0,0.0,0.0,0.0,0.0,0.0,0.0,0.0,0.0,0.0,0.0,0.0,0.0,0.0,0.0,0.0,0.0,0.0,0.0,0.0,0.0,0.0,0.0,0.0,0.0,0.0,0.0,0.0,0.0,0.0,0.0,0.0,0.0,0.0,0.0,0.0,0.0,0.0,0.0,0.0,0.0,0.0,0.0,0.0,0.0,0.0,0.0,0.0,0.0,0.0,0.0,0.0,0.0,0.0,0.0,0.0,0.0,0.0,0.0,0.0,0.0,0.0,0.0,0.0,0.0,0.0,0.0,0.0,0.0,0.0,0.0,0.0,0.0,0.0,0.0,0.0,0.0,0.0,0.0,0.0,0.0,0.0,0.0,0.0,0.0,0.0,0.0,0.0,0.0,0.0,0.0,0.0,0.0,0.0,0.0,0.0,0.0,0.0,0.0,0.0,0.0,0.0,0.0,0.0,0.0,0.0,0.0,0.0,0.0,0.0,0.0,0.0,0.0,0.0,0.0,0.0,0.0,0.0,0.0,0.0,0.0,0.0,0.0,0.0,0.0,0.0,0.0,0.0,0.0,0.0,0.0,0.0,0.0,0.0,0.0,0.0,0.0,0.0,0.0,0.0,0.0,0.0,0.0,0.0,0.0,0.0,0.0,0.0,0.0,0.0,0.0,0.0,0.0,0.0,0.0,0.0,0.0,0.0,0.0,0.0,0.0,0.0,0.0,0.0,0.0,0.0,0.0,0.0,0.0,0.0,0.0,0.0,0.0,0.0,0.0,0.0,0.0,0.0,0.0,0.0,0.0,0.0,0.0,0.0,0.0,0.0,0.0,0.0,0.0,0.0,0.0,0.0,0.0,0.0,0.0,0.0,0.0,0.0,0.0,0.0,0.0,0.0,0.0,0.0,0.0,0.0,0.0,0.0,0.0,0.0,0.0,0.0,0.0,0.0,0.0,0.0,0.0,0.0,0.0,0.0,0.0,0.0,0.0,0.0,0.0,0.0,0.0,0.0,0.0,0.0,0.0,0.0,0.0,0.0,0.0,0.0,0.0,0.0,0.0,0.0,0.0,0.0,0.0,0.0,0.0,0.0,0.0,0.0,0.0,0.0,0.0,0.0,0.0,0.0,0.0,0.0,0.0,0.0,0.0,0.0,0.0,0.0,0.0,0.0,0.0,0.0,0.0,0.0,0.0,0.0,0.0,0.0,0.0,0.0,0.0,0.0,0.0,0.0,0.0,0.0,0.0,0.0,0.0,0.0,0.0,0.0,0.0,0.0,0.0,0.0,0.0,0.0,0.0,0.0,0.0,0.0,0.0,0.0,0.0,0.0,0.0,0.0,0.0,0.0,0.0,0.0,0.0,0.0,0.0,0.0,0.0,0.0,0.0,0.0,0.0,0.0,0.0,0.0,0.0,0.0,0.0,0.0,0.0,0.0,0.0,0.0,0.0,0.0,0.0,0.0,0.0,0.0,0.0,0.0,0.0,0.0,0.0,0.0,0.0,0.0,0.0,0.0,0.0,0.0,0.0,0.0,0.0,0.0,0.0,0.0,0.0,0.0,0.0,0.0,0.0,0.0,0.0,0.0,0.0,0.0,0.0,0.0,0.0,0.0,0.0,0.0,0.0,0.0,0.0,0.0,0.0,0.0,0.0,0.0,0.0,0.0,0.0,0.0,0.0,0.0,0.0,0.0,0.0,0.0,0.0,0.0,0.0,0.0,0.0,0.0,0.0,0.0,0.0,0.0,0.0,0.0,0.0,0.0,0.0,0.0,0.0,0.0,0.0,0.0,0.0,0.0,0.0,0.0,0.0,0.0,0.0,0.0,0.0,0.0,0.0,0.0,0.0,0.0,0.0,0.0,0.0,0.0,0.0,0.0,0.0,0.0,0.0,0.0,0.0,0.0,0.0,0.0,0.0,0.0,0.0,0.0,0.0,0.0,0.0,0.0,0.0,0.0,0.0,0.0,0.0,0.0,0.0,0.0,0.0,0.0,0.0,0.0,0.0,0.0,0.0,0.0,0.0,0.0,0.0,0.0,0.0,0.0,0.0,0.0,0.0,0.0,0.0,0.0,0.0,0.0,0.0,0.0,0.0,0.0,0.0,0.0,0.0,0.0,0.0,0.0,0.0,0.0,0.0,0.0,0.0,0.0,0.0,0.0,0.0,0.0,0.0,0.0,0.0,0.0,0.0,0.0,0.0,0.0,0.0,0.0,0.0,0.0,0.0,0.0,0.0,0.0,0.0,0.0,0.0,0.0,0.0,0.0,0.0,0.0,0.0,0.0,0.0,0.0,0.0,0.0,0.0,0.0,0.0,0.0,0.0,0.0,0.0,0.0,0.0,0.0,0.0,0.0,0.0,0.0,0.0,0.0,0.0,0.0,0.0,0.0,0.0,0.0,0.0,0.0,0.0,0.0,0.0,0.0,0.0,0.0,0.0,0.0,0.0,0.0,0.0,0.0,0.0,0.0,0.0,0.0,0.0,0.0,0.0,0.0,0.0,0.0,0.0,0.0,0.0,0.0,0.0,0.0,0.0,0.0,0.0,0.0,0.0,0.0,0.0,0.0,0.0,0.0,0.0,0.0,0.0,0.0,0.0,0.0,0.0,0.0,0.0,0.0,0.0,0.0,0.0,0.0,0.0,0.0,0.0,0.0,0.0,0.0,0.0,0.0,0.0,0.0,0.0,0.0,0.0,0.0,0.0,0.0,0.0,0.0,0.0,0.0,0.0,0.0,0.0,0.0,0.0,0.0,0.0,0.0,0.0,0.0,0.0,0.0,0.0,0.0,0.0,0.0,0.0,0.0,0.0,0.0,0.0,0.0,0.0,0.0,0.0,0.0,0.0,0.0,0.0,0.0,0.0,0.0,0.0,0.0,0.0,0.0,0.0,0.0,0.0,0.0,0.0,0.0,0.0,0.0,0.0,0.0,0.0,0.0,0.0,0.0,0.0,0.0,0.0,0.0,0.0,0.0,0.0,0.0,0.0,0.0,0.0,0.0,0.0,0.0,0.0,0.0,0.0,0.0,0.0,0.0,0.0,0.0,0.0,0.0,0.0,0.0,0.0,0.0,0.0,0.0,0.0,0.0,0.0,0.0,0.0,0.0,0.0,0.0,0.0,0.0,0.0,0.0,0.0,0.0,0.0,0.0,0.0,0.0,0.0,0.0,0.0,0.0,0.0,0.0,0.0,0.0,0.0,0.0,0.0,0.0,0.0,0.0,0.0,0.0,0.0,0.0,0.0,0.0,0.0,0.0,0.0,0.0,0.0,0.0,0.0,0.0,0.0,0.0,0.0,0.0,0.0,0.0,0.0,0.0,0.0,0.0,0.0,0.0,0.0,0.0,0.0,0.0,0.0,0.0,0.0,0.0,0.0,0.0,0.0,0.0,0.0,0.0,0.0,0.0,0.0,0.0,0.0,0.0,0.0,0.0,0.0,0.0,0.0,0.0,0.0,0.0,0.0,0.0,0.0,0.0,0.0,0.0,0.0,0.0,0.0,0.0,0.0,0.0,0.0,0.0,0.0,0.0,0.0,0.0,0.0,0.0,0.0,0.0,0.0,0.0,0.0,0.0,0.0,0.0,0.0,0.0,0.0,0.0,0.0,0.0,0.0,0.0,0.0,0.0,0.0,0.0,0.0,0.0,0.0,0.0,0.0,0.0,0.0,0.0,0.0,0.0,0.0,0.0,0.0,0.0,0.0,0.0,0.0,0.0,0.0,0.0,0.0,0.0,0.0,0.0,0.0,0.0,0.0,0.0,0.0,0.0,0.0,0.0,0.0,0.0,0.0,0.0,0.0,0.0,0.0,0.0,0.0,0.0,0.0,0.0,0.0,0.0,0.0,0.0,0.0,0.0,0.0,0.0,0.0,0.0,0.0,0.0,0.0,0.0,0.0,0.0,0.0,0.0,0.0,0.0,0.0,0.0,0.0,0.0,0.0,0.0,0.0,0.0,0.0,0.0,0.0,0.0,0.0,0.0,0.0,0.0,0.0,0.0,0.0,0.0,0.0,0.0,0.0,0.0,0.0,0.0,0.0,-4.0973,-4.0606,0.0,0.0,0.0,0.0,0.0,0.0,0.0,0.0,0.0,0.0,0.0,0.0,0.0,0.0,0.0,0.0,0.0,0.0,0.0,0.0,0.0,0.0,0.0,0.0,0.0,0.0,0.0,0.0,0.0,0.0,0.0,0.0,0.0,0.0,0.0,0.0,-3.6502,-3.7246,-3.8024,-3.8937,-3.9986,-3.8875,-3.7767,-3.6715,0.0,0.0,0.0,0.0,0.0,0.0,0.0,0.0,0.0,0.0,0.0,0.0,0.0,0.0,0.0,0.0,0.0,0.0,0.0,0.0,0.0,0.0,0.0,0.0,0.0,0.0,0.0,0.0,0.0,0.0,0.0,0.0,0.0,0.0,0.0,0.0,0.0,0.0,0.0,0.0,0.0,0.0,0.0,0.0,0.0,0.0,0.0,0.0,0.0,0.0,0.0,0.0,0.0,0.0,0.0,0.0,0.0,0.0,0.0,0.0,0.0,0.0,0.0,0.0,0.0,0.0,0.0,0.0,0.0,0.0,-4.1743,-4.1085,0.0,0.0,0.0,0.0,0.0,0.0,0.0,0.0,0.0,0.0,0.0,0.0,0.0,0.0,0.0,0.0,0.0,0.0,0.0,0.0,0.0,0.0,0.0,-3.6603,-3.7246,-3.7855,-3.7922,-3.7652,0.0,0.0,0.0,0.0,0.0,0.0,-3.6174,-3.7584,-3.8633,-3.9377,-4.0231,-4.1373,-4.2692,-4.2273,-4.0996,-3.9073,-3.9411,0.0,0.0,0.0,0.0,0.0,0.0,0.0,0.0,0.0,0.0,0.0,0.0,0.0,0.0,0.0,0.0,0.0,0.0,0.0,0.0,0.0,0.0,0.0,0.0,0.0,0.0,0.0,0.0,0.0,0.0,0.0,0.0,0.0,0.0,0.0,0.0,0.0,0.0,0.0,0.0,0.0,0.0,0.0,0.0,0.0,0.0,0.0,0.0,0.0,0.0,0.0,0.0,0.0,0.0,0.0,0.0,0.0,0.0,0.0,0.0,0.0,0.0,0.0,-4.4766,-4.5304,-4.5304,-4.5304,-4.5304,-4.5155,-4.2432,-4.1564,-4.2013,-4.1235,0.0,0.0,0.0,0.0,0.0,0.0,0.0,0.0,0.0,0.0,0.0,0.0,0.0,0.0,0.0,0.0,0.0,0.0,0.0,0.0,0.0,-3.7686,-3.7787,-3.7889,-3.7922,-3.7855,-3.7753,0.0,0.0,0.0,0.0,-3.7889,-3.8531,-3.9402,-4.0155,-4.0899,-4.2293,-4.3436,-4.431,-4.484,-4.4603,-4.3667,-4.2448,-4.0782,-3.8962,0.0,0.0,0.0,0.0,0.0,0.0,0.0,0.0,0.0,0.0,0.0,0.0,0.0,0.0,0.0,0.0,0.0,0.0,0.0,0.0,0.0,0.0,0.0,0.0,0.0,0.0,0.0,0.0,0.0,0.0,0.0,0.0,0.0,0.0,0.0,0.0,0.0,0.0,0.0,0.0,0.0,-3.9409,-4.0068,0.0,0.0,0.0,0.0,0.0,0.0,0.0,0.0,0.0,0.0,0.0,0.0,0.0,-4.2701,-4.3928,-4.4676,-4.5035,-4.5035,-4.5214,-4.5304,-4.5304,-4.5304,-4.5304,-4.5274,-4.4825,0.0,-4.4676,-4.3449,0.0,0.0,0.0,0.0,0.0,0.0,0.0,0.0,0.0,0.0,0.0,0.0,0.0,0.0,0.0,0.0,0.0,0.0,0.0,0.0,0.0,-3.887,-3.9309,-3.9715,-4.0121,-4.0358,-4.0358,-3.9986,0.0,0.0,-3.9749,-3.9918,-4.0223,-4.0933,-4.1941,-4.3098,-4.4615,-4.5753,-4.6481,-4.6797,-4.6781,-4.6352,-4.5732,-4.3829,-4.1128,-4.0889,0.0,0.0,0.0,0.0,0.0,0.0,0.0,0.0,0.0,0.0,0.0,0.0,0.0,0.0,0.0,0.0,0.0,0.0,0.0,0.0,0.0,0.0,0.0,0.0,0.0,0.0,0.0,0.0,0.0,0.0,0.0,0.0,0.0,0.0,0.0,0.0,0.0,0.0,0.0,-3.9768,-4.0217,-4.0876,-4.0935,-4.1055,0.0,0.0,0.0,0.0,0.0,0.0,0.0,0.0,0.0,-4.3998,-4.3658,-4.3928,-4.4855,-4.5544,-4.5873,-4.5873,-4.6232,-4.6411,-4.6411,-4.6411,-4.6411,-4.6411,-4.6411,-4.6411,-4.6292,-4.4586,-4.4067,-4.4347,0.0,0.0,0.0,0.0,-4.3329,-4.303,0.0,0.0,0.0,0.0,0.0,0.0,0.0,0.0,0.0,0.0,0.0,0.0,-3.9445,-4.0054,-4.0663,-4.1407,-4.1982,-4.2286,-4.2286,-4.1779,-4.1474,-4.1474,-4.1474,-4.1677,-4.2049,-4.3166,-4.4384,-4.5703,-4.7072,-4.8077,-4.8751,-4.8817,-4.8793,-4.8628,-4.8513,-4.655,-4.329,-4.2472,-4.1137,-3.9462,0.0,0.0,0.0,0.0,0.0,0.0,0.0,0.0,0.0,0.0,0.0,0.0,0.0,0.0,0.0,0.0,0.0,0.0,0.0,0.0,0.0,0.0,0.0,0.0,0.0,0.0,0.0,0.0,0.0,0.0,0.0,0.0,0.0,0.0,0.0,0.0,0.0,-4.0546,-4.0876,-4.1602,-4.1841,-4.1953,0.0,0.0,0.0,0.0,0.0,0.0,-4.3529,-4.3708,-4.4287,-4.5274,-4.4975,-4.5155,-4.5813,-4.6501,-4.692,-4.707,-4.7578,-4.7818,-4.7818,-4.7818,-4.7818,-4.7818,-4.7818,-4.7818,-4.7668,-4.5663,-4.5125,-4.5484,-4.4825,-4.4855,-4.5304,-4.5304,-4.4975,-4.4556,0.0,0.0,0.0,0.0,0.0,0.0,0.0,0.0,0.0,0.0,0.0,-3.9478,-4.0933,-4.1136,-4.1441,-4.2185,-4.2286,-4.2286,-4.2286,-4.2252,-4.2219,-4.2219,-4.2219,-4.2929,-4.4412,-4.6515,-4.8003,-4.8781,-4.9562,-5.0306,-5.1016,-5.1017,-5.1051,-5.0985,-5.0293,-4.8329,-4.5502,-4.4746,-4.3633,-4.2197,-4.0133,0.0,0.0,0.0,0.0,0.0,0.0,0.0,0.0,0.0,0.0,0.0,0.0,0.0,0.0,0.0,0.0,0.0,0.0,0.0,0.0,0.0,0.0,0.0,0.0,0.0,0.0,0.0,0.0,0.0,0.0,0.0,0.0,0.0,0.0,0.0,0.0,0.0,0.0,-4.2261,-4.288,0.0,0.0,0.0,0.0,-4.4197,-4.4766,-4.4885,-4.4287,-4.4855,-4.5214,-4.5304,-4.5903,-4.6531,-4.7189,-4.7848,-4.8506,-4.9179,-4.9209,-4.9209,-4.9209,-4.9209,-4.9209,-4.9209,-4.9209,-4.9209,-4.906,-4.704,-4.619,-4.616,-4.5514,-4.5274,-4.5304,-4.5304,-4.5274,-4.5244,0.0,0.0,0.0,0.0,0.0,-3.6571,-3.6761,-3.7608,-3.8396,-3.8937,-3.9817,-4.0629,-4.1136,-4.2049,-4.2929,-4.3735,-4.4215,-4.4688,-4.5162,-4.5196,-4.5196,-4.5196,-4.5196,-4.5669,-4.6718,-4.797,-4.8984,-4.9695,-5.0424,-5.0894,-5.1127,-5.1142,-5.0841,-5.0367,-5.0634,-4.9871,-4.8282,-4.6743,-4.5207,-4.3667,-4.1182,-3.9848,0.0,0.0,0.0,0.0,0.0,0.0,0.0,0.0,0.0,0.0,0.0,0.0,0.0,0.0,0.0,0.0,0.0,0.0,0.0,0.0,0.0,0.0,0.0,0.0,0.0,0.0,0.0,0.0,0.0,0.0,0.0,0.0,0.0,0.0,0.0,0.0,0.0,-4.3539,-4.4197,0.0,-4.4915,-4.5155,-4.5185,-4.4975,-4.5155,-4.5394,-4.5603,-4.6232,-4.677,-4.7219,-4.7878,-4.8327,-4.8566,-4.8805,-4.909,-4.9299,-4.9299,-4.9299,-4.9299,-4.9299,-4.9299,-4.9299,-4.9299,-4.9299,-4.9269,-4.8506,-4.8207,-4.8207,-4.7938,-4.7892,-4.7892,-4.7892,-4.7892,-4.7892,0.0,0.0,0.0,-3.6156,-3.6502,-3.6944,-3.7134,-3.8193,-3.9174,-3.9681,-4.0595,-4.1508,-4.2252,-4.3234,-4.4215,-4.5258,-4.5771,-4.6278,-4.6752,-4.6786,-4.6786,-4.6786,-4.7259,-4.7767,-4.8244,-4.9207,-5.0082,-5.0845,-5.1293,-5.165,-5.1894,-5.19,-5.148,-5.0729,-5.1567,-5.13,-5.0228,-4.9176,-4.7698,-4.5885,-4.3351,-4.2027,-4.1319,0.0,0.0,0.0,0.0,0.0,0.0,0.0,0.0,0.0,0.0,0.0,0.0,0.0,0.0,0.0,0.0,0.0,0.0,0.0,0.0,0.0,0.0,0.0,0.0,0.0,0.0,0.0,0.0,0.0,0.0,0.0,0.0,0.0,0.0,-4.324,-4.3858,-4.4556,-4.5244,-4.5633,-4.5633,-4.5843,-4.6052,-4.6292,-4.6292,-4.6591,-4.7279,-4.7728,-4.8177,-4.8596,-4.909,-4.9419,-4.9583,-4.9583,-4.9703,-4.9912,-4.9821,-4.9867,-4.9942,-5.006,-5.0226,-5.0318,-5.0527,-5.0647,-5.0647,-5.0647,-5.0647,-5.0557,-4.9659,-4.9299,-4.9299,-4.9299,-4.9299,-4.9284,0.0,0.0,-3.7087,-3.6224,-3.657,-3.7182,-3.7821,-3.8565,-3.9546,-4.1001,-4.1238,-4.2083,-4.4344,-4.4615,-4.5224,-4.6718,-4.6819,-4.6819,-4.6853,-4.6853,-4.6887,-4.6887,-4.8274,-4.9086,-4.912,-5.046,-5.1561,-5.2334,-5.2294,-5.2694,-5.3484,-5.3416,-5.3007,-5.2307,-5.3109,-5.259,-5.1187,-5.1963,-5.105,-4.8899,-4.6689,-4.4952,-4.3525,0.0,0.0,0.0,0.0,0.0,0.0,0.0,0.0,0.0,0.0,0.0,0.0,0.0,0.0,0.0,0.0,0.0,0.0,0.0,0.0,0.0,0.0,0.0,0.0,0.0,0.0,0.0,0.0,0.0,0.0,0.0,0.0,0.0,-4.3319,-4.3958,-4.4616,-4.5244,-4.5933,-4.6309,-4.6339,-4.695,-4.7608,-4.8267,-4.8327,-4.8596,-4.9269,-4.9329,-4.9329,-4.9329,-4.9359,-4.9643,-5.0255,-5.0255,-5.0584,-5.1289,-5.1024,-5.1024,-5.1272,-5.1661,-5.1958,-5.2276,-5.2905,-5.3174,-5.3174,-5.3174,-5.3174,-5.2935,-5.0391,-4.9419,-4.9419,-4.9419,-4.9449,-4.9404,-3.9797,-3.9272,-3.8688,-3.7741,-3.8114,-3.8608,-3.8691,-3.9309,-4.0146,-4.1068,-4.1677,-4.2658,-4.4412,-4.506,-4.6007,-4.7496,-4.7597,-4.7834,-4.8376,-4.8409,-4.8612,-4.9154,-5.0101,-5.0845,-5.1386,-5.1764,-5.2371,-5.3179,-5.2594,-5.2414,-5.2624,-5.2023,-5.1627,-5.1443,-5.1627,-5.1842,-5.1951,-5.1576,-5.1418,-5.1154,-4.8531,-4.6507,-4.5002,0.0,0.0,0.0,0.0,0.0,0.0,0.0,0.0,0.0,0.0,0.0,0.0,0.0,0.0,0.0,0.0,0.0,0.0,0.0,0.0,0.0,0.0,0.0,0.0,0.0,0.0,0.0,0.0,0.0,0.0,0.0,-4.4018,-4.4586,-4.4107,-4.4994,-4.5843,-4.6022,-4.6621,-4.7219,-4.7698,-4.7908,-4.8297,-4.9,-4.906,-4.912,-4.9299,-4.9703,-4.9972,-4.9972,-5.0421,-5.099,-5.1648,-5.1648,-5.2007,-5.2636,-5.2587,-5.2587,-5.2665,-5.2554,-5.2594,-5.2643,-5.2625,-5.2615,-5.2615,-5.2615,-5.2615,-5.2605,-5.2252,-5.2145,-5.2145,-5.2145,-5.2001,-5.1791,-3.9905,-3.9663,-3.933,-3.8425,-3.8856,-3.9248,-3.9103,-3.9985,-4.0875,-4.1576,-4.232,-4.347,-4.5326,-4.5906,-4.6752,-4.824,-4.8376,-4.8545,-4.8984,-4.9289,-4.9796,-5.0541,-5.1285,-5.186,-5.23,-5.2303,-5.2707,-5.3518,-5.2694,-5.2449,-5.2799,-5.231,-5.1951,-5.1623,-5.1623,-5.1696,-5.1806,-5.1659,-5.1688,-5.1722,-5.0727,-4.9054,-4.6869,-4.528,-4.4418,-4.3809,-4.1732,-4.0804,-4.0414,-3.9447,0.0,0.0,0.0,0.0,0.0,0.0,0.0,0.0,0.0,0.0,0.0,0.0,0.0,0.0,0.0,0.0,0.0,0.0,0.0,0.0,0.0,0.0,0.0,0.0,-4.5035,-4.5603,-4.5214,-4.5843,-4.6488,-4.707,-4.7489,-4.7967,-4.8626,-4.8686,-4.8985,-4.9613,-4.9673,-4.9793,-5.0062,-5.069,-5.105,-5.105,-5.1708,-5.2217,-5.2606,-5.2606,-5.2785,-5.3174,-5.3077,-5.3028,-5.3058,-5.303,-5.3079,-5.3029,-5.3145,-5.3213,-5.3213,-5.3213,-5.3213,-5.3154,0.0,0.0,0.0,0.0,-5.2763,-5.2615,-4.0032,-3.9813,-3.9525,-3.878,-3.9168,-3.9505,-3.9462,-4.056,-4.163,-4.2347,-4.2997,-4.4282,-4.6549,-4.6786,-4.7394,-4.8883,-4.9018,-4.9052,-4.912,-4.9898,-5.0642,-5.1319,-5.2063,-5.2435,-5.2435,-5.2431,-5.2799,-5.3518,-5.2799,-5.2799,-5.3518,-5.3518,-5.3144,-5.2414,-5.2343,-5.1951,-5.1406,-5.1915,-5.1842,-5.148,-5.2834,-5.1655,-4.8946,-4.7165,-4.5908,-4.4843,-4.2875,-4.2325,-4.2408,-4.2088,0.0,0.0,0.0,0.0,0.0,0.0,0.0,0.0,0.0,0.0,0.0,0.0,0.0,0.0,0.0,0.0,0.0,0.0,0.0,0.0,0.0,0.0,0.0,0.0,-4.5992,-4.6471,-4.6488,-4.6561,-4.698,-4.8147,-4.8356,-4.8656,-4.9359,-4.9419,-4.9643,-5.0255,-5.0375,-5.0674,-5.1289,-5.1947,0.0,0.0,0.0,-5.3204,-5.3294,-5.3294,-5.3324,-5.3414,-5.3168,-5.307,-5.3099,-5.3393,-5.3478,-5.3537,-5.4016,-5.42,-5.42,-5.42,-5.42,-5.4083,-5.3015,-5.2623,-5.2623,-5.2573,-5.2603,-5.2523,-4.1257,-4.0886,-4.0582,-4.0291,-4.0347,-4.0558,-4.0916,-4.1206,-4.1834,-4.3031,-4.3308,-4.4282,-4.6549,-4.6786,-4.7394,-4.8883,-4.9018,-4.9255,-4.983,-5.1116,-5.1928,-5.2097,-5.2841,-5.3281,-5.3281,-5.3281,-5.3348,-5.3518,-5.3348,-5.3348,-5.3518,-5.3518,-5.3416,-5.3246,-5.2589,-5.2555,-5.2972,-5.1842,-5.1987,-5.3007,-5.2694,-5.1779,-5.0639,-5.0279,-4.9328,-4.7878,-4.6339,-4.4736,-4.3205,-4.2315,-4.1583,-4.1085,-4.0718,-4.0876,0.0,0.0,0.0,0.0,0.0,0.0,0.0,0.0,0.0,0.0,0.0,0.0,0.0,0.0,0.0,0.0,0.0,0.0,0.0,-4.5992,-4.6681,-4.7309,-4.7848,-4.7908,-4.7997,-4.8267,-4.879,-4.9344,-5.0002,-5.0016,-5.0331,-5.099,-5.1528,-5.1887,-5.2007,-5.2636,-5.2995,-5.2995,-5.3114,-5.3443,-5.4012,-5.4012,-5.4281,-5.479,-5.474,0.0,-5.4719,-5.4272,-5.4127,-5.4127,-5.3808,-5.3658,-5.3658,-5.3658,-5.3658,-5.3681,-5.3884,-5.392,-5.3899,-5.3693,-5.359,-5.359,-4.1995,-4.149,-4.1117,-4.0847,-4.0776,-4.1003,-4.1501,-4.192,-4.2492,-4.3437,-4.3885,-4.4637,-4.6075,-4.6583,-4.7259,-4.8376,-4.912,-4.9864,-5.0608,-5.1691,-5.2469,-5.2875,-5.3281,-5.3518,-5.3518,-5.3518,-5.3518,-5.3518,-5.3518,-5.3518,-5.3518,-5.3518,-5.3518,-5.345,-5.2272,-5.2164,-5.2834,-5.159,-5.1553,-5.2274,-5.2307,-5.1792,-5.1074,-5.0716,-4.9632,-4.8117,-4.7081,-4.6004,-4.4995,-4.4234,-4.3532,-4.291,-4.2488,-4.2132,-4.1901,0.0,0.0,0.0,0.0,0.0,0.0,0.0,0.0,0.0,0.0,0.0,0.0,0.0,0.0,-4.3748,-4.5065,0.0,-4.6142,-4.713,-4.7578,-4.8027,-4.873,-4.9045,-4.9254,-4.9254,-4.9553,-5.0002,-5.0614,-5.0674,-5.099,-5.1648,-5.2007,-5.2336,-5.2665,-5.3324,-5.3683,-5.3683,-5.4012,-5.4341,-5.47,-5.47,-5.485,-5.5179,-5.5179,-5.5158,-5.4976,-5.4539,-5.4252,-5.4045,-5.3658,-5.35,-5.35,-5.35,-5.35,-5.353,-5.3815,-5.3919,-5.3919,-5.3762,-5.371,-5.3658,-4.2828,-4.2349,-4.184,-4.1023,-4.1032,-4.133,-4.194,-4.2636,-4.3348,-4.3871,-4.4429,-4.5054,-4.5693,-4.6273,-4.6955,-4.7804,-4.9255,-5.0405,-5.1151,-5.1894,-5.2672,-5.345,-5.3518,-5.3518,-5.3518,-5.3518,-5.3518,-5.3518,-5.3518,-5.3518,-5.3518,-5.3518,-5.3518,-5.3416,-5.2131,-5.1915,-5.2485,-5.1696,-5.1331,-5.1369,-5.1878,-5.1586,-5.0817,-5.0204,-4.9177,-4.7954,-4.7468,-4.704,-4.6717,-4.6224,-4.5576,-4.4919,-4.4369,-4.3429,-4.259,-4.259,-4.2162,0.0,0.0,0.0,0.0,0.0,0.0,0.0,0.0,-4.4137,-4.4676,-4.5364,-4.5484,-4.5693,-4.6381,-4.6621,-4.704,-4.8117,-4.8386,-4.8716,-4.9374,-4.9912,-5.0255,-5.0375,-5.0375,-5.0644,-5.1349,-5.1409,-5.1678,-5.2336,-5.2516,-5.2815,-5.3354,-5.4012,-5.4401,-5.4401,-5.491,-5.5179,-5.5179,-5.5179,-5.5179,-5.5179,-5.5179,-5.5108,-5.4854,-5.4539,-5.4252,-5.3971,-5.3658,-5.35,-5.35,-5.35,-5.35,-5.35,-5.35,-5.35,-5.35,-5.35,-5.35,-5.35,-4.442,-4.4207,-4.3474,-4.1267,-4.1447,-4.2088,-4.2696,-4.3426,-4.4189,-4.4783,-4.4818,-4.5082,-4.5801,-4.5828,-4.638,-4.777,-4.9255,-5.0405,-5.1151,-5.1894,-5.2672,-5.345,-5.3518,-5.3518,-5.3518,-5.3518,-5.3518,-5.3518,-5.3518,-5.3518,-5.3518,-5.3518,-5.3518,-5.3518,-5.3314,-5.328,-5.3314,-5.2485,-5.2164,-5.2128,-5.148,-5.0729,-5.0026,-4.9931,-4.9781,-4.9623,-4.956,-4.8675,-4.7363,-4.6508,-4.5696,-4.4828,-4.4016,-4.3518,-4.32,-4.32,-4.314,-4.32,-4.3838,-4.4407,-4.4855,-4.4855,-4.4915,-4.5005,0.0,-4.5125,-4.5394,-4.6082,-4.6202,-4.6369,-4.707,-4.7668,-4.8117,-4.8267,-4.882,-4.9374,-4.9986,-5.0136,-5.0405,-5.105,-5.1109,-5.1379,-5.2037,-5.2097,-5.2366,-5.3025,-5.3653,-5.4012,-5.4102,-5.473,-5.5089,-5.5089,-5.5149,-5.5179,-5.5179,-5.5179,-5.5179,-5.5179,-5.5179,-5.5179,-5.5158,-5.4905,-5.4568,-5.4252,-5.371,-5.35,-5.35,-5.35,-5.35,-5.35,-5.35,-5.35,-5.35,-5.35,-5.35,-5.35,-4.4736,-4.4303,-4.3756,-4.2466,-4.2482,-4.294,-4.3614,-4.4001,-4.4431,-4.5054,-4.5042,-4.507,-4.5245,-4.5518,-4.6312,-4.777,-4.8849,-4.9763,-5.0507,-5.1657,-5.2469,-5.2807,-5.3247,-5.3518,-5.3518,-5.3518,-5.3518,-5.3518,-5.3518,-5.3518,-5.3518,-5.3518,-5.3518,-5.3484,-5.3007,-5.3041,-5.345,-5.2659,-5.2307,-5.2272,-5.1915,-5.1065,-4.9908,-4.9908,-4.959,-4.9138,-4.9138,-4.8748,0.0,-4.7191,-4.6396,-4.5605,-4.4548,-4.4138,-4.4058,-4.3898,-4.4167,-4.4526,-4.4796,-4.5095,-4.5304,-4.5304,-4.5304,-4.5394,-4.5813,-4.5903,-4.6082,-4.6741,-4.7189,-4.7549,-4.7818,-4.8416,-4.8985,-4.9374,-4.9643,-5.0062,-5.0674,-5.1139,-5.1468,-5.1768,-5.2127,-5.2306,-5.2217,-5.2546,-5.3054,-5.3713,-5.4042,-5.4371,-5.476,-5.5029,-5.5179,-5.5179,-5.5179,-5.5179,-5.5179,-5.5179,-5.5179,-5.5179,-5.5179,-5.5179,-5.5179,-5.4905,-5.4517,-5.4045,-5.3658,-5.35,-5.35,-5.35,-5.35,-5.35,-5.35,-5.35,-5.35,-5.35,-5.35,-5.35,-4.5416,-4.491,-4.4507,-4.3894,-4.3828,-4.3931,-4.4242,-4.4483,-4.4777,-4.5188,-4.5203,-4.5096,-4.4886,-4.5427,-4.623,-4.7285,-4.803,-4.8812,-4.9729,-5.0811,-5.1657,-5.2266,-5.2875,-5.3281,-5.3518,-5.3518,-5.3518,-5.3518,-5.3518,-5.3518,-5.3518,-5.3518,-5.3518,-5.345,-5.2903,-5.2938,-5.3484,-5.2868,-5.2485,-5.2307,-5.2307,-5.1475,-5.0221,-4.9986,-4.951,-4.8934,-4.8687,-4.8604,-4.844,-4.7456,-4.6722,-4.6041,-4.5052,-4.4609,-4.4549,-4.4567,-4.5065,-4.5574,-4.5574,-4.5723,-4.5843,-4.5843,-4.5843,-4.5992,-4.6471,-4.6591,-4.6741,-4.7219,-4.7818,-4.8297,-4.8297,-4.8955,-4.9673,-5.0106,-5.0345,-5.0704,-5.1409,-5.1887,-5.2276,-5.2456,-5.3054,-5.3294,-5.2815,-5.3174,-5.3743,-5.4431,-5.4491,-5.47,-5.5149,-5.5179,-5.5179,-5.5179,-5.5179,-5.5179,-5.5179,-5.5179,-5.5179,-5.5179,-5.5179,-5.5179,-5.5179,-5.4905,-5.4517,-5.3993,-5.371,-5.3553,-5.35,-5.35,-5.35,-5.35,-5.35,-5.35,-5.35,-5.35,-5.35,-5.35,-4.6999,-4.6796,-4.6507,-4.5537,-4.5328,-4.5113,-4.4414,-4.4906,-4.5363,-4.5397,-4.5291,-4.515,-4.5022,-4.5651,-4.6073,-4.5966,-4.6646,-4.7611,-4.8951,-4.9086,-5.0067,-5.2198,-5.2334,-5.2706,-5.3484,-5.3518,-5.3518,-5.3518,-5.3518,-5.3518,-5.3518,-5.3518,-5.3518,-5.3518,-5.345,-5.3484,-5.3518,-5.345,-5.3007,-5.2307,-5.2307,-5.1806,-5.0995,-5.0221,-4.9868,-4.9749,-4.8893,-4.8604,-4.8419,-4.7065,-4.6355,-4.591,-4.5202,-4.468,-4.4436,-4.5065,-4.5753,-4.6249,-4.6249,-4.6741,-4.7249,-4.7249,-4.7249,-4.7249,-4.7279,-4.7279,-4.7279,-4.7309,-4.7818,-4.8297,-4.8297,-4.9344,-5.0166,-5.0196,-5.0734,-5.1409,-5.2067,-5.2187,-5.2426,-5.3084,-5.3773,-5.4162,-5.4162,-5.4162,-5.4461,-5.5119,-5.5149,-5.5179,-5.5179,-5.5179,-5.5179,-5.5179,-5.5179,-5.5179,-5.5179,-5.5179,-5.5179,-5.5179,-5.5179,-5.5179,-5.5179,-5.4905,-5.4619,-5.4252,-5.3993,-5.3762,-5.35,-5.35,-5.35,-5.35,-5.35,-5.35,-5.35,-5.35,-5.35,-5.35,-4.7485,-4.7356,-4.716,-4.6495,-4.6411,-4.6305,-4.6082,-4.568,-4.5528,-4.5879,-4.5494,0.0,0.0,0.0,0.0,0.0,-4.6277,-4.6737,-4.7611,-4.8595,-4.9416,-5.0067,-5.1048,-5.1928,-5.2706,-5.2706,-5.2976,-5.3518,-5.3518,-5.3518,-5.3518,-5.3518,-5.3518,-5.3518,-5.3518,-5.3518,-5.3518,-5.3518,-5.3348,-5.3109,-5.3109,-5.259,-5.1813,-5.0997,-5.0362,-4.9731,0.0,-4.7969,-4.7804,-4.6911,-4.6137,-4.5462,-4.513,-4.5062,-4.5391,-4.6334,-4.68,-4.698,-4.698,-4.713,-4.7309,-4.7309,-4.7309,-4.7309,-4.7309,-4.7309,-4.7309,-4.7309,-4.7818,-4.8416,-4.8865,-4.9643,-5.0345,-5.0764,-5.1079,-5.1439,-5.2097,-5.2576,-5.3114,-5.3773,-5.4461,-5.485,-5.485,-5.485,-5.497,-5.5179,-5.5179,-5.5179,-5.5179,-5.5179,-5.5179,-5.5179,-5.5179,-5.5179,-5.5179,-5.5179,-5.5179,-5.5179,-5.5179,-5.5179,-5.5179,-5.4905,-5.4751,-5.4619,-5.4333,-5.4097,-5.3993,-5.3993,-5.3919,-5.3762,-5.3942,-5.3815,-5.35,-5.371,-5.3658,-5.35,-4.7695,-4.7611,-4.7464,-4.6981,-4.689,0.0,0.0,0.0,0.0,0.0,0.0,0.0,0.0,0.0,0.0,0.0,0.0,-4.602,-4.6629,-4.7495,-4.8354,-4.9043,-4.9929,-5.0879,-5.1894,-5.1928,-5.2164,-5.2706,-5.2706,-5.2807,-5.3078,-5.3078,-5.3213,-5.3518,-5.3518,-5.3518,-5.3518,-5.3518,-5.3518,-5.3484,-5.3179,-5.2775,-5.216,-5.1118,-5.0401,0.0,-4.8546,-4.7757,-4.7184,-4.6506,-4.5993,-4.5602,-4.5403,-4.5727,-4.6341,-4.7083,-4.7309,-4.7309,-4.7309,-4.7309,-4.7309,-4.7309,-4.7309,-4.7309,-4.7309,-4.7309,-4.7309,-4.7309,-4.7818,-4.8416,-4.888,-4.9643,-5.0315,-5.0764,-5.105,-5.1528,-5.2426,-5.2905,-5.3533,-5.4461,-5.494,-5.5179,-5.5179,-5.5179,-5.5179,-5.5179,-5.5179,-5.5179,-5.5179,-5.5179,-5.5179,-5.5179,-5.5179,-5.5179,-5.5179,-5.5179,-5.5179,-5.5179,-5.5179,-5.5179,-5.5179,-5.5027,-5.4905,-5.4803,-5.4539,-5.4406,-5.4304,-5.4304,-5.42,-5.4045,-5.4252,-5.3993,-5.3658,-5.3867,-5.371,-5.35,-4.7715,-4.7632,-4.7506,0.0,0.0,0.0,0.0,0.0,0.0,0.0,0.0,0.0,0.0,0.0,0.0,0.0,0.0,0.0,-4.602,-4.5982,-4.685,-4.8927,-4.8941,-4.956,-5.1014,-5.1082,-5.1116,-5.115,-5.1151,-5.1589,-5.2232,-5.2232,-5.2672,-5.3382,-5.3382,-5.3382,-5.3382,-5.3382,-5.3382,-5.3315,-5.257,-5.2232,-5.2099,-5.0592,-5.0021,-4.9919,-4.905,-4.7878,-4.6639,-4.5904,-4.5931,-4.6244,-4.5991,-4.6557,-4.7309,-4.7309,-4.7309,-4.7309,-4.7309,-4.7309,-4.7309,-4.7309,-4.7309,-4.7309,-4.7309,-4.7309,-4.7309,-4.7309,-4.7788,-4.8237,-4.8267,-4.9314,-5.0106,-5.0196,-5.0704,-5.1648,-5.2995,-5.3174,-5.3683,-5.5029,-5.5179,-5.5179,-5.5179,-5.5179,-5.5179,-5.5179,-5.5179,-5.5179,-5.5179,-5.5179,-5.5179,-5.5179,-5.5179,-5.5179,-5.5179,-5.5179,-5.5179,-5.5179,-5.5179,-5.5179,-5.5179,-5.5179,-5.5027,-5.4803,-5.4803,-5.4671,-5.4355,-5.4355,-5.4355,-5.4304,-5.4355,-5.4149,-5.3919,-5.3919,-5.3762,-5.35,0.0,0.0,0.0,0.0,0.0,0.0,0.0,0.0,0.0,0.0,0.0,0.0,0.0,0.0,0.0,0.0,0.0,0.0,-4.5459,-4.5891,-4.639,-4.6857,-4.7291,-4.7916,-4.8866,-4.932,-4.983,-5.0371,-5.0947,-5.1319,-5.1488,-5.1488,-5.1589,-5.1792,-5.1792,-5.1792,-5.1792,-5.1792,-5.1792,-5.1792,-5.1589,-5.1488,-5.1388,-5.045,-5.005,-4.9918,-4.8597,-4.79,-4.7496,-4.6697,-4.6222,-4.6052,-4.6331,-4.6834,-4.7309,-4.7309,-4.7309,-4.7309,-4.7309,-4.7309,-4.7309,-4.7309,-4.7309,-4.7309,-4.7309,-4.7309,-4.7309,-4.7309,-4.7429,-4.7698,-4.8207,-4.8566,-4.9105,-5.0046,-5.0315,-5.1109,-5.2935,-5.3174,-5.3683,-5.5029,-5.5179,-5.5179,-5.5179,-5.5179,-5.5179,-5.5179,-5.5179,-5.5179,-5.5179,-5.5179,-5.5179,-5.5179,-5.5179,-5.5179,-5.5179,-5.5179,-5.5179,-5.5179,-5.5179,-5.5179,-5.5179,-5.5179,-5.5128,-5.5108,-5.5108,-5.5027,-5.4976,-5.4976,-5.4875,-5.4671,-5.4875,-5.4539,-5.3971,-5.4414,-5.4104,-5.3553,0.0,0.0,0.0,0.0,0.0,0.0,0.0,0.0,0.0,0.0,0.0,0.0,0.0,0.0,0.0,0.0,0.0,0.0,0.0,-4.5616,-4.5912,-4.6172,-4.6476,-4.6907,-4.7602,-4.795,-4.8301,-4.8646,-4.9086,-4.9424,-4.9731,-4.9731,-4.99,-5.027,-5.0574,-5.071,-5.0744,-5.1082,-5.1185,0.0,0.0,-5.0236,-5.0135,-4.9052,-4.8646,-4.8582,-4.8077,-4.8094,-4.8299,-4.7841,-4.7397,-4.7096,-4.7569,-4.7588,-4.7439,-4.7352,-4.7309,-4.7369,-4.7668,-4.7519,-4.7369,-4.7668,-4.7519,-4.7309,-4.7309,-4.7309,-4.7309,-4.7309,-4.7309,-4.7429,-4.7788,-4.8087,-4.8626,-4.9643,-5.0016,-5.0883,-5.2905,-5.3174,-5.3683,-5.5029,-5.5179,-5.5179,-5.5179,-5.5179,-5.5179,-5.5179,-5.5179,-5.5179,-5.5179,-5.5179,-5.5179,-5.5179,-5.5179,-5.5179,-5.5179,-5.5179,-5.5179,-5.5179,-5.5179,-5.5179,-5.5179,-5.5179,-5.5179,-5.5179,-5.5179,-5.5179,-5.5179,-5.5179,-5.5078,-5.5006,-5.5128,-5.4824,-5.4363,-5.47,-5.4414,-5.3919,0.0,0.0,0.0,0.0,0.0,0.0,0.0,0.0,0.0,-4.7876,-4.6893,-4.6228,-4.6228,-4.5701,0.0,0.0,0.0,0.0,0.0,0.0,-4.5512,-4.6138,-4.6035,-4.6203,-4.6708,-4.6816,-4.6763,-4.665,-4.6752,-4.7124,-4.7736,-4.7736,-4.8105,-4.8748,-4.9357,-4.9661,-4.9695,-5.0338,-5.0642,-5.0507,-4.9221,-4.8714,-4.8578,0.0,-4.6786,-4.6887,-4.7665,-4.8509,-4.9293,-4.9202,-4.8877,-4.8577,-4.9059,-4.8449,-4.7538,-4.7352,-4.7309,-4.7459,-4.8117,-4.7818,-4.7459,-4.8117,-4.7788,-4.7309,-4.7309,-4.7309,-4.7309,-4.7309,-4.7309,-4.7309,-4.7309,-4.7788,-4.8386,-4.909,-4.9673,-5.081,-5.2785,-5.3114,-5.3683,-5.5029,-5.5179,-5.5179,-5.5179,-5.5179,-5.5179,-5.5179,-5.5179,-5.5179,-5.5179,-5.5179,-5.5179,-5.5179,-5.5179,-5.5179,-5.5179,-5.5179,-5.5179,-5.5179,-5.5179,-5.5179,-5.5179,-5.5179,-5.5179,-5.5179,-5.5179,-5.5179,-5.5179,-5.5179,-5.5179,-5.5179,-5.5179,-5.5057,-5.4803,-5.4854,-5.4619,-5.4304,0.0,0.0,0.0,0.0,0.0,0.0,0.0,0.0,0.0,0.0,-4.7478,-4.6228,0.0,0.0,0.0,0.0,0.0,0.0,0.0,0.0,0.0,-4.5543,-4.5409,-4.5343,-4.5343,-4.5818,-4.6016,-4.5906,-4.6481,-4.6853,-4.6989,-4.6989,-4.7056,-4.7192,-4.7327,-4.7361,-4.7361,-4.7496,-4.7564,-4.753,-4.7293,-4.7192,-4.7158,-4.6887,0.0,0.0,-4.7665,-4.9162,-5.082,-5.0824,-4.9782,-4.8577,-4.9059,-4.8449,-4.7538,-4.7352,-4.7309,-4.7459,-4.8117,-4.7818,-4.7459,-4.8117,-4.7788,-4.7309,-4.7309,-4.7309,-4.7309,-4.7309,-4.7309,-4.7309,-4.7309,-4.7399,-4.7698,-4.8356,-4.9015,-5.0122,-5.2097,-5.2845,-5.3683,-5.5029,-5.5179,-5.5179,-5.5179,-5.5179,-5.5179,-5.5179,-5.5179,-5.5179,-5.5179,-5.5179,-5.5179,-5.5179,-5.5179,-5.5179,-5.5179,-5.5179,-5.5179,-5.5179,-5.5179,-5.5179,-5.5179,-5.5179,-5.5179,-5.5179,-5.5179,-5.5179,-5.5179,-5.5179,-5.5179,-5.5179,-5.5179,-5.5057,-5.4854,-5.5057,-5.4794,-5.4355,0.0,0.0,0.0,0.0,0.0,0.0,0.0,-4.9353,-4.9757,-5.0178,-4.8789,-4.7629,-4.724,-4.6365,-4.5701,0.0,0.0,0.0,0.0,0.0,0.0,-4.5397,0.0,0.0,-4.4988,-4.5282,-4.532,-4.5128,0.0,-4.5664,-4.5664,-4.5664,-4.5664,-4.5698,-4.6041,-4.6244,-4.6244,-4.6616,-4.6786,-4.6752,-4.638,-4.6244,-4.6177,0.0,0.0,0.0,-4.7192,-4.9018,-5.1185,-5.1185,-5.0886,-5.0397,-5.0101,-4.8994,-4.7752,-4.7495,-4.7396,-4.7519,-4.8506,-4.8057,-4.7549,-4.8536,-4.8027,-4.7309,-4.7309,-4.7309,-4.7309,-4.7309,-4.7309,-4.7309,-4.7309,-4.7309,-4.7519,-4.8177,-4.8566,-4.9434,-5.1409,-5.2247,-5.3174,-5.4521,-5.497,-5.5179,-5.5179,-5.5179,-5.5179,-5.5179,-5.5179,-5.5179,-5.5179,-5.5179,-5.5179,-5.5179,-5.5179,-5.5179,-5.5179,-5.5179,-5.5179,-5.5179,-5.5179,-5.5179,-5.5179,-5.5179,-5.5179,-5.5179,-5.5179,-5.5179,-5.5179,-5.5179,-5.5179,-5.5179,-5.5179,-5.5128,-5.5027,-5.5128,-5.5027,-5.4794,0.0,0.0,0.0,0.0,0.0,0.0,0.0,-4.9757,-5.0161,-5.0949,-5.0337,-4.9505,-4.8686,-4.7223,-4.6098,0.0,0.0,0.0,0.0,0.0,0.0,0.0,0.0,0.0,0.0,0.0,0.0,-4.4615,-4.4615,0.0,0.0,0.0,0.0,0.0,-4.5196,-4.5466,-4.55,-4.6075,-4.6312,0.0,0.0,-4.5466,0.0,0.0,0.0,0.0,0.0,-4.8748,-5.1014,-5.1151,-5.1564,-5.1933,-5.1266,-4.9765,-4.8229,-4.7752,-4.7495,-4.7592,-4.879,-4.8207,-4.7578,-4.882,-4.8177,-4.7309,-4.7309,-4.7309,-4.7309,-4.7309,-4.7309,-4.7309,-4.7309,-4.7309,-4.7489,-4.7997,-4.8207,-4.8925,-5.075,-5.1708,-5.2695,-5.4042,-5.479,-5.5179,-5.5179,-5.5179,-5.5179,-5.5179,-5.5179,-5.5179,-5.5179,-5.5179,-5.5179,-5.5179,-5.5179,-5.5179,-5.5179,-5.5179,-5.5179,-5.5179,-5.5179,-5.5179,-5.5179,-5.5179,-5.5179,-5.5179,-5.5179,-5.5179,-5.5179,-5.5179,-5.5179,-5.5179,-5.5179,-5.5179,-5.5179,-5.5179,-5.5179,-5.5179,0.0,0.0,0.0,0.0,0.0,0.0,0.0,-5.0215,-5.0986,-5.1756,-5.1804,-5.1333,-5.0295,-4.8032,-4.6546,0.0,0.0,0.0,0.0,0.0,0.0,0.0,0.0,0.0,0.0,0.0,0.0,-4.4615,-4.4615,0.0,0.0,0.0,0.0,0.0,0.0,-4.4716,-4.4716,-4.4784,0.0,0.0,0.0,0.0,0.0,0.0,0.0,0.0,0.0,-4.8849,-5.0304,-5.098,-5.1196,-5.1312,-5.1969,-5.0849,-4.9157,-4.7934,-4.7581,-4.7718,-4.8221,-4.7848,-4.7489,-4.8207,-4.7848,-4.7309,-4.7309,-4.7309,-4.7309,-4.7309,-4.7309,-4.7309,-4.7309,-4.7309,-4.7339,-4.7399,-4.7908,-4.8775,-5.0076,-5.1409,-5.2695,-5.4042,-5.479,-5.5179,-5.5179,-5.5179,-5.5179,-5.5179,-5.5179,-5.5179,-5.5179,-5.5179,-5.5179,-5.5179,-5.5179,-5.5179,-5.5179,-5.5179,-5.5179,-5.5179,-5.5179,-5.5179,-5.5179,-5.5179,-5.5179,-5.5179,-5.5179,-5.5179,-5.5179,-5.5179,-5.5179,-5.5179,-5.5179,-5.5179,-5.5179,-5.5179,-5.5179,-5.5179,0.0,0.0,0.0,0.0,0.0,0.0,-5.0178,-5.1022,-5.1793,-5.2637,-5.244,-5.196,-5.1211,-4.9097,-4.7421,-4.6658,0.0,0.0,0.0,0.0,0.0,0.0,0.0,0.0,0.0,0.0,-4.4995,-4.472,-4.472,0.0,0.0,0.0,0.0,0.0,0.0,-4.4615,-4.4615,-4.4615,0.0,0.0,0.0,0.0,0.0,0.0,0.0,0.0,0.0,0.0,-5.0135,-5.0439,-5.1124,-5.1799,-5.1617,-5.1084,-5.0197,-4.8913,-4.8103,-4.7688,-4.8175,-4.7818,-4.7459,-4.8117,-4.7788,-4.7309,-4.7309,-4.7309,-4.7189,-4.68,-4.704,-4.7189,-4.68,-4.704,-4.7309,-4.7309,-4.7519,-4.8147,-4.9464,-5.0451,-5.1648,-5.3384,-5.4192,-5.476,-5.5149,-5.5179,-5.5179,-5.5179,-5.5179,-5.5179,-5.5179,-5.5179,-5.5179,-5.5179,-5.5179,-5.5179,-5.5179,-5.5179,-5.5179,-5.5179,-5.5179,-5.5179,-5.5179,-5.5179,-5.5179,-5.5179,-5.5179,-5.5179,-5.5179,-5.5179,-5.5179,-5.5179,-5.5179,-5.5179,-5.5179,-5.5179,-5.5179,-5.5179,0.0,0.0,0.0,0.0,0.0,-4.9554,-5.0655,-5.1279,-5.2013,-5.3057,-5.285,-5.2361,-5.1676,-5.0064,-4.8495,-4.7064,-4.5983,0.0,0.0,0.0,0.0,0.0,0.0,0.0,0.0,0.0,-4.5172,-4.5165,-4.5143,-4.519,0.0,0.0,-4.5156,-4.4925,0.0,0.0,0.0,0.0,0.0,0.0,0.0,0.0,0.0,0.0,0.0,0.0,0.0,0.0,0.0,0.0,0.0,-5.1627,-5.1496,-5.1125,-5.0553,-4.9575,-4.8532,-4.7787,-4.8022,-4.7682,-4.7429,-4.7878,-4.7638,-4.7309,-4.7309,-4.7309,-4.713,-4.6471,-4.6681,-4.686,-4.6369,-4.6711,-4.707,-4.7279,-4.7309,-4.7758,-4.912,-4.9823,-5.0913,-5.2935,-5.3773,-5.4461,-5.5119,-5.5179,-5.5179,-5.5179,-5.5179,-5.5179,-5.5179,-5.5179,-5.5179,-5.5179,-5.5179,-5.5179,-5.5179,-5.5179,-5.5179,-5.5179,-5.5179,-5.5179,-5.5179,-5.5179,-5.5179,-5.5179,-5.5179,-5.5179,-5.5179,-5.5179,-5.5179,-5.5179,-5.5179,-5.5179,-5.5179,-5.5179,-5.5179,-5.5179,0.0,0.0,0.0,0.0,0.0,0.0,-5.0545,-5.0802,-5.1389,-5.2983,-5.3203,-5.2783,-5.1701,-5.0887,-4.9645,-4.7852,-4.6293,0.0,0.0,0.0,0.0,0.0,0.0,0.0,0.0,0.0,-4.55,-4.6082,-4.5948,-4.6272,-4.6986,-4.684,-4.638,-4.5703,0.0,0.0,0.0,0.0,0.0,0.0,0.0,0.0,-4.5771,0.0,0.0,0.0,0.0,0.0,0.0,0.0,0.0,0.0,0.0,-5.1217,-4.9839,-4.9584,-4.8749,-4.7922,-4.7666,-4.7482,-4.7309,-4.7309,-4.7309,-4.7309,-4.7309,-4.7309,-4.713,-4.6471,-4.6322,-4.6279,-4.6279,-4.6322,-4.6561,-4.7189,-4.7309,-4.7758,-4.912,-4.9823,-5.0913,-5.2935,-5.3773,-5.4461,-5.5119,-5.5179,-5.5179,-5.5179,-5.5179,-5.5179,-5.5179,-5.5179,-5.5179,-5.5179,-5.5179,-5.5179,-5.5179,-5.5179,-5.5179,-5.5179,-5.5179,-5.5179,-5.5179,-5.5179,-5.5179,-5.5179,-5.5179,-5.5179,-5.5179,-5.5179,-5.5179,-5.5179,-5.5179,-5.5179,-5.5179,-5.5179,-5.5179,-5.5179,0.0,0.0,0.0,0.0,0.0,0.0,0.0,-5.1279,-5.2013,-5.3078,-5.3203,-5.2783,-5.1701,-5.0448,-4.9139,-4.7817,-4.6776,0.0,0.0,0.0,0.0,0.0,0.0,0.0,0.0,0.0,-4.646,-4.7077,-4.7021,-4.7016,-4.702,-4.6961,-4.6738,-4.6447,-4.6447,-4.6041,0.0,0.0,0.0,0.0,0.0,-4.55,-4.5838,0.0,0.0,0.0,0.0,0.0,0.0,0.0,0.0,0.0,0.0,0.0,0.0,-4.9968,-4.9023,-4.8133,-4.7709,-4.7538,-4.7452,-4.7352,-4.7309,-4.7309,-4.7309,-4.695,-4.6441,-4.5753,-4.5633,-4.5633,-4.5633,-4.5992,-4.6488,-4.7189,-4.7309,-4.7758,-4.912,-4.9434,-5.0481,-5.2905,-5.4192,-5.497,-5.5179,-5.5179,-5.5179,-5.5179,-5.5179,-5.5179,-5.5179,-5.5179,-5.5179,-5.5179,-5.5179,-5.5179,-5.5179,-5.5179,-5.5179,-5.5179,-5.5179,-5.5179,-5.5179,-5.5179,-5.5179,-5.5179,-5.5179,-5.5179,-5.5179,-5.5179,-5.5179,-5.5179,-5.5179,-5.5179,-5.5179,-5.5179,-5.5179,-5.5179,0.0,0.0,0.0,0.0,0.0,0.0,0.0,-5.0765,-5.1499,-5.2601,-5.2747,-5.2455,-5.1665,-5.0483,-4.9174,-4.7817,-4.7044,0.0,0.0,0.0,0.0,0.0,0.0,0.0,-4.6596,-4.6872,-4.7472,-4.8455,-4.8363,-4.8523,-4.8865,-4.8745,-4.8384,-4.7751,-4.7661,-4.7056,0.0,0.0,0.0,0.0,-4.594,-4.6278,-4.665,0.0,0.0,0.0,0.0,0.0,0.0,0.0,0.0,0.0,0.0,0.0,0.0,0.0,-4.9043,-4.8348,-4.7958,-4.7709,-4.7581,-4.7409,-4.7352,-4.7249,-4.698,-4.6621,-4.6052,-4.5125,-4.5125,-4.5304,-4.5304,-4.5873,-4.6488,-4.7189,-4.7309,-4.7758,-4.912,-4.9299,-5.0288,-5.2875,-5.4371,-5.5179,-5.5179,-5.5179,-5.5179,-5.5179,-5.5179,-5.5179,-5.5179,-5.5179,-5.5179,-5.5179,-5.5179,-5.5179,-5.5179,-5.5179,-5.5179,-5.5179,-5.5179,-5.5179,-5.5179,-5.5179,-5.5179,-5.5179,-5.5179,-5.5179,0.0,-5.5179,-5.5179,-5.5179,-5.5179,-5.5179,-5.5179,-5.5179,-5.5179,-5.5179,0.0,0.0,0.0,0.0,0.0,0.0,0.0,-4.961,-5.0161,-5.172,-5.1883,-5.1741,-5.145,-5.0684,-4.9513,-4.7782,0.0,0.0,0.0,0.0,0.0,0.0,0.0,0.0,-4.6837,-4.7527,-4.8631,-5.0183,-4.9939,-5.0601,-5.1974,-5.1631,-5.0791,-4.9399,-4.9212,-4.8274,0.0,0.0,0.0,0.0,-4.6853,-4.7293,0.0,0.0,0.0,0.0,0.0,0.0,0.0,0.0,0.0,0.0,0.0,0.0,0.0,0.0,0.0,0.0,0.0,-4.7916,-4.7624,-4.7624,-4.7482,-4.713,-4.6531,-4.6309,0.0,-4.4706,-4.4915,-4.5304,-4.5364,-4.5903,-4.6488,-4.7189,-4.7339,-4.7818,-4.912,-4.9479,-5.0527,-5.2965,-5.4401,-5.5179,-5.5179,-5.5179,-5.5179,-5.5179,-5.5179,-5.5179,-5.5179,-5.5179,-5.5179,-5.5179,-5.5179,-5.5179,-5.5179,-5.5179,-5.5179,-5.5179,-5.5179,-5.5179,-5.5179,-5.5179,-5.5179,-5.5179,-5.5179,-5.5179,-5.5179,-5.5179,-5.5179,-5.5179,-5.5179,-5.5179,-5.5179,-5.5179,-5.5179,-5.5179,0.0,0.0,0.0,0.0,0.0,0.0,0.0,0.0,0.0,0.0,-5.0717,-5.0299,-4.9818,-4.8788,-4.7768,0.0,0.0,0.0,0.0,0.0,0.0,0.0,0.0,0.0,-4.9183,-4.939,-5.0183,-5.1671,-5.155,-5.1569,-5.1757,-5.1568,-5.124,-5.074,-5.0132,-4.9018,0.0,0.0,0.0,0.0,-4.7428,-4.7767,0.0,0.0,0.0,0.0,-4.9018,-4.9018,0.0,0.0,0.0,0.0,0.0,0.0,0.0,0.0,-4.8429,-4.8568,-4.7362,0.0,-4.8049,-4.7709,-4.7538,-4.7465,0.0,-4.6681,-4.619,-4.5861,-4.5544,-4.5454,-4.5992,-4.6202,-4.6488,-4.7189,-4.7728,-4.8327,-4.9209,-5.1036,-5.2695,-5.3832,-5.47,-5.5179,-5.5179,-5.5179,-5.5179,-5.5179,-5.5179,-5.5179,-5.5179,-5.5179,-5.5179,-5.5179,-5.5179,-5.5179,-5.5179,-5.5179,-5.5179,-5.5179,-5.5179,-5.5179,-5.5179,-5.5179,-5.5179,-5.5179,-5.5179,-5.5179,-5.5179,-5.5179,-5.5179,-5.5179,-5.5179,-5.5179,-5.5179,-5.5179,-5.5179,-5.5179,0.0,0.0,0.0,0.0,0.0,0.0,0.0,0.0,0.0,0.0,0.0,0.0,0.0,0.0,0.0,0.0,0.0,0.0,0.0,0.0,0.0,0.0,0.0,-4.8355,-4.9976,-5.0321,-5.1252,-5.277,-5.2582,-5.2629,-5.2846,-5.2622,-5.2259,-5.1788,-5.0606,-4.9661,0.0,0.0,0.0,-4.7834,-4.824,0.0,0.0,0.0,0.0,0.0,-4.9018,-4.9018,0.0,-4.9018,-4.9018,-4.9018,0.0,0.0,0.0,0.0,-4.8109,-4.816,-4.6969,-4.7216,-4.7801,-4.7551,-4.7595,-4.7619,-4.7104,-4.6731,-4.6329,-4.5903,-4.5813,-4.5873,-4.6219,-4.6561,-4.689,-4.7249,-4.7848,-4.8716,-5.0002,-5.1887,-5.3443,-5.4132,-5.479,-5.5179,-5.5179,-5.5179,-5.5179,-5.5179,-5.5179,-5.5179,-5.5179,-5.5179,-5.5179,-5.5179,-5.5179,-5.5179,-5.5179,-5.5179,-5.5179,-5.5179,-5.5179,-5.5179,-5.5179,-5.5179,-5.5179,-5.5179,-5.5179,-5.5179,-5.5179,-5.5179,-5.5179,-5.5179,-5.5179,-5.5179,-5.5179,-5.5179,-5.5179,-5.5179,0.0,0.0,0.0,0.0,0.0,0.0,0.0,0.0,0.0,0.0,0.0,0.0,0.0,0.0,0.0,0.0,0.0,0.0,0.0,0.0,0.0,0.0,-4.8293,-4.9396,-5.0321,-5.108,-5.2119,-5.3501,-5.3341,-5.3524,-5.4143,-5.3816,-5.3243,-5.2496,-5.0943,-5.0202,0.0,0.0,-4.9018,-4.9018,-4.9018,0.0,0.0,0.0,0.0,0.0,0.0,0.0,0.0,-4.9018,-4.9018,-4.9018,-4.9018,0.0,0.0,0.0,0.0,0.0,-4.6948,-4.7098,-4.7506,-4.7344,-4.7782,-4.7993,-4.7038,-4.6792,-4.6557,-4.5807,-4.6052,-4.6429,-4.6429,-4.692,-4.7339,-4.7429,-4.8177,-4.9374,-5.1259,-5.2576,-5.3593,-5.4281,-5.485,-5.5179,-5.5179,-5.5179,-5.5179,-5.5179,-5.5179,-5.5179,-5.5179,-5.5179,-5.5179,-5.5179,-5.5179,-5.5179,-5.5179,-5.5179,-5.5179,-5.5179,-5.5179,-5.5179,-5.5179,-5.5179,-5.5179,-5.5179,-5.5179,-5.5179,-5.5179,-5.5179,-5.5179,-5.5179,-5.5179,-5.5179,-5.5179,-5.5179,-5.5179,-5.5179,0.0,0.0,0.0,0.0,0.0,0.0,0.0,0.0,0.0,0.0,0.0,0.0,0.0,0.0,0.0,0.0,0.0,0.0,0.0,0.0,0.0,-4.9459,-4.97,-5.0459,-5.1808,-5.2632,-5.3366,-5.4068,-5.3939,-5.3811,-5.3783,-5.3618,-5.3111,-5.2299,-5.142,-5.0676,-5.0033,-4.9323,-4.9018,-4.9018,-4.9018,0.0,0.0,0.0,0.0,0.0,0.0,0.0,0.0,-4.9018,-4.9018,-4.9018,-4.9018,0.0,0.0,0.0,0.0,0.0,-4.6957,-4.7709,-4.8451,-4.7515,-4.8285,-4.9004,-4.8023,-4.7601,-4.74,-4.7267,-4.7199,-4.716,-4.716,-4.7249,-4.7489,-4.8027,-4.9613,-5.1259,-5.2665,-5.3563,-5.4311,-5.497,-5.5119,-5.5179,-5.5179,-5.5179,-5.5179,-5.5179,-5.5179,-5.5179,-5.5179,-5.5179,-5.5179,-5.5179,-5.5179,-5.5179,-5.5179,-5.5179,-5.5179,-5.5179,-5.5179,-5.5179,-5.5179,-5.5179,-5.5179,-5.5179,-5.5179,-5.5179,-5.5179,-5.5179,-5.5179,-5.5179,-5.5179,-5.5179,-5.5179,-5.5179,-5.5179,-5.5179,0.0,0.0,0.0,0.0,0.0,0.0,0.0,0.0,0.0,0.0,0.0,0.0,0.0,0.0,0.0,0.0,0.0,0.0,0.0,0.0,-4.9327,-5.0562,-5.0976,-5.1735,-5.2839,-5.3218,-5.3676,-5.4207,-5.4078,-5.3882,-5.3717,-5.3551,-5.3315,-5.2909,-5.2131,-5.1386,-5.0642,-4.9898,-4.9357,-4.9018,0.0,0.0,0.0,0.0,0.0,0.0,0.0,0.0,0.0,0.0,-4.9018,-4.9018,-4.9018,0.0,0.0,0.0,0.0,0.0,-4.7473,-4.8456,-4.9355,-4.8396,-4.8969,-4.9559,-4.8953,-4.8738,-4.8615,-4.849,-4.8282,-4.7988,-4.7538,-4.7396,-4.7638,-4.8656,-5.0182,-5.1678,-5.2995,-5.3773,-5.4461,-5.5119,-5.5179,-5.5179,-5.5179,-5.5179,-5.5179,-5.5179,-5.5179,-5.5179,-5.5179,-5.5179,-5.5179,-5.5179,-5.5179,-5.5179,-5.5179,-5.5179,-5.5179,-5.5179,-5.5179,-5.5179,-5.5179,-5.5179,-5.5179,-5.5179,-5.5179,-5.5179,-5.5179,-5.5179,-5.5179,-5.5179,-5.5179,-5.5179,-5.5179,-5.5179,-5.5179,-5.5179,0.0,0.0,0.0,0.0,0.0,0.0,0.0,0.0,0.0,0.0,0.0,0.0,0.0,0.0,0.0,0.0,0.0,0.0,0.0,-4.8568,-4.974,-5.1291,-5.1877,-5.2597,-5.3391,-5.3563,-5.3848,-5.4207,-5.4078,-5.3882,-5.3651,-5.3551,-5.3518,-5.345,-5.2672,-5.1894,-5.1151,-5.0405,-4.9661,-4.9018,0.0,0.0,0.0,0.0,0.0,0.0,0.0,0.0,0.0,0.0,0.0,0.0,0.0,0.0,0.0,-4.9018,-4.8476,-4.7994,-4.8327,-4.9227,-4.9991,-4.9526,-4.9946,-5.0345,-4.9962,-4.9844,-4.9686,-4.9358,-4.9075,-4.8656,-4.7976,-4.7889,-4.8386,-4.9523,-5.081,-5.2097,-5.3264,-5.4012,-5.461,-5.5119,-5.5179,-5.5179,-5.5179,-5.5179,-5.5179,-5.5179,-5.5179,-5.5179,-5.5179,-5.5179,-5.5179,-5.5179,-5.5179,-5.5179,-5.5179,-5.5179,-5.5179,-5.5179,-5.5179,-5.5179,-5.5179,-5.5179,-5.5179,-5.5179,-5.5179,-5.5179,-5.5179,-5.5179,-5.5179,-5.5179,-5.5179,-5.5179,-5.5179,-5.5179,-5.5179,-5.5179,0.0,0.0,0.0,0.0,0.0,0.0,0.0,0.0,0.0,0.0,0.0,0.0,0.0,0.0,0.0,0.0,0.0,0.0,-4.7727,-4.9114,-5.0597,-5.205,-5.2153,-5.2597,-5.3391,-5.408,-5.4365,-5.4207,-5.4078,-5.3816,-5.3484,-5.3518,-5.3518,-5.345,-5.2672,-5.1894,-5.1151,-5.0405,-4.9661,-4.9018,-4.9018,0.0,0.0,0.0,0.0,0.0,0.0,0.0,0.0,0.0,0.0,0.0,0.0,0.0,-4.9018,-4.9018,-4.848,-4.8183,-4.9565,-5.0004,-5.0249,-5.0786,-5.1536,-5.1915,-5.1145,-5.0773,-5.0429,-4.9647,-4.9318,-4.9048,-4.8581,-4.9329,-5.0226,-5.096,-5.2187,-5.3294,-5.4042,-5.47,-5.5149,-5.5179,-5.5179,-5.5179,-5.5179,-5.5179,-5.5179,-5.5179,-5.5179,-5.5179,-5.5179,-5.5179,-5.5179,-5.5179,-5.5179,-5.5179,-5.5179,-5.5179,-5.5179,-5.5179,-5.5179,-5.5179,-5.5179,-5.5179,-5.5179,-5.5179,-5.5179,-5.5179,-5.5179,-5.5179,-5.5179,-5.5179,-5.5179,-5.5179,-5.5179,-5.5179,-5.5179,-5.5179,0.0,0.0,0.0,0.0,0.0,0.0,0.0,0.0,0.0,0.0,0.0,0.0,0.0,0.0,0.0,0.0,0.0,0.0,-4.7727,-4.9148,-5.0666,-5.2119,-5.2188,-5.2774,-5.408,-5.4356,-5.4399,-5.4207,-5.3948,-5.375,-5.3617,-5.3517,-5.3518,-5.3484,-5.3179,-5.2604,-5.186,-5.1116,-5.0371,-4.9627,-4.9187,-4.9018,0.0,0.0,0.0,0.0,0.0,0.0,0.0,0.0,-4.7462,-4.7327,-4.8105,-4.8342,-4.8409,-4.8883,-4.8815,-4.8815,-4.983,-5.0439,-5.095,-5.1698,-5.2471,-5.2834,-5.2023,-5.1769,-5.1573,-5.1199,-5.0912,-5.0425,-4.9422,-5.068,-5.1713,-5.1263,-5.2695,-5.3922,-5.4162,-5.479,-5.5179,-5.5179,-5.5179,-5.5179,-5.5179,-5.5179,-5.5179,-5.5179,-5.5179,-5.5179,-5.5179,-5.5179,-5.5179,-5.5179,-5.5179,-5.5179,-5.5179,-5.5179,-5.5179,-5.5179,-5.5179,-5.5179,-5.5179,-5.5179,-5.5179,-5.5179,-5.5179,-5.5179,-5.5179,-5.5179,-5.5179,-5.5179,-5.5179,-5.5179,-5.5179,-5.5179,-5.5179,-5.5179,0.0,0.0,0.0,0.0,0.0,0.0,0.0,0.0,0.0,0.0,0.0,0.0,0.0,0.0,0.0,0.0,0.0,0.0,-4.77,-4.9148,-5.0666,-5.2119,-5.2188,-5.2912,-5.4494,-5.4431,-5.4335,-5.4207,-5.3882,-5.3684,-5.3617,-5.3551,-5.3518,-5.3518,-5.3518,-5.3044,-5.2266,-5.1522,-5.0777,-5.0033,-4.9289,-4.9018,0.0,0.0,0.0,0.0,0.0,0.0,0.0,0.0,-4.665,-4.6616,-4.7597,-4.7906,-4.8041,-4.8781,-4.9018,-4.9221,-5.0168,-5.0845,-5.1454,-5.2435,-5.3078,-5.3416,-5.3101,-5.3027,-5.2981,-5.2903,-5.2592,-5.2093,-5.1134,-5.2443,-5.3392,-5.2488,-5.3675,-5.4647,-5.4541,-5.491,-5.5179,-5.5179,-5.5179,-5.5179,-5.5179,-5.5179,-5.5179,-5.5179,-5.5179,-5.5179,-5.5179,-5.5179,-5.5179,-5.5179,-5.5179,-5.5179,-5.5179,-5.5179,-5.5179,-5.5179,-5.5179,-5.5179,-5.5179,-5.5179,-5.5179,-5.5179,-5.5179,-5.5179,-5.5179,-5.5179,-5.5179,-5.5179,-5.5179,-5.5179,-5.5179,-5.5179,-5.5179,-5.5179,0.0,0.0,0.0,0.0,0.0,0.0,0.0,0.0,0.0,0.0,0.0,0.0,0.0,0.0,0.0,0.0,0.0,0.0,-4.7672,-4.9148,-5.0666,-5.2119,-5.2188,-5.2942,-5.446,-5.4303,-5.4207,-5.4207,-5.3882,-5.3617,-5.3518,-5.3518,-5.3518,-5.3518,-5.3518,-5.3078,-5.2266,-5.1522,-5.0777,-5.0033,-4.9289,-4.9018,-4.8917,0.0,0.0,0.0,0.0,0.0,0.0,0.0,-4.6278,-4.594,-4.7428,-4.7872,-4.8007,-4.8781,-4.9018,-4.9323,-5.0811,-5.1217,-5.1589,-5.3112,-5.3518,-5.3687,-5.4431,-5.46,-5.4561,-5.4516,-5.4195,-5.393,-5.393,-5.4749,-5.5328,-5.4976,-5.5332,-5.5564,-5.524,-5.5179,-5.5179,-5.5179,-5.5179,-5.5179,-5.5179,-5.5179,-5.5179,-5.5179,-5.5179,-5.5179,-5.5179,-5.5179,-5.5179,-5.5179,-5.5179,-5.5179,-5.5179,-5.5179,-5.5179,-5.5179,-5.5179,-5.5179,-5.5179,-5.5179,-5.5179,-5.5179,-5.5179,-5.5179,-5.5179,-5.5179,-5.5179,-5.5179,-5.5179,-5.5179,-5.5179,-5.5179,-5.5179,-5.5179,0.0,0.0,0.0,0.0,0.0,0.0,0.0,0.0,0.0,0.0,0.0,0.0,0.0,0.0,0.0,0.0,0.0,0.0,-4.7665,-4.8958,-5.0202,-5.139,-5.1912,-5.2701,-5.3701,-5.4029,-5.4175,-5.4045,-5.3816,-5.3684,-5.3617,-5.3551,-5.3518,-5.3518,-5.3518,-5.3382,-5.3078,-5.1758,-5.1082,-5.0777,-4.9526,-4.8714,-4.8206,0.0,0.0,0.0,0.0,0.0,0.0,0.0,0.0,0.0,-4.6041,-4.6718,-4.7259,-4.8037,-4.8951,-4.9965,-5.0947,-5.1589,-5.2232,-5.3247,-5.389,-5.4465,-5.5209,-5.4972,-5.4696,-5.5144,-5.5523,-5.5752,-5.5513,-5.6529,-5.7076,-5.5858,-5.62,-5.6278,-5.535,-5.5179,-5.5179,-5.5179,-5.5179,-5.5179,-5.5179,-5.5179,-5.5179,-5.5179,-5.5179,-5.5179,-5.5179,-5.5179,-5.5179,-5.5179,-5.5179,-5.5179,-5.5179,-5.5179,-5.5179,-5.5179,-5.5179,-5.5179,-5.5179,-5.5179,-5.5179,-5.5179,-5.5179,-5.5179,-5.5179,-5.5179,-5.5179,-5.5179,-5.5179,-5.5179,-5.5179,-5.5179,-5.5179,-5.5179,0.0,0.0,0.0,0.0,0.0,0.0,0.0,0.0,0.0,0.0,-4.7915,-4.7421,0.0,0.0,0.0,-4.5476,-4.6542,-4.7387,-4.7693,-4.8695,-4.9833,-5.1045,-5.1528,-5.2257,-5.3263,-5.3584,-5.3802,-5.3882,-5.375,-5.3684,-5.3617,-5.3517,-5.3518,-5.3518,-5.3518,-5.3518,-5.3416,-5.186,-5.1185,-5.1082,-4.9289,-4.8308,-4.7838,0.0,0.0,0.0,0.0,0.0,0.0,0.0,0.0,0.0,-4.5466,-4.621,-4.6921,-4.7699,-4.9154,-5.0642,-5.1082,-5.1995,-5.2909,-5.3382,-5.4059,-5.4871,-5.5919,-5.6021,-5.6016,-5.6348,-5.7043,-5.7486,-5.7291,-5.8382,-5.893,-5.7616,-5.7793,-5.7761,-5.6638,-5.6427,-5.6378,-5.6378,-5.6017,-5.5918,-5.6329,-5.5651,-5.5381,-5.575,-5.5431,-5.5179,-5.5179,-5.5179,-5.5179,-5.5179,-5.5179,-5.5179,-5.5179,-5.5179,-5.5179,-5.5179,-5.5179,-5.5179,-5.5179,-5.5179,-5.5179,-5.5179,-5.5179,-5.5179,-5.5179,-5.5179,-5.5179,-5.5179,-5.5179,-5.5179,-5.5179,-5.5179,-5.5179,-5.5179,0.0,0.0,0.0,0.0,0.0,0.0,0.0,0.0,0.0,-4.8306,-4.7915,-4.7442,0.0,0.0,0.0,-4.552,-4.6532,-4.7317,-4.7589,-4.8314,-4.9384,-5.0838,-5.1045,-5.1709,-5.3001,-5.3035,-5.322,-5.3615,-5.3683,-5.3617,-5.3518,-5.3518,-5.3518,-5.3518,-5.3518,-5.3518,-5.3416,-5.186,-5.1185,-5.0982,-4.8785,-4.7838,-4.7635,-4.6244,0.0,0.0,0.0,0.0,0.0,0.0,0.0,0.0,-4.5399,-4.6143,-4.6921,-4.7597,-4.9393,-5.1185,-5.1185,-5.2334,-5.3518,-5.3518,-5.4093,-5.5074,-5.6562,-5.7476,-5.7983,-5.7983,-5.8524,-5.9066,-5.9201,-6.0165,-6.0644,-5.9762,-5.9821,-5.9598,-5.8555,-5.8268,-5.8131,-5.8085,-5.7276,-5.7086,-5.7993,-5.6524,-5.5819,-5.6686,-5.5967,-5.5451,-5.5451,-5.5451,-5.5431,-5.533,-5.533,-5.528,-5.5179,-5.5179,-5.5179,-5.5179,-5.5229,-5.5229,-5.5259,-5.5179,-5.5179,-5.5229,-5.5229,-5.5229,-5.5229,-5.5229,-5.5229,-5.5229,-5.5229,-5.5229,-5.528,-5.533,-5.533,-5.5229,0.0,0.0,0.0,0.0,0.0,0.0,0.0,0.0,-4.8306,-4.8306,-4.7915,-4.7569,-4.7464,-4.6776,0.0,-4.6055,-4.6295,-4.6539,-4.683,-4.7865,-4.8727,-4.9286,-5.0459,-5.1498,-5.2364,-5.2398,-5.2588,-5.2994,-5.3477,-5.3617,-5.3518,-5.3518,-5.3518,-5.3518,-5.3518,-5.3518,-5.3416,-5.186,-5.1185,-5.0982,-4.8785,-4.7564,-4.6955,-4.6041,-4.5331,0.0,0.0,0.0,0.0,0.0,0.0,0.0,-4.4818,-4.5737,-4.6819,-4.6989,-4.9018,-5.1185,-5.1185,-5.2334,-5.3518,-5.3518,-5.4499,-5.5852,-5.7306,-5.822,-5.8761,-5.8761,-5.8896,-5.937,-6.0588,-6.1023,-6.1043,-6.0456,-6.0403,-5.9957,-5.86,-5.8374,-5.8268,-5.8131,-5.79,-5.7854,-5.8085,-5.7714,-5.7559,-5.7761,-5.7606,-5.7465,-5.7465,-5.7465,-5.7086,-5.6329,-5.6329,-5.5967,-5.5179,-5.5179,-5.5179,-5.5179,-5.5431,-5.5531,-5.5481,-5.528,-5.528,-5.5531,-5.5531,-5.5531,-5.5531,-5.5531,-5.5531,-5.5531,-5.5531,-5.5631,-5.588,-5.6409,-5.6164,-5.5581,0.0,0.0,0.0,0.0,0.0,0.0,0.0,0.0,-4.8356,-4.8012,-4.7736,-4.7611,-4.7611,-4.6959,0.0,0.0,-4.6228,-4.6395,-4.6917,-4.7621,-4.8452,-4.9355,-5.0149,-5.0942,-5.1666,-5.161,-5.1974,-5.2819,-5.3034,-5.3278,-5.3518,-5.3518,-5.3518,-5.3518,-5.3518,-5.3518,-5.3416,-5.186,-5.1185,-5.0982,-4.8785,-4.7462,-4.6718,-4.5974,-4.5229,-4.4615,-4.4615,0.0,0.0,0.0,0.0,0.0,0.0,0.0,-4.6346,-4.6684,-4.8376,-5.0304,-5.0982,-5.2063,-5.3179,-5.4296,-5.5141,-5.6089,-5.7543,-5.8457,-5.9099,-5.9471,-5.9844,-6.0351,-6.1163,-6.1603,-6.1751,-6.1528,-6.1358,-6.1003,-6.0256,-5.9957,-5.9816,-5.9686,-5.9157,-5.8979,-5.9499,-5.8664,-5.8268,-5.8799,-5.8391,-5.8085,-5.8085,-5.8085,-5.7854,-5.7323,-5.7323,-5.7086,-5.659,-5.659,-5.659,-5.659,-5.6831,-5.7022,-5.7117,-5.6096,-5.5899,-5.6427,-5.6427,-5.6717,-5.7117,-5.7117,-5.7117,-5.7117,-5.7117,-5.7213,-5.7402,-5.7746,-5.7465,-5.7022,0.0,0.0,0.0,0.0,0.0,0.0,0.0,0.0,0.0,-4.7824,-4.7715,-4.7695,-4.7611,-4.7182,-4.6765,0.0,0.0,0.0,-4.7081,-4.7341,-4.8148,-4.9562,-4.9597,-4.9947,-5.0641,-5.0557,-5.1127,-5.2379,-5.2422,-5.2667,-5.3112,-5.3382,-5.3518,-5.3518,-5.3518,-5.3518,-5.3416,-5.186,-5.1185,-5.0982,-4.8785,-4.753,-4.6921,-4.6177,-4.55,-4.4987,-4.4852,-4.4818,-4.4784,-4.4649,0.0,0.0,0.0,0.0,-4.5838,-4.6413,-4.7733,-4.9289,-5.0642,-5.1758,-5.2976,-5.5006,-5.5615,-5.6055,-5.7408,-5.8389,-5.9235,-5.9945,-6.0757,-6.1332,-6.1467,-6.1975,-6.2381,-6.2381,-6.2229,-6.2037,-6.1997,-6.1716,-6.1465,-6.1424,-6.0525,-6.0226,-6.1002,-5.9587,-5.8934,-5.9794,-5.9068,-5.8619,-5.8619,-5.8619,-5.8528,-5.836,-5.836,-5.83,-5.8085,-5.8131,-5.8131,-5.8131,-5.8405,-5.8677,-5.8857,-5.7307,-5.7005,-5.7699,-5.7699,-5.8131,-5.8857,-5.8857,-5.8857,-5.8857,-5.8857,-5.8902,-5.8947,-5.9081,-5.8857,-5.8555,0.0,0.0,0.0,0.0,0.0,0.0,0.0,0.0,0.0,0.0,-4.8229,-4.8055,-4.7632,-4.7182,-4.6845,-4.6799,-4.6435,-4.6263,-4.6344,0.0,0.0,-4.7948,-4.801,-4.8305,-4.8913,-4.8918,-4.9492,-5.0723,-5.1335,-5.1581,-5.1555,-5.2875,-5.3518,-5.3518,-5.3518,-5.3518,-5.3416,-5.186,-5.1185,-5.0982,-4.8785,-4.7838,-4.7669,-4.6921,-4.6583,-4.6413,-4.5771,-4.5568,-4.5466,-4.4818,-4.4615,0.0,0.0,0.0,-4.5737,-4.5838,-4.7327,-4.9187,-4.9999,-5.1758,-5.3585,-5.4499,-5.5243,-5.5919,-5.6765,-5.8017,-5.9235,-5.9945,-6.0757,-6.1501,-6.2144,-6.2313,-6.2381,-6.2381,-6.2381,-6.2302,-6.2037,-6.1957,-6.1797,-6.1424,-6.126,-6.1136,-6.1086,-6.0877,-6.0793,-6.0877,-6.0793,-6.0675,-6.0675,-6.0675,-6.0302,-5.9411,-5.9411,-5.8979,-5.8085,-5.8237,-5.8374,-5.8374,-5.8857,-5.9246,-5.9499,-5.9234,-5.9056,-5.8979,-5.8979,-5.9024,-5.9157,-5.9157,-5.9157,-5.9157,-5.9157,-5.929,-5.9587,-6.0161,-5.9816,-5.9202,0.0,0.0,0.0,0.0,0.0,0.0,0.0,0.0,0.0,0.0,0.0,-4.8229,-4.8015,-4.7569,-4.7291,-4.7291,-4.6845,-4.666,-4.6825,-4.6923,-4.7194,-4.7665,-4.7672,-4.7817,-4.807,-4.8432,-4.9042,-4.9896,-5.0584,-5.097,-5.1185,-5.1894,-5.2232,-5.2232,-5.2232,-5.2232,-5.2164,-5.1048,-5.0574,-5.0473,-4.9086,-4.8274,-4.7838,-4.7564,-4.7158,-4.6752,-4.6413,-4.6312,-4.621,-4.5466,-4.5196,-4.5128,-4.475,0.0,0.0,0.0,-4.6109,-4.7056,-4.9458,-5.142,-5.3112,-5.4296,-5.4837,-5.5378,-5.6528,-5.7611,-5.8592,-5.9336,-6.0452,-6.1535,-6.2245,-6.2381,-6.2381,-6.2381,-6.2381,-6.2341,-6.2229,-6.2076,-6.1917,-6.175,-6.1547,-6.1342,-6.1293,-6.1169,-6.1119,-6.1119,-6.1119,-6.1119,-6.1119,-6.1119,-6.0919,-6.043,-6.0463,-6.0269,-5.9979,-6.0065,-6.0204,-6.0426,-6.0118,-6.0407,-6.1152,-6.0652,-6.0322,-6.0237,-6.0237,-6.0492,-6.0986,-6.0986,-6.0986,-6.0986,-6.0986,-6.1069,-6.1193,-6.1513,-6.1276,-6.0828,0.0,0.0,0.0,0.0,0.0,0.0,0.0,0.0,0.0,0.0,0.0,-4.8267,-4.8151,0.0,0.0,0.0,-4.6981,-4.6873,-4.7174,-4.7086,-4.7165,-4.7474,-4.7384,-4.7373,-4.7526,-4.7829,-4.8391,-4.9142,-4.9801,-5.0292,-5.0642,-5.0845,-5.0845,-5.0676,-5.1016,-5.1185,-5.1151,-5.0405,-5.0101,-5.0033,-4.9492,-4.8951,-4.8477,-4.8649,-4.8409,-4.7902,-4.7699,-4.753,-4.7259,-4.6515,-4.6007,-4.5568,-4.4852,-4.4181,0.0,0.0,0.0,-4.5867,-4.8951,-5.0913,-5.2334,-5.3687,-5.4296,-5.4871,-5.5987,-5.6968,-5.7814,-5.8592,-5.9776,-6.0926,-6.167,-6.2144,-6.2381,-6.2381,-6.2381,-6.2381,-6.2381,-6.2229,-6.211,-6.203,-6.175,-6.1506,-6.1424,-6.1252,-6.1161,-6.1119,-6.1119,-6.1119,-6.1119,-6.1119,-6.1086,-6.1169,-6.1169,-6.1293,-6.1465,-6.1547,-6.175,-6.2076,-6.1399,-6.1521,-6.2381,-6.1709,-6.135,-6.135,-6.135,-6.1716,-6.2381,-6.2381,-6.2381,-6.2381,-6.2381,-6.2381,-6.2381,-6.2381,-6.2268,-6.215,0.0,0.0,0.0,0.0,0.0,0.0,0.0,0.0,0.0,0.0,0.0,-4.8114,-4.7674,-4.7226,-4.6913,-4.6913,-4.6507,-4.6447,-4.6893,-4.6506,-4.6458,-4.6918,-4.6528,0.0,-4.7037,-4.665,-4.6999,-4.818,-4.8893,-4.9206,-4.912,-4.983,-4.9763,-4.9187,-5.0608,-5.1185,-5.1151,-5.0405,-5.0101,-5.0101,-5.0067,-4.9999,-5.0067,-5.0777,-5.0982,-5.0879,-5.0168,-4.9492,-4.8781,-4.8007,-4.6887,-4.5568,-4.4852,-4.4581,-4.4412,0.0,0.0,0.0,-4.8646,-5.0135,-5.1454,-5.2232,-5.3518,-5.46,-5.4702,-5.5818,-5.707,-5.7814,-5.8592,-5.9336,-6.008,-6.14,-6.2381,-6.2381,-6.2381,-6.2381,-6.2381,-6.2381,-6.2268,-6.2037,-6.1997,-6.1797,-6.1424,-6.1383,-6.1334,-6.1119,-6.1119,-6.1119,-6.1119,-6.1119,-6.1169,-6.1383,-6.1383,-6.1465,-6.1669,-6.1877,-6.211,-6.2381,-6.2341,-6.2341,-6.2381,-6.2341,-6.2341,-6.2341,-6.2341,-6.2341,-6.2381,-6.2381,-6.2381,-6.2381,-6.2381,-6.2381,-6.2381,-6.2381,-6.2381,-6.2381,0.0,0.0,0.0,0.0,0.0,0.0,0.0,0.0,0.0,0.0,0.0,0.0,0.0,-4.8973,-4.8836,-4.865,-4.7416,-4.6602,-4.6459,-4.598,-4.5752,-4.592,-4.5778,-4.5933,-4.648,-4.6385,-4.6845,-4.7982,-4.8314,-4.8663,-4.9018,-4.9255,-4.9255,-4.9018,-4.956,-4.9796,-4.9763,-4.9526,-4.9661,-5.0101,-5.0101,-5.0371,-5.0845,-5.1083,-5.1185,-5.1183,-5.0913,-5.0642,-5.0168,-4.8446,-4.7868,-4.7361,-4.4688,-4.4181,-4.4445,-4.3639,-4.4688,-4.6413,-4.7902,-4.868,-4.9627,-5.1758,-5.2367,-5.2807,-5.4262,-5.5006,-5.5716,-5.6934,-5.778,-5.8524,-5.9268,-6.0655,-6.167,-6.167,-6.2076,-6.2381,-6.2381,-6.2381,-6.2381,-6.2268,-6.2076,-6.1957,-6.1797,-6.1669,-6.1547,-6.1499,-6.1499,-6.1499,-6.1499,-6.1499,-6.1539,-6.1588,-6.1588,-6.1709,-6.1877,-6.215,-6.2302,-6.2381,-6.2381,-6.2381,-6.2381,-6.2381,-6.2381,-6.2381,-6.2381,-6.2381,-6.2381,-6.2381,-6.2381,-6.2381,-6.2381,-6.2381,-6.2381,-6.2381,-6.2381,-6.2381,0.0,0.0,0.0,0.0,0.0,0.0,0.0,0.0,-4.917,-4.9313,0.0,0.0,0.0,0.0,-4.9267,-4.9125,-4.7944,-4.7133,-4.6968,-4.621,-4.5844,-4.5985,-4.5666,-4.5666,-4.602,-4.5925,-4.6302,-4.7244,-4.7786,-4.8255,-4.8646,-4.9063,-4.9199,-4.9018,-4.9018,-4.9018,-4.9018,-4.9255,-4.9661,-5.0135,-5.0642,-5.1116,-5.1623,-5.1894,-5.1995,-5.1995,-5.1995,-5.1826,-5.1352,-4.9898,-4.9221,-4.8511,-4.5805,-4.4756,-4.4445,-4.3639,-4.4316,-4.5602,-4.6853,-4.75,-4.8413,-5.0642,-5.1386,-5.1961,-5.3484,-5.4228,-5.4871,-5.5852,-5.6664,-5.7374,-5.8152,-5.9302,-6.0419,-6.1197,-6.1907,-6.2381,-6.2381,-6.2381,-6.2381,-6.2381,-6.2229,-6.2076,-6.1997,-6.1877,-6.179,-6.1709,-6.1709,-6.1709,-6.1709,-6.1709,-6.175,-6.183,-6.187,-6.1991,-6.2116,-6.2341,-6.2381,-6.2381,-6.2381,-6.2381,-6.2381,-6.2381,-6.2381,-6.2381,-6.2381,-6.2381,-6.2381,-6.2381,-6.2381,-6.2381,-6.2381,-6.2381,-6.2381,-6.2381,-6.2381,-6.2381,0.0,0.0,0.0,0.0,0.0,0.0,0.0,0.0,-5.0185,-5.0576,0.0,0.0,0.0,0.0,0.0,-4.8092,-4.7945,-4.801,-4.8439,-4.7239,-4.673,-4.7154,-4.6233,-4.5724,-4.5724,-4.5249,-4.5316,-4.5898,-4.7196,-4.7842,-4.7902,-4.9203,-4.9521,-4.8984,-4.8984,-4.8984,-4.9052,-4.9796,-5.0101,-5.0236,-5.1725,-5.23,-5.2435,-5.3247,-5.3551,-5.3551,-5.3551,-5.3044,-5.2367,-5.2334,-5.0879,-4.8951,-4.8206,-4.6413,-4.4479,-4.3707,-4.4012,-4.4784,0.0,0.0,0.0,-4.8815,-5.0608,-5.2198,-5.2266,-5.345,-5.4532,-5.4566,-5.5175,-5.5919,-5.663,-5.7374,-5.8592,-6.0825,-6.1806,-6.2313,-6.2313,-6.2347,-6.2347,-6.2347,-6.2381,-6.2302,-6.2037,-6.1997,-6.1917,-6.175,-6.1709,-6.1709,-6.1676,-6.1676,-6.1763,-6.1929,-6.2201,-6.2347,-6.2347,-6.2347,-6.2381,-6.2381,-6.2381,-6.2381,-6.2381,-6.2381,-6.2381,-6.2381,-6.2381,-6.2381,-6.2381,-6.2381,-6.2381,-6.2381,-6.2381,-6.2381,-6.2381,-6.2381,-6.2381,-6.2381,0.0,0.0,0.0,0.0,0.0,-5.099,-5.017,-5.0474,-5.1008,0.0,0.0,0.0,-5.2148,-5.0807,-4.966,-4.8974,-4.8659,-4.819,-4.7387,-4.7389,-4.7228,-4.6801,-4.6507,-4.6339,-4.6269,-4.5743,-4.576,-4.6431,-4.6349,-4.6578,-4.709,-4.7471,-4.7844,-4.8176,-4.8176,-4.8511,-4.9052,-4.9796,-5.0405,-5.098,-5.1928,-5.2638,-5.3247,-5.3991,-5.4296,-5.4363,-5.4905,-5.46,-5.3788,-5.2672,-5.1894,-5.1082,-4.9255,-4.6819,-4.4682,-4.4959,-4.4823,-4.4784,-4.55,0.0,0.0,0.0,0.0,0.0,-5.1826,-5.2638,-5.3247,-5.4363,-5.4769,-5.5141,-5.5886,-5.6596,-5.7306,-5.7949,-5.9573,-6.0723,-6.0723,-6.1231,-6.1603,-6.1603,-6.2076,-6.2381,-6.2302,-6.2302,-6.2263,-6.2223,-6.2223,-6.1987,-6.1442,-6.0835,-6.057,-6.0646,-6.0685,-6.1028,-6.1603,-6.1603,-6.1873,-6.2381,-6.2381,-6.2381,-6.2381,-6.2381,-6.2381,-6.2381,-6.2381,-6.2381,-6.2381,-6.2381,-6.2381,-6.2381,-6.2381,-6.2381,-6.2381,-6.2381,-6.2381,-6.2381,0.0,0.0,-5.1957,-5.1203,-5.1728,-5.1986,-5.1308,-5.2125,-5.2852,0.0,0.0,0.0,-5.2418,-5.1936,-5.1326,-5.0493,-4.9923,-4.9275,-4.8539,-4.7989,-4.7366,-4.657,-4.6333,-4.6133,-4.5975,-4.5657,-4.5693,-4.6047,-4.6266,-4.6383,-4.6346,-4.6907,-4.7253,-4.7462,-4.7736,-4.8142,-4.8646,-4.9999,-5.0811,-5.1286,-5.2367,-5.3281,-5.4025,-5.4431,-5.4972,-5.5581,-5.6021,-5.5886,-5.5344,-5.4126,-5.3078,-5.186,-4.9357,-4.7361,-4.5872,-4.5399,-4.4953,-4.4716,-4.5128,-4.5128,-4.5466,-4.7192,0.0,0.0,-5.0135,-5.1183,-5.2097,-5.301,-5.3416,-5.3957,-5.504,-5.5581,-5.5987,-5.6292,-5.7442,-5.8592,-5.9505,-6.0317,-6.0926,-6.1264,-6.1366,-6.167,-6.2313,-6.211,-6.2076,-6.2381,-6.2381,-6.2212,-6.1772,-6.1028,-6.0588,-6.0588,-6.0283,-6.0317,-6.0791,-6.1129,-6.1535,-6.1941,-6.2245,-6.2381,-6.2381,-6.2381,-6.2381,-6.2381,-6.2381,-6.2381,-6.2415,-6.2719,-6.2685,-6.2381,-6.2381,-6.2381,-6.2381,-6.2381,-6.2381,-6.2381,0.0,0.0,-5.1069,-5.0729,-5.196,-5.286,-5.2528,-5.4033,-5.5027,0.0,-5.3939,-5.32,-5.1941,-5.2592,-5.2898,-5.2283,-5.1464,-5.0897,-5.0745,-4.8972,-4.7617,-4.6857,-4.6219,-4.5725,-4.5432,-4.5354,-4.5294,-4.5214,-4.6421,-4.6541,-4.5682,-4.6769,-4.7084,-4.6801,-4.7492,-4.7872,-4.8142,-5.0272,-5.1219,-5.1454,-5.2909,-5.3923,-5.46,-5.4769,-5.5716,-5.6934,-5.7103,-5.7103,-5.6934,-5.6122,-5.4329,-5.1995,-4.9325,-4.8277,-4.7631,-4.5568,-4.4852,-4.4716,-4.4615,-4.506,-4.5602,-4.5703,-4.7259,0.0,-4.8108,-4.9596,-5.1082,-5.1082,-5.1725,-5.2706,-5.3957,-5.4363,-5.4702,-5.5378,-5.5547,-5.6292,-5.8355,-5.9268,-6.0047,-6.0825,-6.0351,-6.0554,-6.2009,-6.1535,-6.1467,-6.2212,-6.2279,-6.2279,-6.2279,-6.1501,-6.1061,-6.1061,-6.0283,-5.9911,-5.9979,-6.0757,-6.1231,-6.1298,-6.2042,-6.2381,-6.2381,-6.2381,-6.2415,-6.2516,-6.2516,-6.255,-6.2685,-6.3362,-6.3159,-6.2415,-6.2482,-6.2448,-6.2381,-6.2381,-6.2381,-6.2381,-5.0724,-5.1173,-5.1929,-5.2868,-5.2517,-5.2457,-5.3442,-5.4622,-5.5482,-5.582,-5.63,-5.629,-5.5553,-5.4589,-5.3766,-5.3199,-5.2776,-5.2059,-5.0921,-5.0397,-4.9719,-4.895,-4.7614,-4.6708,-4.6259,-4.563,-4.5108,-4.4748,-4.4995,-4.522,-4.5375,-4.5254,-4.5691,-4.6584,-4.6855,-4.7665,-4.8917,-5.0509,-5.1555,-5.2164,-5.3112,-5.3923,-5.4735,-5.5919,-5.69,-5.7814,-5.9032,-5.9066,-5.8389,-5.7036,-5.5108,-5.3179,-5.2604,-5.0744,-4.8578,-4.7564,-4.6413,-4.5365,-4.4784,-4.4716,-4.4959,-4.5568,-4.6481,0.0,-4.8545,-4.9593,-5.0304,-5.0304,-5.1386,-5.2198,-5.1928,-5.2875,-5.3754,-5.3923,-5.4431,-5.5175,-5.6224,-5.7002,-5.7712,-5.8457,-5.8964,-5.9573,-6.0452,-6.0419,-6.0655,-6.1467,-6.1501,-6.1501,-6.1501,-6.0216,-5.9471,-5.9471,-5.8727,-5.8626,-5.9235,-5.9979,-6.0655,-6.1298,-6.2042,-6.2381,-6.2381,-6.2381,-6.2719,-6.3294,-6.3294,-6.3632,-6.4174,-6.4343,-6.3599,-6.2448,-6.3057,-6.2922,-6.2381,-6.2381,-6.2381,-6.2381,-4.9925,-5.0153,-5.0842,-5.2166,-5.2463,-5.2986,-5.4366,-5.5624,-5.6544,-5.6963,-5.7323,-5.7178,-5.6213,-5.5681,-5.5289,-5.5073,-5.4217,-5.3415,-5.2735,-5.1899,-5.0783,-4.9298,-4.8506,-4.7748,-4.7086,-4.6293,-4.578,-4.5542,-4.5132,-4.4927,-4.4961,-4.51,-4.5636,-4.65,-4.7083,-4.8116,-4.9509,-5.0701,-5.1623,-5.2367,-5.3179,-5.416,-5.5277,-5.6393,-5.7949,-5.9742,-6.0858,-6.0757,-5.9877,-5.7983,-5.6122,-5.4465,-5.3754,-5.1928,-4.9898,-4.8781,-4.7665,-4.6583,-4.5432,-4.5128,-4.5128,-4.5128,-4.5703,0.0,0.0,-4.7902,-4.8646,-4.939,-5.0135,-5.0642,-5.0642,-5.1894,-5.2773,-5.2435,-5.3315,-5.4194,-5.4566,-5.5547,-5.6528,-5.7273,-5.7374,-5.7814,-5.8896,-5.8998,-5.9471,-6.0622,-6.0689,-6.0892,-6.1298,-5.9844,-5.9167,-5.9539,-5.849,-5.8084,-5.8457,-5.9539,-6.0317,-6.0723,-6.1839,-6.2381,-6.2415,-6.2787,-6.3159,-6.3531,-6.3903,-6.4275,-6.4647,-6.4986,-6.4478,-6.3531,-6.3903,-6.3835,-6.3497,-6.3497,-6.3497,-6.3429,-4.926,-4.9304,-4.9824,-5.1232,-5.2399,-5.3666,-5.5297,-5.6622,-5.7558,-5.7907,-5.7919,-5.754,-5.6438,-5.661,-5.6841,-5.6909,-5.5632,-5.4807,-5.4746,-5.3304,-5.1682,-4.9963,-4.9323,-4.8655,-4.7889,-4.7024,-4.6509,-4.6337,-4.5684,-4.5145,-4.4748,-4.5388,-4.601,-4.6527,-4.7627,-4.8783,-5.0012,-5.1,-5.1928,-5.2807,-5.345,-5.46,-5.6021,-5.69,-5.8998,-6.1637,-6.2516,-6.2245,-6.1231,-5.937,-5.7577,-5.5919,-5.4735,-5.3112,-5.1386,-5.0033,-4.9018,-4.8003,-4.6515,-4.6143,-4.594,-4.5196,-4.5466,-4.594,0.0,0.0,0.0,-4.8342,-4.8815,0.0,0.0,-5.1014,-5.186,-5.1116,0.0,0.0,0.0,-5.3991,0.0,-5.6258,-5.5852,-5.6021,-5.734,-5.7712,-5.8389,-5.9573,-5.9945,-6.0452,-6.1264,-5.9844,-5.9336,-6.008,-5.866,-5.7881,-5.7881,-5.937,-6.0114,-6.0114,-6.1806,-6.2618,-6.2618,-6.3396,-6.3802,-6.3971,-6.4546,-6.4884,-6.5087,-6.5662,-6.5561,-6.5019,-6.4884,-6.4715,-6.4613,-6.4613,-6.4613,-6.4512,-4.9703,-5.0307,-5.1173,-5.2542,-5.3048,-5.397,-5.6044,-5.7078,-5.7946,-5.8696,-5.8769,-5.8701,-5.8531,-5.7945,-5.76,-5.7667,-5.6841,-5.6128,-5.5585,-5.4194,-5.3212,-5.301,-5.0439,-4.8948,-4.8839,-4.748,-4.6462,-4.5789,-4.5687,-4.5499,-4.5249,-4.5524,-4.5982,-4.6576,-4.8171,-4.932,-5.0193,-5.1588,-5.301,-5.4329,-5.4431,-5.5344,-5.6833,-5.822,-6.0216,-6.2448,-6.3835,-6.3463,-6.2245,-6.1975,-5.9979,-5.7611,-5.7442,-5.548,-5.3078,-5.2198,0.0,0.0,0.0,0.0,-4.7496,-4.6718,-4.6616,-4.6853,-4.75,0.0,-4.6853,-4.7022,0.0,0.0,0.0,0.0,0.0,0.0,0.0,0.0,-5.0574,-5.1183,-5.2503,-5.46,-5.4769,-5.504,-5.5886,-5.7137,-5.7949,-5.8118,-5.937,-6.0452,-6.1264,-5.9844,-5.9336,-6.008,-5.866,-5.7881,-5.7881,-5.937,-6.0114,-6.0148,-6.2347,-6.3396,-6.3396,-6.414,-6.4816,-6.5425,-6.5527,-6.5933,-6.6576,-6.6643,-6.6643,-6.6508,-6.5831,-6.5155,-6.4613,-6.4613,-6.4613,-6.458,-4.935,-5.0292,-5.1488,-5.2818,-5.3865,-5.5104,-5.6886,-5.8211,-5.9182,-5.9564,-5.994,-6.0046,-5.9652,-5.9268,-5.925,-5.969,-5.899,-5.8233,-5.7521,-5.6517,-5.523,-5.3585,-5.23,-5.1183,-5.0304,-4.8849,-4.7936,-4.7631,-4.6752,-4.6259,-4.6175,-4.6733,-4.7515,-4.8499,-4.9708,-5.1068,-5.2542,-5.321,-5.4146,-5.5209,-5.6129,-5.7408,-5.8795,-5.9404,-6.1569,-6.4377,-6.5019,-6.4816,-6.4174,-6.3328,-6.1637,-5.9776,-5.9302,-5.7442,0.0,-5.4499,0.0,0.0,0.0,0.0,-4.8917,-4.7733,-4.7462,-4.753,-4.7804,-4.7327,-4.6921,-4.7361,0.0,0.0,0.0,0.0,0.0,0.0,-4.9154,0.0,0.0,0.0,0.0,0.0,0.0,0.0,-5.4938,-5.5615,-5.6325,-5.7205,-5.7848,-5.8727,-5.9911,-5.8964,-5.8693,-5.9438,-5.8457,-5.7881,-5.7881,-5.937,-6.0317,-6.0825,-6.2651,-6.3734,-6.4174,-6.4884,-6.5392,-6.5696,-6.6136,-6.6508,-6.6812,-6.6812,-6.6812,-6.6779,-6.6474,-6.617,-6.5899,-6.5899,-6.5899,-6.5831,-4.9289,-5.0267,-5.1434,-5.2427,-5.4285,-5.621,-5.7693,-5.9109,-5.997,-5.9837,-6.0566,-6.0947,-6.0427,-6.0569,-6.0908,-6.1378,-6.0686,-6.0028,-5.9499,-5.8398,-5.6838,-5.4804,-5.3923,-5.2976,-5.186,-5.0371,-4.9424,-4.9018,-4.7936,-4.7192,-4.6819,-4.7767,-4.8839,-4.9971,-5.1173,-5.2641,-5.4221,-5.4748,-5.5412,-5.6224,-5.7874,-5.9624,-6.1366,-6.1569,-6.3328,-6.573,-6.5933,-6.5865,-6.5527,-6.4478,-6.3125,-6.1772,-6.0994,-5.9336,-5.7577,0.0,0.0,0.0,-5.257,-5.1589,-5.0676,-4.9156,-4.868,-4.8511,-4.8511,-4.7631,-4.6989,-4.7767,0.0,0.0,0.0,0.0,0.0,0.0,0.0,-4.8342,0.0,0.0,0.0,0.0,0.0,0.0,0.0,-5.4329,-5.504,-5.6122,-5.6562,-5.7374,-5.8626,-5.8186,-5.8254,-5.8998,-5.849,-5.8287,-5.849,-5.9979,-6.1129,-6.1941,-6.3396,-6.4377,-6.4918,-6.5662,-6.6,-6.6034,-6.6576,-6.6812,-6.6812,-6.6812,-6.6812,-6.6812,-6.6812,-6.6812,-6.6812,-6.6812,-6.6812,-6.6745,-5.0067,-5.0708,-5.1216,-5.1249,-5.4164,-5.6982,-5.8531,-5.9521,-5.9836,-5.9109,-6.0309,-6.1186,-6.1185,-6.1812,-6.2246,-6.2244,-6.1606,-6.1117,-6.1117,-5.9102,-5.7853,-5.7746,-5.5006,-5.3484,-5.345,-5.1928,-5.0439,-4.9018,-4.8951,-4.8206,-4.6819,-4.8274,-4.9316,-5.0068,-5.2248,-5.3584,-5.4279,-5.5788,-5.6899,-5.7773,-5.9357,-6.181,-6.4546,-6.5256,-6.5595,-6.5764,-6.6508,-6.6305,-6.5662,-6.5628,-6.4647,-6.3328,-6.255,-6.1231,-5.9844,0.0,0.0,0.0,-5.4871,-5.3957,-5.3044,-5.1455,-5.0574,-5.0033,-5.0033,-4.8342,-4.6989,0.0,0.0,0.0,0.0,0.0,0.0,0.0,0.0,0.0,0.0,0.0,0.0,0.0,0.0,0.0,0.0,-5.3721,-5.46,0.0,-5.5987,-5.7137,-5.7881,-5.7915,-5.8254,-5.8998,-5.8998,-5.9302,-6.0013,-6.1535,-6.2685,-6.3463,-6.4918,-6.5628,-6.5662,-6.644,-6.6779,-6.6779,-6.6812,-6.6812,-6.6812,-6.6812,-6.6812,-6.6812,-6.6812,-6.6812,-6.6812,-6.6812,-6.6812,-6.6812,-5.0845,-5.142,-5.2058,-5.2504,-5.4767,-5.7097,-5.8623,-5.9967,-6.0905,-6.1155,-6.2464,-6.361,-6.4183,-6.4462,-6.4804,-6.5303,-6.5105,-6.4548,-6.3524,-6.2763,-6.145,-5.9382,-5.791,-5.6437,-5.4928,-5.3479,-5.2232,-5.1183,-5.0202,-4.9458,-4.8984,-4.9492,-5.0091,-5.0884,-5.2551,-5.4205,-5.5818,-5.7364,-5.9069,-6.0917,-6.3587,-6.5891,-6.7638,-6.6759,-6.6745,-6.7184,-6.7455,-6.7387,-6.7083,-6.6576,-6.5764,-6.4918,-6.4647,-6.3226,-6.1467,-6.0757,-5.9471,-5.7949,-5.6461,-5.5886,-5.5209,-5.3213,-5.2536,-5.2097,-5.1048,-5.027,-4.9526,0.0,0.0,0.0,0.0,0.0,0.0,0.0,0.0,0.0,0.0,0.0,0.0,0.0,0.0,0.0,0.0,0.0,0.0,0.0,0.0,0.0,-5.7103,-5.7611,-5.8017,-5.8254,-5.9235,-5.9844,-6.0114,-6.1637,-6.3024,-6.4241,-6.5222,-6.5967,-6.644,-6.6711,-6.6812,-6.6812,-6.6812,-6.6812,-6.6812,-6.6812,-6.6812,-6.6812,-6.6812,-6.6812,-6.6812,-6.6812,-6.6812,-6.6812,-5.1657,-5.2198,-5.2838,-5.3293,-5.5206,-5.7261,-5.9047,-6.039,-6.1461,-6.2229,-6.4084,-6.5572,-6.6135,-6.6658,-6.7168,-6.7657,-6.7497,-6.6907,-6.5903,-6.5323,-6.391,-6.1388,-6.0114,-5.8496,-5.6472,-5.4771,-5.3518,-5.2739,-5.1488,-5.0608,-5.0101,-5.0642,-5.1108,-5.1631,-5.328,-5.5059,-5.6982,-5.8745,-6.0695,-6.2888,-6.6423,-6.8388,-6.9202,-6.861,-6.8573,-6.8743,-6.8743,-6.8566,-6.8267,-6.7793,-6.7117,-6.644,-6.617,-6.4918,-6.3429,-6.2685,-6.1603,-6.025,-5.8457,-5.778,-5.707,-5.4837,-5.4296,-5.389,-5.2367,-5.1826,-5.1251,0.0,0.0,0.0,0.0,0.0,0.0,0.0,0.0,0.0,0.0,0.0,0.0,0.0,0.0,0.0,0.0,0.0,0.0,0.0,0.0,0.0,0.0,-5.734,-5.8017,-5.8287,-5.9979,-6.1028,-6.1332,-6.2821,-6.4174,-6.5392,-6.5865,-6.6339,-6.6812,-6.6812,-6.6812,-6.6812,-6.6812,-6.6812,-6.6812,-6.6812,-6.6812,-6.6812,-6.6812,-6.6812,-6.6812,-6.6812,-6.6812,-6.6812,-5.2638,-5.3112,-5.3687,-5.3721,-5.548,-5.7591,-5.977,-6.0807,-6.1637,-6.2468,-6.5119,-6.7007,-6.7114,-6.844,-6.9352,-6.9461,-6.8794,-6.8365,-6.8329,-6.6945,-6.5444,-6.3927,-6.1709,-5.977,-5.8167,-5.5958,-5.4466,-5.3585,-5.2806,-5.1688,-5.0299,-5.1688,-5.2345,-5.2403,-5.443,-5.614,-5.7715,-5.9889,-6.1903,-6.3988,-6.7905,-6.9424,-6.9514,-7.0965,-7.1069,-7.04,-7.0284,-6.9814,-6.9147,-6.9113,-6.8605,-6.7827,-6.7151,-6.6406,-6.5662,-6.4884,-6.4174,-6.3125,-6.0825,-5.9708,-5.866,-5.6427,-5.5886,-5.548,-5.3957,-5.3044,-5.23,0.0,0.0,0.0,0.0,0.0,0.0,0.0,0.0,0.0,0.0,0.0,0.0,0.0,0.0,0.0,0.0,0.0,0.0,0.0,0.0,0.0,0.0,0.0,-5.8186,-5.8998,-6.1197,-6.2753,-6.3497,-6.4952,-6.6068,-6.6812,-6.6812,-6.6812,-6.6812,-6.6812,-6.6812,-6.6812,-6.6812,-6.6812,-6.6812,-6.6846,-6.688,-6.688,-6.6914,-6.6914,-6.6914,-6.6846,-6.688,-6.6914,-5.4871,-5.5446,-5.6122,-5.6664,-5.7239,-5.8171,-5.984,-6.1709,-6.3408,-6.4751,-6.6558,-6.8389,-7.0121,-7.0676,-7.1386,-7.2581,-7.2528,-7.2142,-7.1564,-7.1146,-6.9976,-6.7844,-6.6106,-6.3902,-6.1235,-5.9494,-5.7443,-5.5061,-5.4303,-5.3447,-5.252,-5.2866,-5.3272,-5.3725,-5.4887,-5.6487,-5.8509,-6.0289,-6.3968,-6.8786,-7.0937,-7.2153,-7.2717,-7.3106,-7.2731,-7.1794,-7.0635,-7.011,-6.9823,-6.9282,-6.8977,-6.8774,-6.8571,-6.7963,-6.7083,-6.5797,-6.5256,-6.4647,-6.2415,-6.167,-6.0994,-5.8727,-5.8152,-5.7608,-5.5615,-5.5412,-5.5108,-5.3281,-5.2773,0.0,0.0,0.0,0.0,0.0,0.0,0.0,0.0,0.0,0.0,0.0,0.0,0.0,0.0,0.0,0.0,0.0,0.0,0.0,0.0,0.0,0.0,-5.8964,-6.1197,-6.2753,-6.3497,-6.4952,-6.6068,-6.6812,-6.6812,-6.6812,-6.6812,-6.6812,-6.6812,-6.6812,-6.6812,-6.6812,-6.6846,-6.7387,-6.7624,-6.7692,-6.8267,-6.8504,-6.8368,-6.7218,-6.7523,-6.8436,-5.5784,-5.6562,-5.7618,-5.8656,-5.9411,-6.0136,-6.0978,-6.2753,-6.4693,-6.6556,-6.8408,-7.0191,-7.1857,-7.2364,-7.2907,-7.3849,-7.3921,-7.374,-7.3269,-7.3233,-7.2344,-7.0354,-6.8776,-6.6663,-6.3886,-6.1662,-5.9394,-5.7078,-5.5662,-5.4434,-5.3396,-5.3679,-5.3779,-5.3863,-5.519,-5.6858,-5.8902,-6.2198,-6.6229,-7.0553,-7.2472,-7.3526,0.0,-7.4297,-7.3873,-7.2921,-7.1662,-7.1215,-7.1104,-7.0328,-7.0085,-7.0047,-6.9684,-6.9045,-6.8267,-6.7421,-6.7184,-6.6677,-6.4444,-6.3835,-6.3294,-6.1061,-6.0486,-5.9979,-5.8084,-5.7712,-5.7239,-5.5344,-5.4702,-5.4126,-5.2909,0.0,0.0,0.0,0.0,0.0,0.0,0.0,0.0,0.0,0.0,0.0,0.0,0.0,0.0,0.0,0.0,0.0,0.0,0.0,0.0,-5.9438,-6.1704,-6.3226,-6.3971,-6.5459,-6.6406,-6.6812,-6.6812,-6.6812,-6.6812,-6.6812,-6.6812,-6.6846,-6.7151,-6.7286,-6.7354,-6.8098,-6.8436,-6.847,-6.891,-6.9316,-6.9451,-6.8233,-6.8368,-6.9045,-5.6427,-5.7306,-5.8679,-6.0287,-6.1671,-6.2708,-6.3235,-6.4358,-6.5957,-6.8258,-7.035,-7.2001,-7.2943,-7.3667,-7.4102,-7.4211,-7.4211,-7.4211,-7.4211,-7.4211,-7.3549,-7.2147,-7.0644,-6.8803,-6.6456,-6.3594,-6.1228,-5.9454,-5.7233,-5.5359,-5.392,-5.4333,-5.4202,0.0,0.0,0.0,0.0,-6.4917,-6.8488,-7.0879,-7.316,-7.4066,-7.4118,-7.4832,-7.4565,-7.3681,-7.2914,-7.2666,-7.2533,-7.1634,-7.1473,-7.1532,-7.0648,-7.0066,-6.9662,-6.9465,-6.9388,-6.8947,-6.6886,-6.6159,-6.5459,-6.3362,-6.2821,-6.2415,-6.0757,-5.9979,-5.9167,-5.7577,-5.6731,-5.5987,-5.504,0.0,0.0,0.0,0.0,0.0,0.0,0.0,0.0,0.0,0.0,0.0,0.0,0.0,0.0,0.0,0.0,0.0,0.0,0.0,0.0,-5.9877,-6.2178,-6.3808,-6.4742,-6.611,-6.6938,-6.7112,-6.6988,-6.698,-6.698,-6.7082,-6.7032,-6.7015,-6.7726,-6.8064,-6.8132,-6.891,-6.9369,-6.9524,-6.9653,-7.0061,-7.0405,-6.9761,-6.9471,-6.9383,-5.937,-5.9539,-6.0415,-6.2596,-6.319,-6.4458,-6.7617,-6.7745,-6.8326,-7.059,-7.1829,-7.3052,-7.4504,-7.4793,-7.5189,-7.5804,-7.5877,-7.5877,-7.5877,-7.5877,-7.5481,-7.4552,-7.3612,-7.1994,-6.9661,-6.775,-6.5141,-6.1742,-5.9971,-5.8048,-5.5977,-5.5474,-5.5184,0.0,0.0,0.0,-6.3638,-6.7263,-7.0118,-7.2472,-7.4211,-7.4894,-7.4903,-7.5046,-7.4565,-7.376,-7.3641,-7.3562,-7.3322,-7.182,-7.2244,-7.3112,-7.1572,-7.1953,-7.2718,-7.1394,-7.1014,-7.0774,-6.9742,-6.852,-6.7117,-6.5493,-6.5121,-6.4546,-6.2448,-6.2381,-6.211,-5.9979,-5.9438,-5.8727,-5.6765,-5.5209,0.0,0.0,0.0,0.0,0.0,0.0,0.0,0.0,0.0,0.0,0.0,0.0,0.0,0.0,0.0,0.0,0.0,0.0,0.0,0.0,-6.14,-6.3548,0.0,-6.6405,-6.7488,-6.8755,-6.8132,-6.7776,-6.7811,-6.8429,-6.833,-6.776,-6.8538,-6.8876,-6.8944,-6.9688,-7.0735,-7.1985,-7.2696,-7.2602,-7.2072,-7.1935,-7.1498,-7.0838,-6.0655,-6.1374,-6.2618,-6.4945,-6.604,-6.7584,-7.0593,-7.1084,-7.1503,-7.2621,-7.345,-7.4428,-7.5587,-7.5732,-7.5877,-7.6275,-7.6275,-7.6275,-7.6275,-7.6275,-7.613,-7.5732,-7.4971,-7.3595,-7.1639,-6.9647,-6.6951,-6.3474,-6.1474,-5.9367,-5.7118,-5.667,-5.6248,-5.5964,0.0,-6.1143,0.0,-6.783,-7.0553,-7.2834,-7.4431,-7.5349,-7.5725,-7.5725,-7.5442,-7.5046,-7.464,-7.4752,-7.4753,-7.2617,-7.2742,-7.3562,-7.2313,-7.2448,-7.305,-7.2748,-7.2643,-7.2469,-7.1738,-7.0648,-6.9431,-6.8337,-6.7766,-6.7083,-6.5595,-6.4918,-6.4208,-6.2753,-6.1535,-6.0047,-5.778,-5.6461,-5.5378,-5.4262,0.0,0.0,0.0,0.0,0.0,0.0,0.0,0.0,0.0,0.0,0.0,0.0,0.0,0.0,0.0,0.0,0.0,0.0,0.0,0.0,-6.5776,0.0,-6.8014,-6.92,-6.9212,-6.923,-6.9265,-7.007,-7.0184,-6.986,-7.0614,-7.0994,-7.1028,-7.1788,-7.2479,-7.32,-7.3641,-7.3562,-7.316,-7.316,-7.2658,-7.1839,-6.262,-6.3767,-6.5295,-6.7588,-6.8995,-7.0568,-7.2882,-7.3776,-7.4142,-7.4142,-7.4863,-7.5623,-7.6239,-7.6275,-7.6275,-7.6275,-7.6275,-7.6275,-7.6275,-7.6275,-7.6275,-7.6275,-7.5696,-7.4682,-7.3269,-7.106,-6.8528,-6.5586,-6.3221,-6.0475,-5.7499,-5.7868,-5.7767,-5.7445,-6.014,-6.2872,-6.5591,-6.8633,-7.1205,-7.3342,-7.479,-7.5732,-7.6275,-7.6275,-7.6275,-7.6208,-7.5584,-7.576,-7.5967,-7.3799,-7.3641,-7.4149,-7.3119,-7.3037,-7.3442,-7.3917,-7.4072,-7.3966,-7.3367,-7.2573,-7.1717,-7.0995,-7.0195,-6.9381,-6.86,-6.7387,-6.6136,-6.5256,-6.3328,-6.1163,-5.9201,-5.8118,-5.7311,-5.6707,0.0,0.0,0.0,0.0,0.0,0.0,0.0,0.0,0.0,0.0,0.0,0.0,0.0,0.0,0.0,0.0,0.0,0.0,0.0,-6.3992,-6.6264,0.0,-6.8822,-6.9955,-7.0411,-7.0726,-7.0937,-7.175,-7.199,-7.1874,-7.2609,-7.2922,-7.2995,-7.3748,-7.4072,-7.4072,-7.4264,-7.4226,-7.4072,-7.4072,-7.3522,-7.27,-6.7408,-6.769,-6.8505,-7.0803,-7.1297,-7.2179,-7.4546,-7.4938,-7.4974,-7.4974,-7.5696,-7.6203,-7.6275,-7.6275,-7.6275,-7.6275,-7.6275,-7.6275,-7.6275,-7.6275,-7.6275,-7.6275,-7.6239,-7.5768,-7.4866,-7.3233,-7.1173,-6.879,-6.6365,-6.2305,-5.6846,-5.875,-6.0009,-6.0724,-6.2421,-6.5226,-6.8917,-7.135,-7.3342,-7.4938,-7.5841,-7.6239,-7.6275,-7.6275,-7.6275,-7.6275,-7.6208,-7.6242,-7.614,-7.5191,-7.5406,-7.5795,-7.4187,-7.4716,-7.5829,-7.5155,-7.4972,-7.4936,-7.4865,-7.427,-7.3401,-7.2668,-7.1827,-7.1001,-7.0243,-6.9373,-6.8368,-6.6914,-6.485,-6.3024,-6.2144,-6.0791,-5.9766,-5.97,0.0,0.0,0.0,0.0,0.0,0.0,0.0,0.0,0.0,0.0,0.0,0.0,0.0,0.0,0.0,0.0,0.0,-5.9876,0.0,-6.5511,-6.785,-6.868,-7.0204,-7.2387,-7.179,-7.1871,-7.2584,-7.3369,-7.3288,-7.2644,-7.3378,-7.3694,-7.3772,-7.4604,-7.4972,-7.5045,-7.5795,-7.562,-7.4972,-7.4972,-7.4452,-7.3681,-6.9527,-7.0097,-7.0946,-7.269,-7.3498,-7.4335,-7.5626,-7.5804,-7.5804,-7.5804,-7.6094,-7.6275,-7.6275,-7.6275,-7.6275,-7.6275,-7.6275,-7.6275,-7.6275,-7.6275,-7.6275,-7.6275,-7.6275,-7.5913,-7.5119,-7.3523,-7.1784,-6.9932,-6.7981,-6.5098,-6.1315,-6.2199,-6.2781,-6.3178,-6.4728,-6.712,-7.0046,-7.2436,-7.4102,-7.5155,-7.5985,-7.6275,-7.6275,-7.6275,-7.6275,-7.6275,-7.6275,-7.6275,-7.6242,-7.5898,-7.5725,-7.5442,-7.4789,-7.5045,-7.562,-7.576,-7.5829,-7.5829,-7.5829,-7.5227,-7.4494,-7.4212,-7.3498,-7.2764,-7.2485,-7.138,-7.0309,-6.9693,-6.7358,-6.4986,-6.3362,-6.2584,-6.2144,-6.2182,-6.0627,0.0,0.0,0.0,0.0,0.0,0.0,0.0,0.0,0.0,0.0,0.0,0.0,0.0,0.0,0.0,0.0,-5.9963,0.0,-6.5716,-6.8085,-6.9775,-7.1331,-7.2726,-7.3372,-7.385,-7.421,-7.5001,-7.5152,-7.4869,-7.5192,-7.5299,-7.5335,-7.569,-7.5829,-7.5829,-7.6174,-7.6106,-7.5829,-7.5829,-7.5299,-7.4565,-7.1802,-7.2435,-7.3209,-7.4401,-7.5205,-7.5792,-7.6236,-7.6275,-7.6275,-7.6275,-7.6275,-7.6275,-7.6275,-7.6275,-7.6275,-7.6275,-7.6275,-7.6275,-7.6275,-7.6275,-7.6275,-7.6275,-7.6275,-7.6022,-7.5478,-7.4138,-7.2762,-7.1422,-6.9828,-6.7487,-6.4484,-6.4015,-6.4535,-6.5844,-6.7257,-6.9176,-7.1531,-7.345,-7.4718,-7.5515,-7.6058,-7.6275,-7.6275,-7.6275,-7.6275,-7.6275,-7.6275,-7.6275,-7.6275,-7.6275,-7.5898,-7.5478,-7.5478,-7.5478,-7.5584,-7.614,-7.6275,-7.6275,-7.6275,-7.5864,-7.5478,-7.5478,-7.4789,-7.4149,-7.4149,-7.3103,-7.2047,-7.1839,-6.966,-6.7229,-6.5221,-6.4846,-6.4781,-6.462,-6.3446,0.0,0.0,0.0,0.0,0.0,0.0,0.0,-5.7959,0.0,0.0,0.0,0.0,0.0,0.0,0.0,0.0,0.0,0.0,0.0,-6.906,-7.096,-7.2415,-7.345,-7.4573,-7.5192,-7.5478,-7.6022,-7.6275,-7.6275,-7.6275,-7.6275,-7.6275,-7.6275,-7.6275,-7.6275,-7.6275,-7.6275,-7.6275,-7.6275,-7.5933,-7.5478,-7.4902,-7.5047,-7.53,-7.613,-7.6275,-7.6275,-7.6275,-7.6275,-7.6275,-7.6275,-7.6275,-7.6275,-7.6275,-7.6275,-7.6275,-7.6275,-7.6275,-7.6275,-7.6275,-7.6275,-7.6275,-7.6275,-7.6275,-7.6275,-7.6275,-7.5515,-7.4649,-7.3885,-7.2255,-6.9146,-6.4762,-6.3185,-6.4819,-6.9207,-7.0004,-7.1639,-7.3921,-7.4721,-7.5551,-7.6275,-7.6275,-7.6275,-7.6275,-7.6275,-7.6275,-7.6275,-7.6275,-7.6275,-7.6275,-7.6275,-7.6275,-7.6275,-7.6275,-7.6275,-7.6275,-7.6311,-7.6275,-7.6275,-7.6275,-7.6275,-7.6275,-7.6275,-7.569,-7.5082,-7.5082,-7.4378,-7.3589,-7.2816,-7.138,-6.9814,-6.8335,-6.798,-6.7696,-6.6985,-6.6251,-6.5999,0.0,0.0,0.0,0.0,-6.3483,-6.2889,-5.9232,0.0,0.0,0.0,0.0,0.0,0.0,0.0,0.0,-6.4295,-6.6684,0.0,-7.1427,-7.2259,-7.349,-7.5047,-7.5083,-7.5515,-7.6275,-7.6275,-7.6275,-7.6275,-7.6275,-7.6275,-7.6275,-7.6275,-7.6275,-7.6275,-7.6275,-7.6275,-7.6275,-7.6275,-7.6275,-7.6275,-7.6079,-7.6214,-7.6432,-7.6997,-7.721,-7.7458,-7.7867,-7.7941,-7.7941,-7.7941,-7.747,-7.7108,-7.7108,-7.6637,-7.6275,-7.6275,-7.6275,-7.6275,-7.6275,-7.6275,-7.6275,-7.6275,-7.6275,-7.6275,-7.6275,-7.5515,-7.4974,-7.4721,-7.3667,-7.2123,-7.0152,-6.9105,-6.9668,-7.1603,-7.2436,-7.3523,-7.4757,-7.5587,-7.6058,-7.6275,-7.6275,-7.6275,-7.6275,-7.6275,-7.6275,-7.6275,-7.6275,-7.6275,-7.6275,-7.6275,-7.6275,-7.6275,-7.6275,-7.6275,-7.6275,-7.6275,-7.6275,-7.6275,-7.6275,-7.6275,-7.6275,-7.6275,-7.6106,-7.5898,-7.5898,-7.5263,-7.4315,-7.297,-7.2271,-7.1625,-7.0651,-7.0476,-7.0529,-7.0878,-6.9776,-6.9196,-6.9921,0.0,0.0,0.0,-6.5268,-6.4073,-6.2772,-6.2155,0.0,0.0,0.0,0.0,0.0,0.0,0.0,0.0,-6.704,0.0,-7.1494,-7.2834,-7.4066,-7.5083,-7.5659,-7.6058,-7.6275,-7.6275,-7.6275,-7.6275,-7.6275,-7.6275,-7.6275,-7.6275,-7.6275,-7.6275,-7.6275,-7.6275,-7.6275,-7.6275,-7.6275,-7.6275,-7.7586,-7.7619,-7.7731,-7.8005,-7.8182,-7.8361,-7.8767,-7.8874,-7.8872,-7.8872,-7.8436,-7.8112,-7.8044,-7.7355,-7.6705,-7.6311,-7.6275,-7.6275,-7.6275,-7.6275,-7.6275,-7.6275,-7.6275,-7.6275,-7.6275,-7.5804,-7.5551,-7.5551,-7.4754,-7.3957,-7.316,-7.2653,-7.2834,-7.3631,-7.4138,-7.4826,-7.5587,-7.6094,-7.6275,-7.6275,-7.6275,-7.6275,-7.6275,-7.6275,-7.6275,-7.6275,-7.6275,-7.6275,-7.6275,-7.6275,-7.6275,-7.6275,-7.6275,-7.6275,-7.6275,-7.6275,-7.6275,-7.6275,-7.6275,-7.6275,-7.6275,-7.6275,-7.6275,-7.6275,-7.6275,-7.5898,-7.5263,-7.4294,-7.3783,-7.3383,-7.2607,-7.2466,-7.2543,-7.2763,-7.2184,-7.1768,-7.1938,-7.071,-6.9605,0.0,0.0,-6.6539,0.0,-6.4944,-6.4207,0.0,0.0,0.0,0.0,0.0,-6.4734,-6.646,-6.8343,-7.0335,-7.24,-7.3704,-7.4754,-7.5551,-7.6058,-7.6275,-7.6275,-7.6275,-7.6275,-7.6275,-7.6275,-7.6275,-7.6275,-7.6275,-7.6275,-7.6275,-7.6275,-7.6275,-7.6275,-7.6275,-7.6275,-7.6275,-7.9175,-7.9111,-7.9047,-7.9083,-7.9085,-7.9085,-7.9192,-7.929,-7.9354,-7.9354,-7.9318,-7.9251,-7.9119,-7.8392,-7.7489,-7.6487,-7.6345,-7.6275,-7.6275,-7.6275,-7.6275,-7.6275,-7.6309,-7.6345,-7.6345,-7.6309,-7.6309,-7.6345,-7.5551,-7.4826,-7.4102,-7.4102,-7.4464,-7.5222,-7.5222,-7.562,-7.6309,-7.6309,-7.6345,-7.6345,-7.6311,-7.6275,-7.6275,-7.6275,-7.6275,-7.6275,-7.6275,-7.6275,-7.6275,-7.6275,-7.6275,-7.6275,-7.6275,-7.6275,-7.6275,-7.6275,-7.6275,-7.6275,-7.6275,-7.6275,-7.6275,-7.6275,-7.6275,-7.6275,-7.6275,-7.6275,-7.6275,-7.6275,-7.569,-7.4976,-7.419,-7.4083,-7.3869,-7.3154,-7.3562,-7.374,-7.2979,-7.2834,-7.2255,-7.0837,-7.062,-6.9937,-6.8416,-6.8199,-6.7873,0.0,0.0,0.0,0.0,0.0,-6.7547,-6.8235,-7.0372,-7.2291,-7.3993,-7.4754,-7.5515,-7.6275,-7.6275,-7.6275,-7.6275,-7.6275,-7.6275,-7.6275,-7.6275,-7.6275,-7.6275,-7.6275,-7.6275,-7.6275,-7.6275,-7.6275,-7.6275,-7.6275,-7.6275,-7.6275,-7.9241,-7.9175,-7.936,-7.998,-7.9987,-8.0137,-8.0891,-8.0998,-8.1032,-8.1032,-8.0485,-8.0086,-8.0089,-7.936,-7.8522,-7.7688,-7.6805,-7.6275,-7.6275,-7.6275,-7.6275,-7.6275,-7.6445,-7.6548,-7.6548,-7.6643,-7.6643,-7.6548,-7.6197,-7.6016,-7.5967,-7.5967,-7.6105,-7.6417,-7.6417,-7.649,-7.6672,-7.6578,-7.6548,-7.6548,-7.6378,-7.6275,-7.6275,-7.6275,-7.6275,-7.6275,-7.6275,-7.6275,-7.6275,-7.6275,-7.6275,-7.6275,-7.6275,-7.6275,-7.6275,-7.6275,-7.6275,-7.6275,-7.6275,-7.6275,-7.6275,-7.6275,-7.6275,-7.6275,-7.6275,-7.6275,-7.6275,-7.6275,-7.614,-7.5965,-7.5785,-7.5749,-7.5677,-7.5496,-7.5125,-7.4721,-7.4573,-7.403,-7.3519,-7.3316,-7.264,-7.1847,-7.0956,-7.0247,-6.9756,0.0,0.0,-6.9865,-7.0625,-7.1096,-7.1132,-7.0698,-7.1205,-7.2581,-7.4757,-7.4974,-7.5515,-7.6275,-7.6275,-7.6275,-7.6275,-7.6275,-7.6275,-7.6275,-7.6275,-7.6275,-7.6275,-7.6275,-7.6275,-7.6275,-7.6275,-7.6275,-7.6275,-7.6275,-7.6275,-7.6275,-8.0568,-8.0502,-8.0582,-8.1021,-8.1029,-8.1141,-8.1644,-8.1818,-8.1885,-8.1885,-8.1486,-8.116,-8.1094,-8.0363,-7.9672,-7.9135,-7.7877,-7.6908,-7.6481,-7.6445,-7.6445,-7.6445,-7.6548,-7.6647,-7.6676,-7.6737,-7.6737,-7.6676,-7.6574,-7.6574,-7.6676,-7.6676,-7.6741,-7.6801,-7.6801,-7.6801,-7.6801,-7.6741,-7.6676,-7.6676,-7.6541,-7.6475,-7.6445,-7.6445,-7.6378,-7.6275,-7.6275,-7.6275,-7.6275,-7.6275,-7.6275,-7.6275,-7.6275,-7.6275,-7.6275,-7.6275,-7.6275,-7.6275,-7.6275,-7.6378,-7.6445,-7.6445,-7.6445,-7.6412,-7.6345,-7.6275,-7.6275,-7.6275,-7.6275,-7.6275,-7.6275,-7.6275,-7.6345,-7.6412,-7.5983,-7.5548,-7.5288,-7.4852,-7.4486,-7.4087,-7.3652,-7.3216,-7.2781,-7.2318,-7.2033,-7.2128,-7.2065,0.0,-7.2708,-7.3048,-7.2871,-7.2074,-7.2762,-7.3776,-7.5083,-7.5478,-7.5877,-7.6275,-7.6275,-7.6275,-7.6275,-7.6275,-7.6275,-7.6275,-7.6275,-7.6275,-7.6275,-7.6275,-7.6275,-7.6275,-7.6275,-7.6275,-7.6275,-7.6275,-7.6275,-7.6275,-8.2154,-8.2055,-8.1885,-8.1919,-8.1919,-8.1885,-8.1919,-8.2088,-8.2186,-8.2186,-8.2186,-8.2121,-8.1952,-8.1366,-8.0824,-8.0549,-7.9238,-7.8041,-7.7047,-7.6865,-7.6792,-7.6792,-7.6716,-7.6708,-7.6834,-7.6834,-7.6834,-7.6834,-7.6801,-7.6801,-7.6834,-7.6834,-7.6834,-7.6866,-7.6866,-7.6866,-7.6866,-7.6834,-7.6834,-7.6834,-7.6801,-7.6741,-7.6647,-7.6647,-7.6512,-7.6376,-7.6376,-7.6376,-7.6376,-7.6376,-7.6376,-7.6376,-7.6376,-7.6376,-7.6376,-7.6376,-7.6376,-7.6342,-7.6378,-7.6478,-7.6647,-7.6647,-7.6647,-7.6578,-7.6409,-7.6376,-7.6376,-7.6376,-7.6376,-7.6342,-7.6378,-7.6345,-7.6412,-7.6581,-7.6445,-7.6158,-7.5669,-7.5592,-7.5273,-7.4454,-7.4478,-7.4442,-7.4135,-7.4102,-7.4167,-7.4361,-7.42,-7.4203,-7.4542,-7.4381,-7.3957,-7.3269,-7.4464,-7.5155,-7.5297,-7.5949,-7.6275,-7.6275,-7.6275,-7.6275,-7.6275,-7.6275,-7.6275,-7.6275,-7.6275,-7.6275,-7.6275,-7.6275,-7.6275,-7.6275,-7.6275,-7.6275,-7.6275,-7.6275,-7.6275,-7.6275,-8.2186,-8.2055,-8.1952,-8.2121,-8.2022,-8.1952,-8.2121,-8.2186,-8.2186,-8.2186,-8.2186,-8.2186,-8.2154,-8.2043,-8.1677,-8.0951,-8.0658,-8.0015,-7.8847,-7.8154,-7.779,-7.779,-7.7263,-7.7029,-7.7061,-7.7061,-7.7061,-7.7061,-7.6866,-7.6866,-7.7061,-7.7061,-7.7124,-7.7212,-7.7212,-7.7212,-7.7212,-7.7124,-7.7061,-7.7061,-7.6866,-7.6769,-7.6769,-7.6769,-7.6737,-7.6705,-7.6705,-7.6705,-7.6705,-7.6705,-7.6705,-7.6705,-7.6705,-7.6705,-7.6705,-7.6705,-7.6705,-7.6672,-7.6578,-7.6643,-7.6769,-7.6769,-7.6769,-7.6737,-7.6737,-7.6705,-7.6705,-7.6705,-7.6705,-7.6672,-7.6545,-7.6581,-7.6581,-7.6614,-7.6581,-7.6541,-7.6591,-7.6587,-7.6518,-7.634,-7.6279,-7.596,-7.5237,-7.5001,-7.5001,-7.5196,-7.5034,-7.5291,-7.6178,-7.6049,-7.5877,-7.5732,-7.5334,-7.5442,-7.6094,-7.6239,-7.6275,-7.6275,-7.6275,-7.6275,-7.6275,-7.6275,-7.6275,-7.6275,-7.6275,-7.6275,-7.6275,-7.6275,-7.6275,-7.6275,-7.6275,-7.6275,-7.6275,-7.6275,-7.6275,-7.6275,-8.2186,-8.2121,-8.2088,-8.2186,-8.2121,-8.2088,-8.2186,-8.2186,-8.2186,-8.2186,-8.2186,-8.2186,-8.2186,-8.2186,-8.2039,-8.1672,-8.1636,-8.1424,-8.0857,-7.9552,-7.8825,-7.8825,-7.8121,-7.7563,-7.7217,-7.7217,-7.7217,-7.7217,-7.7087,-7.7118,-7.7217,-7.7217,-7.7248,-7.7273,-7.7273,-7.7273,-7.731,-7.7248,-7.7217,-7.7217,-7.7087,-7.7024,-7.6929,-7.6929,-7.6866,-7.6801,-7.6801,-7.6801,-7.6801,-7.6801,-7.6801,-7.6801,-7.6801,-7.6801,-7.6801,-7.6801,-7.6801,-7.6801,-7.6838,-7.6902,-7.6929,-7.6929,-7.6929,-7.6929,-7.6834,-7.6801,-7.6801,-7.6801,-7.6801,-7.6769,-7.6741,-7.6708,-7.6741,-7.6838,-7.6773,-7.6773,-7.6966,-7.6929,-7.6897,-7.6801,-7.6838,-7.6692,-7.6231,-7.6,-7.6032,-7.6291,-7.6065,-7.6214,-7.6838,-7.6708,-7.6574,-7.6574,-7.6049,-7.5913,-7.6275,-7.6275,-7.6275,-7.6275,-7.6275,-7.6275,-7.6275,-7.6275,-7.6275,-7.6275,-7.6275,-7.6275,-7.6275,-7.6275,-7.6275,-7.6275,-7.6275,-7.6275,-7.6275,-7.6275,-7.6275,-7.6275,-8.2186,-8.2186,-8.2186,-8.2186,-8.2186,-8.2186,-8.2186,-8.2186,-8.2186,-8.2186,-8.2186,-8.2186,-8.2186,-8.2186,-8.2186,-8.2186,-8.2186,-8.2186,-8.2186,-8.0882,-8.0048,-7.9865,-7.9096,-7.8317,-7.7604,-7.7598,-7.7494,-7.7273,-7.7273,-7.7273,-7.7273,-7.7273,-7.7273,-7.7273,-7.7273,-7.7273,-7.7273,-7.7273,-7.7273,-7.7273,-7.7273,-7.7248,-7.7155,-7.7155,-7.7024,-7.6897,-7.6897,-7.6897,-7.6897,-7.6897,-7.6897,-7.6897,-7.6897,-7.6897,-7.6897,-7.6897,-7.6897,-7.6929,-7.7061,-7.7124,-7.7155,-7.7155,-7.7155,-7.7124,-7.6929,-7.6897,-7.6897,-7.6897,-7.6897,-7.6897,-7.6866,-7.6866,-7.6897,-7.7092,-7.6998,-7.6929,-7.7124,-7.7155,-7.7092,-7.6866,-7.7029,-7.7029,-7.6801,-7.6708,-7.6773,-7.7092,-7.6806,-7.6773,-7.7092,-7.6897,-7.6801,-7.6801,-7.6541,-7.6409,-7.6409,-7.6409,-7.6409,-7.6409,-7.6409,-7.6409,-7.6409,-7.6412,-7.6378,-7.6378,-7.6345,-7.6275,-7.6275,-7.6275,-7.6275,-7.6275,-7.6275,-7.6275,-7.6275,-7.6275,-7.6275,-7.6275,-8.2186,-8.2186,-8.2186,-8.2186,-8.2186,-8.2186,-8.2186,-8.2186,-8.2186,-8.2186,-8.2186,-8.2186,-8.2186,-8.2186,-8.2186,-8.2186,-8.2186,-8.2186,-8.2186,-8.2076,-8.1672,-8.0906,-8.0131,-7.9323,-7.8516,-7.8516,-7.8112,-7.7273,-7.7273,-7.7273,-7.7273,-7.7273,-7.7273,-7.7273,-7.7273,-7.7273,-7.7273,-7.7273,-7.7273,-7.7273,-7.7273,-7.7273,-7.731,-7.731,-7.731,-7.7243,-7.7243,-7.7243,-7.7243,-7.7243,-7.7243,-7.7243,-7.7243,-7.7243,-7.7243,-7.7243,-7.7243,-7.7248,-7.7124,-7.7186,-7.731,-7.731,-7.731,-7.7273,-7.7279,-7.7243,-7.7243,-7.7243,-7.7243,-7.7248,-7.7092,-7.7092,-7.7092,-7.7092,-7.7092,-7.7124,-7.7279,-7.731,-7.7248,-7.7092,-7.7092,-7.7029,-7.6801,-7.6769,-7.6866,-7.7092,-7.6897,-7.6866,-7.7092,-7.6897,-7.6801,-7.6801,-7.6769,-7.6769,-7.6769,-7.6769,-7.6769,-7.6769,-7.6769,-7.6769,-7.6737,-7.661,-7.6581,-7.6581,-7.6378,-7.6275,-7.6275,-7.6275,-7.6275,-7.6275,-7.6275,-7.6275,-7.6275,-7.6275,-7.6275,-7.6275,-8.2186,-8.2186,-8.2186,-8.2186,-8.2186,-8.2186,-8.2186,-8.2186,-8.2186,-8.2186,-8.2186,-8.2186,-8.2186,-8.2186,-8.2186,-8.2186,-8.2186,-8.2186,-8.2186,-8.2186,-8.1819,-8.1048,-8.0718,-7.9947,-7.8626,-7.8589,-7.8185,-7.7273,-7.7273,-7.7273,-7.7273,-7.7273,-7.7273,-7.7273,-7.7273,-7.7273,-7.7273,-7.7273,-7.7273,-7.7273,-7.7273,-7.7273,-7.7273,-7.7273,-7.7273,-7.7273,-7.7273,-7.7273,-7.7273,-7.7273,-7.7273,-7.7273,-7.7273,-7.7273,-7.7273,-7.7273,-7.7273,-7.7273,-7.7248,-7.7279,-7.7273,-7.7273,-7.7273,-7.7273,-7.7273,-7.7273,-7.7273,-7.7273,-7.7273,-7.7273,-7.7248,-7.7248,-7.7248,-7.7248,-7.7248,-7.7248,-7.7273,-7.7273,-7.7273,-7.7248,-7.7248,-7.7181,-7.7118,-7.7024,-7.7061,-7.7217,-7.7092,-7.7061,-7.7217,-7.715,-7.7087,-7.7087,-7.7087,-7.6993,-7.6801,-7.6801,-7.6801,-7.6801,-7.6801,-7.6773,-7.6676,-7.6647,-7.6548,-7.6412,-7.6309,-7.6275,-7.6275,-7.6275,-7.6275,-7.6275,-7.6275,-7.6275,-7.6275,-7.6275,-7.6275,-7.6275,-8.2186,-8.2186,-8.2186,-8.2186,-8.2186,-8.2186,-8.2186,-8.2186,-8.2186,-8.2186,-8.2186,-8.2186,-8.2186,-8.2186,-8.2186,-8.2186,-8.2186,-8.2186,-8.2186,-8.2186,-8.1929,-8.1415,-8.1379,-8.0755,-7.9396,-7.9103,-7.8552,-7.7708,-7.742,-7.7273,-7.7273,-7.7273,-7.7273,-7.7273,-7.7273,-7.7273,-7.7273,-7.7273,-7.7273,-7.7273,-7.7273,-7.7273,-7.7273,-7.7273,-7.7273,-7.7273,-7.7273,-7.7273,-7.7273,-7.7273,-7.7273,-7.7273,-7.7273,-7.7273,-7.7273,-7.7273,-7.7273,-7.7273,-7.7273,-7.7273,-7.7273,-7.7273,-7.7273,-7.7273,-7.7273,-7.7273,-7.7273,-7.7273,-7.7273,-7.7273,-7.7273,-7.7273,-7.7273,-7.7273,-7.7273,-7.7273,-7.7273,-7.7273,-7.7273,-7.7273,-7.7273,-7.7273,-7.7273,-7.7217,-7.7217,-7.7273,-7.7217,-7.7217,-7.731,-7.7273,-7.7273,-7.7273,-7.7273,-7.7181,-7.6961,-7.6961,-7.6961,-7.6961,-7.6961,-7.6934,-7.6806,-7.6773,-7.6643,-7.6442,-7.6442,-7.6409,-7.6412,-7.6412,-7.6412,-7.6412,-7.6309,-7.6275,-7.6275,-7.6275,-7.6275,-7.6275,-8.2186,-8.2186,-8.2186,-8.2186,-8.2186,-8.2186,-8.2186,-8.2186,-8.2186,-8.2186,-8.2186,-8.2186,-8.2186,-8.2186,-8.2186,-8.2186,-8.2186,-8.2186,-8.2186,-8.2186,-8.2186,-8.2186,-8.2186,-8.1819,-8.1012,-8.0204,-7.9396,-7.8589,-7.7745,-7.7273,-7.7273,-7.7273,-7.7273,-7.7273,-7.7273,-7.7273,-7.7273,-7.7273,-7.7273,-7.7273,-7.7273,-7.7273,-7.7273,-7.7273,-7.7273,-7.7273,-7.7273,-7.7273,-7.7273,-7.7273,-7.7273,-7.7273,-7.7273,-7.7273,-7.7273,-7.7273,-7.7273,-7.7273,-7.7273,-7.7273,-7.7273,-7.7273,-7.7273,-7.7273,-7.7273,-7.7273,-7.7273,-7.7273,-7.7273,-7.7273,-7.7273,-7.7273,-7.7273,-7.7273,-7.7273,-7.7273,-7.7273,-7.7273,-7.7273,-7.7273,-7.7273,-7.7273,-7.7273,-7.7273,-7.7273,-7.7273,-7.7273,-7.7273,-7.7273,-7.7273,-7.7273,-7.7273,-7.7273,-7.7273,-7.7273,-7.7273,-7.7273,-7.7273,-7.7273,-7.7273,-7.7273,-7.7155,-7.6998,-7.6801,-7.6801,-7.6741,-7.6614,-7.6614,-7.6614,-7.6581,-7.6378,-7.6275,-7.6275,-7.6275,-7.6275,-7.6275,-8.2186,-8.2186,-8.2186,-8.2186,-8.2186,-8.2186,-8.2186,-8.2186,-8.2186,-8.2186,-8.2186,-8.2186,-8.2186,-8.2186,-8.2186,-8.2186,-8.2186,-8.2186,-8.2186,-8.2186,-8.2186,-8.2186,-8.2186,-8.1819,-8.1012,-8.0204,-7.9396,-7.8589,-7.7745,-7.7273,-7.7273,-7.7273,-7.7273,-7.7273,-7.7273,-7.7273,-7.7273,-7.7273,-7.7273,-7.7273,-7.7273,-7.7273,-7.7273,-7.7273,-7.7273,-7.7273,-7.7273,-7.7273,-7.7273,-7.7273,-7.7273,-7.7273,-7.7273,-7.7273,-7.7273,-7.7273,-7.7273,-7.7273,-7.7273,-7.7273,-7.7273,-7.7273,-7.7273,-7.7273,-7.7273,-7.7273,-7.7273,-7.7273,-7.7273,-7.7273,-7.7273,-7.7273,-7.7273,-7.7273,-7.7273,-7.7273,-7.7273,-7.7273,-7.7273,-7.7273,-7.7273,-7.7273,-7.7273,-7.7273,-7.7273,-7.7273,-7.7273,-7.7273,-7.7273,-7.7273,-7.7273,-7.7273,-7.7273,-7.7273,-7.7273,-7.7273,-7.7273,-7.7273,-7.7273,-7.7279,-7.7155,-7.7124,-7.6998,-7.6801,-7.6801,-7.6769,-7.6741,-7.6741,-7.6741,-7.6705,-7.6672,-7.6639,-7.6639,-7.6545,-7.6478,-7.6478,-8.2186,-8.2186,-8.2186,-8.2186,-8.2186,-8.2186,-8.2186,-8.2186,-8.2186,-8.2186,-8.2186,-8.2186,-8.2186,-8.2186,-8.2186,-8.2186,-8.2186,-8.2186,-8.2186,-8.2186,-8.2186,-8.2186,-8.2186,-8.1966,-8.1489,-8.0351,-7.9543,-7.9066,-7.7892,-7.7273,-7.7273,-7.7273,-7.7273,-7.7273,-7.7273,-7.7273,-7.7273,-7.7273,-7.7273,-7.7273,-7.7273,-7.7273,-7.7273,-7.7273,-7.7273,-7.7273,-7.7273,-7.7273,-7.7273,-7.7273,-7.7273,-7.7273,-7.7273,-7.7273,-7.7273,-7.7273,-7.7273,-7.7273,-7.7273,-7.7273,-7.7273,-7.7273,-7.7273,-7.7273,-7.7273,-7.7273,-7.7273,-7.7273,-7.7273,-7.7273,-7.7273,-7.7273,-7.7273,-7.7273,-7.7273,-7.7273,-7.7273,-7.7273,-7.7273,-7.7273,-7.7273,-7.7273,-7.7273,-7.7273,-7.7273,-7.7273,-7.7273,-7.7273,-7.7273,-7.7273,-7.7273,-7.7273,-7.7273,-7.7273,-7.7273,-7.7273,-7.7273,-7.7273,-7.7273,-7.7279,-7.7186,-7.7186,-7.7056,-7.6897,-7.6961,-7.6961,-7.6897,-7.6897,-7.6897,-7.6897,-7.6834,-7.6801,-7.6769,-7.6708,-7.6676,-7.6643,-8.2186,-8.2186,-8.2186,-8.2186,-8.2186,-8.2186,-8.2186,-8.2186,-8.2186,-8.2186,-8.2186,-8.2186,-8.2186,-8.2186,-8.2186,-8.2186,-8.2186,-8.2186,-8.2186,-8.2186,-8.2186,-8.2186,-8.2186,-8.2186,-8.2186,-8.0608,-7.98,-7.98,-7.8112,-7.7273,-7.7273,-7.7273,-7.7273,-7.7273,-7.7273,-7.7273,-7.7273,-7.7273,-7.7273,-7.7273,-7.7273,-7.7273,-7.7273,-7.7273,-7.7273,-7.7273,-7.7273,-7.7273,-7.7273,-7.7273,-7.7273,-7.7273,-7.7273,-7.7273,-7.7273,-7.7273,-7.7273,-7.7273,-7.7273,-7.7273,-7.7273,-7.7273,-7.7273,-7.7273,-7.7273,-7.7273,-7.7273,-7.7273,-7.7273,-7.7273,-7.7273,-7.7273,-7.7273,-7.7273,-7.7273,-7.7273,-7.7273,-7.7273,-7.7273,-7.7273,-7.7273,-7.7273,-7.7273,-7.7273,-7.7273,-7.7273,-7.7273,-7.7273,-7.7273,-7.7273,-7.7273,-7.7273,-7.7273,-7.7273,-7.7273,-7.7273,-7.7273,-7.7273,-7.7273,-7.7273,-7.7273,-7.7273,-7.7248,-7.7124,-7.7248,-7.7248,-7.7124,-7.7124,-7.7124,-7.7092,-7.6897,-7.6834,-7.6834,-7.6834,-7.6834,-7.6834,-8.2186,-8.2186,-8.2186,-8.2186,-8.2186,-8.2186,-8.2186,-8.2186,-8.2186,-8.2186,-8.2186,-8.2186,-8.2186,-8.2186,-8.2186,-8.2186,-8.2186,-8.2186,-8.2186,-8.2186,-8.2186,-8.2186,-8.2186,-8.2186,-8.2186,-8.0608,-7.98,-7.98,-7.8112,-7.7273,-7.7273,-7.7273,-7.7273,-7.7273,-7.7273,-7.7273,-7.7273,-7.7273,-7.7273,-7.7273,-7.7273,-7.7273,-7.7273,-7.7273,-7.7273,-7.7273,-7.7273,-7.7273,-7.7273,-7.7273,-7.7273,-7.7273,-7.7273,-7.7273,-7.7273,-7.7273,-7.7273,-7.7273,-7.7273,-7.7273,-7.7273,-7.7273,-7.7273,-7.7273,-7.7273,-7.7273,-7.7273,-7.7273,-7.7273,-7.7273,-7.7273,-7.7273,-7.7273,-7.7273,-7.7273,-7.7273,-7.7273,-7.7273,-7.7273,-7.7273,-7.7273,-7.7273,-7.7273,-7.7273,-7.7273,-7.7273,-7.7273,-7.7273,-7.7273,-7.7273,-7.7273,-7.7273,-7.7273,-7.7273,-7.7273,-7.7273,-7.7273,-7.7273,-7.7273,-7.7273,-7.7273,-7.7273,-7.7273,-7.7279,-7.731,-7.7273,-7.7279,-7.7279,-7.7279,-7.7243,-7.7181,-7.7181,-7.7181,-7.7092,-7.7029,-7.7029,-8.2186,-8.2186,-8.2186,-8.2186,-8.2186,-8.2186,-8.2186,-8.2186,-8.2186,-8.2186,-8.2186,-8.2186,-8.2186,-8.2186,-8.2186,-8.2186,-8.2186,-8.2186,-8.2186,-8.2186,-8.2186,-8.2186,-8.2186,-8.2186,-8.2186,-8.1012,-8.0167,-7.98,-7.8112,-7.7273,-7.7273,-7.7273,-7.7273,-7.7273,-7.7273,-7.7273,-7.7273,-7.7273,-7.7273,-7.7273,-7.7273,-7.7273,-7.7273,-7.7273,-7.7273,-7.7273,-7.7273,-7.7273,-7.7273,-7.7273,-7.7273,-7.7273,-7.7273,-7.7273,-7.7273,-7.7273,-7.7273,-7.7273,-7.7273,-7.7273,-7.7273,-7.7273,-7.7273,-7.7273,-7.7273,-7.7273,-7.7273,-7.7273,-7.7273,-7.7273,-7.7273,-7.7273,-7.7273,-7.7273,-7.7273,-7.7273,-7.7273,-7.7273,-7.7273,-7.7273,-7.7273,-7.7273,-7.7273,-7.7273,-7.7273,-7.7273,-7.7273,-7.7273,-7.7273,-7.7273,-7.7273,-7.7273,-7.7273,-7.7273,-7.7273,-7.7273,-7.7273,-7.7273,-7.7273,-7.7273,-7.7273,-7.7273,-7.7273,-7.7273,-7.7273,-7.7273,-7.7273,-7.7273,-7.7273,-7.7273,-7.7273,-7.7273,-7.7273,-7.7248,-7.7217,-7.7186,-8.2186,-8.2186,-8.2186,-8.2186,-8.2186,-8.2186,-8.2186,-8.2186,-8.2186,-8.2186,-8.2186,-8.2186,-8.2186,-8.2186,-8.2186,-8.2186,-8.2186,-8.2186,-8.2186,-8.2186,-8.2186,-8.2186,-8.2186,-8.2186,-8.2186,-8.1415,-8.0608,-7.98,-7.8259,-7.742,-7.7273,-7.7273,-7.7273,-7.7273,-7.7273,-7.7273,-7.7273,-7.7273,-7.7273,-7.7273,-7.7273,-7.7273,-7.7273,-7.7273,-7.7273,-7.7273,-7.7273,-7.7273,-7.7273,-7.7273,-7.7273,-7.7273,-7.7273,-7.7273,-7.7273,-7.7273,-7.7273,-7.7273,-7.7273,-7.7273,-7.7273,-7.7273,-7.7273,-7.7273,-7.7273,-7.7273,-7.7273,-7.7273,-7.7273,-7.7273,-7.7273,-7.7273,-7.7273,-7.7273,-7.7273,-7.7273,-7.7273,-7.7273,-7.7273,-7.7273,-7.7273,-7.7273,-7.7273,-7.7273,-7.7273,-7.7273,-7.7273,-7.7273,-7.7273,-7.7273,-7.7273,-7.7273,-7.7273,-7.7273,-7.7273,-7.7273,-7.7273,-7.7273,-7.7273,-7.7273,-7.7273,-7.7273,-7.7273,-7.7273,-7.7273,-7.7273,-7.7273,-7.7273,-7.7273,-7.7273,-7.7273,-7.7273,-7.7273,-7.7273,-7.7273,-7.7273,-8.2186,-8.2186,-8.2186,-8.2186,-8.2186,-8.2186,-8.2186,-8.2186,-8.2186,-8.2186,-8.2186,-8.2186,-8.2186,-8.2186,-8.2186,-8.2186,-8.2186,-8.2186,-8.2186,-8.2186,-8.2186,-8.2186,-8.2186,-8.2186,-8.2186,-8.1415,-8.0608,-7.98,-7.8883,-7.8038,-7.7273,-7.7273,-7.7273,-7.7273,-7.7273,-7.7273,-7.7273,-7.7273,-7.7273,-7.7273,-7.7273,-7.7273,-7.7273,-7.7273,-7.7273,-7.7273,-7.7273,-7.7273,-7.7273,-7.7273,-7.7273,-7.7273,-7.7273,-7.7273,-7.7273,-7.7273,-7.7273,-7.7273,-7.7273,-7.7273,-7.7273,-7.7273,-7.7273,-7.7273,-7.7273,-7.7273,-7.7273,-7.7273,-7.7273,-7.7273,-7.7273,-7.7273,-7.7273,-7.7273,-7.7273,-7.7273,-7.7273,-7.7273,-7.7273,-7.7273,-7.7273,-7.7273,-7.7273,-7.7273,-7.7273,-7.7273,-7.7273,-7.7273,-7.7273,-7.7273,-7.7273,-7.7273,-7.7273,-7.7273,-7.7273,-7.7273,-7.7273,-7.7273,-7.7273,-7.7273,-7.7273,-7.7273,-7.7273,-7.7273,-7.7273,-7.7273,-7.7273,-7.7273,-7.7273,-7.7273,-7.7273,-7.7273,-7.7273,-7.7273,-7.7273,-7.7273,-8.2186,-8.2186,-8.2186,-8.2186,-8.2186,-8.2186,-8.2186,-8.2186,-8.2186,-8.2186,-8.2186,-8.2186,-8.2186,-8.2186,-8.2186,-8.2186,-8.2186,-8.2186,-8.2186,-8.2186,-8.2186,-8.2186,-8.2186,-8.2186,-8.2186,-8.1856,-8.1269,-8.0461,-7.9213,-7.8148,-7.7273,-7.7273,-7.7273,-7.7273,-7.7273,-7.7273,-7.7273,-7.7273,-7.7273,-7.7273,-7.7273,-7.7273,-7.7273,-7.7273,-7.7273,-7.7273,-7.7273,-7.7273,-7.7273,-7.7273,-7.7273,-7.7273,-7.7273,-7.7273,-7.7273,-7.7273,-7.7273,-7.7273,-7.7273,-7.7273,-7.7273,-7.7273,-7.7273,-7.7273,-7.7273,-7.7273,-7.7273,-7.7273,-7.7273,-7.7273,-7.7273,-7.7273,-7.7273,-7.7273,-7.7273,-7.7273,-7.7273,-7.7273,-7.7273,-7.7273,-7.7273,-7.7273,-7.7273,-7.7273,-7.7273,-7.7273,-7.7273,-7.7273,-7.7273,-7.7273,-7.7273,-7.7273,-7.7273,-7.7273,-7.7273,-7.7273,-7.7273,-7.7273,-7.7273,-7.7273,-7.7273,-7.7273,-7.7273,-7.7273,-7.7273,-7.7273,-7.7273,-7.7273,-7.7273,-7.7273,-7.7273,-7.7273,-7.7273,-7.7273,-7.7273,-7.7273]},{"header":{"parameterUnit":"m.s-1","parameterCategory":1,"la1":30.6,"la2":28.766,"lo1":-90.7593,"lo2":-88.6598,"dx":0.0162,"dy":0.0183,"nx":116,"ny":114,"refTime":"2022-12-09T18:00:00:Z","depth":0,"parameterNumber":3,"parameterNumberName":"V-component_of_WINDS"},"data":[0.0,0.0,0.0,0.0,0.0,0.0,0.0,0.0,0.0,0.0,0.0,0.0,0.0,0.0,0.0,0.0,0.0,0.0,0.0,0.0,0.0,0.0,0.0,0.0,0.0,0.0,0.0,0.0,0.0,0.0,0.0,0.0,0.0,0.0,0.0,0.0,0.0,0.0,0.0,0.0,0.0,0.0,0.0,0.0,0.0,0.0,0.0,0.0,0.0,0.0,0.0,0.0,0.0,0.0,0.0,0.0,0.0,0.0,0.0,0.0,0.0,0.0,0.0,0.0,0.0,0.0,0.0,0.0,0.0,0.0,0.0,0.0,0.0,0.0,0.0,0.0,0.0,0.0,0.0,0.0,0.0,0.0,0.0,0.0,0.0,0.0,0.0,0.0,0.0,0.0,0.0,0.0,0.0,0.0,0.0,0.0,0.0,0.0,0.0,0.0,0.0,0.0,0.0,0.0,0.0,0.0,0.0,0.0,0.0,0.0,0.0,0.0,0.0,0.0,0.0,0.0,0.0,0.0,0.0,0.0,0.0,0.0,0.0,0.0,0.0,0.0,0.0,0.0,0.0,0.0,0.0,0.0,0.0,0.0,0.0,0.0,0.0,0.0,0.0,0.0,0.0,0.0,0.0,0.0,0.0,0.0,0.0,0.0,0.0,0.0,0.0,0.0,0.0,0.0,0.0,0.0,0.0,0.0,0.0,0.0,0.0,0.0,0.0,0.0,0.0,0.0,0.0,0.0,0.0,0.0,0.0,0.0,0.0,0.0,0.0,0.0,0.0,0.0,0.0,0.0,0.0,0.0,0.0,0.0,0.0,0.0,0.0,0.0,0.0,0.0,0.0,0.0,0.0,0.0,0.0,0.0,0.0,0.0,0.0,0.0,0.0,0.0,0.0,0.0,0.0,0.0,0.0,0.0,0.0,0.0,0.0,0.0,0.0,0.0,0.0,0.0,0.0,0.0,0.0,0.0,0.0,0.0,0.0,0.0,0.0,0.0,0.0,0.0,0.0,0.0,0.0,0.0,0.0,0.0,0.0,0.0,0.0,0.0,0.0,0.0,0.0,0.0,0.0,0.0,0.0,0.0,0.0,0.0,0.0,0.0,0.0,0.0,0.0,0.0,0.0,0.0,0.0,0.0,0.0,0.0,0.0,0.0,0.0,0.0,0.0,0.0,0.0,0.0,0.0,0.0,0.0,0.0,0.0,0.0,0.0,0.0,0.0,0.0,0.0,0.0,0.0,0.0,0.0,0.0,0.0,0.0,0.0,0.0,0.0,0.0,0.0,0.0,0.0,0.0,0.0,0.0,0.0,0.0,0.0,0.0,0.0,0.0,0.0,0.0,0.0,0.0,0.0,0.0,0.0,0.0,0.0,0.0,0.0,0.0,0.0,0.0,0.0,0.0,0.0,0.0,0.0,0.0,0.0,0.0,0.0,0.0,0.0,0.0,0.0,0.0,0.0,0.0,0.0,0.0,0.0,0.0,0.0,0.0,0.0,0.0,0.0,0.0,0.0,0.0,0.0,0.0,0.0,0.0,0.0,0.0,0.0,0.0,0.0,0.0,0.0,0.0,0.0,0.0,0.0,0.0,0.0,0.0,0.0,0.0,0.0,0.0,0.0,0.0,0.0,0.0,0.0,0.0,0.0,0.0,0.0,0.0,0.0,0.0,0.0,0.0,0.0,0.0,0.0,0.0,0.0,0.0,0.0,0.0,0.0,0.0,0.0,0.0,0.0,0.0,0.0,0.0,0.0,0.0,0.0,0.0,0.0,0.0,0.0,0.0,0.0,0.0,0.0,0.0,0.0,0.0,0.0,0.0,0.0,0.0,0.0,0.0,0.0,0.0,0.0,0.0,0.0,0.0,0.0,0.0,0.0,0.0,0.0,0.0,0.0,0.0,0.0,0.0,0.0,0.0,0.0,0.0,0.0,0.0,0.0,0.0,0.0,0.0,0.0,0.0,0.0,0.0,0.0,0.0,0.0,0.0,0.0,0.0,0.0,0.0,0.0,0.0,0.0,0.0,0.0,0.0,0.0,0.0,0.0,0.0,0.0,0.0,0.0,0.0,0.0,0.0,0.0,0.0,0.0,0.0,0.0,0.0,0.0,0.0,0.0,0.0,0.0,0.0,0.0,0.0,0.0,0.0,0.0,0.0,0.0,0.0,0.0,0.0,0.0,0.0,0.0,0.0,0.0,0.0,0.0,0.0,0.0,0.0,0.0,0.0,0.0,0.0,0.0,0.0,0.0,0.0,0.0,0.0,0.0,0.0,0.0,0.0,0.0,0.0,0.0,0.0,0.0,0.0,0.0,0.0,0.0,0.0,0.0,0.0,0.0,0.0,0.0,0.0,0.0,0.0,0.0,0.0,0.0,0.0,0.0,0.0,0.0,0.0,0.0,0.0,0.0,0.0,0.0,0.0,0.0,0.0,0.0,0.0,0.0,0.0,0.0,0.0,0.0,0.0,0.0,0.0,0.0,0.0,0.0,0.0,0.0,0.0,0.0,0.0,0.0,0.0,0.0,0.0,0.0,0.0,0.0,0.0,0.0,0.0,0.0,0.0,0.0,0.0,0.0,0.0,0.0,0.0,0.0,0.0,0.0,0.0,0.0,0.0,0.0,0.0,0.0,0.0,0.0,0.0,0.0,0.0,0.0,0.0,0.0,0.0,0.0,0.0,0.0,0.0,0.0,0.0,0.0,0.0,0.0,0.0,0.0,0.0,0.0,0.0,0.0,0.0,0.0,0.0,0.0,0.0,0.0,0.0,0.0,0.0,0.0,0.0,0.0,0.0,0.0,0.0,0.0,0.0,0.0,0.0,0.0,0.0,0.0,0.0,0.0,0.0,0.0,0.0,0.0,0.0,0.0,0.0,0.0,0.0,0.0,0.0,0.0,0.0,0.0,0.0,0.0,0.0,0.0,0.0,0.0,0.0,0.0,0.0,0.0,0.0,0.0,0.0,0.0,0.0,0.0,0.0,0.0,0.0,0.0,0.0,0.0,0.0,0.0,0.0,0.0,0.0,0.0,0.0,0.0,0.0,0.0,0.0,0.0,0.0,0.0,0.0,0.0,0.0,0.0,0.0,0.0,0.0,0.0,0.0,0.0,0.0,0.0,0.0,0.0,0.0,0.0,0.0,0.0,0.0,0.0,0.0,0.0,0.0,0.0,0.0,0.0,0.0,0.0,0.0,0.0,0.0,0.0,0.0,0.0,0.0,0.0,0.0,0.0,0.0,0.0,0.0,0.0,0.0,0.0,0.0,0.0,0.0,0.0,0.0,0.0,0.0,0.0,0.0,0.0,0.0,0.0,0.0,0.0,0.0,0.0,0.0,0.0,0.0,0.0,0.0,0.0,0.0,0.0,0.0,0.0,0.0,0.0,0.0,0.0,0.0,0.0,0.0,0.0,0.0,0.0,0.0,0.0,0.0,0.0,0.0,0.0,0.0,0.0,0.0,0.0,0.0,0.0,0.0,0.0,0.0,0.0,0.0,0.0,0.0,0.0,0.0,0.0,0.0,0.0,0.0,0.0,0.0,0.0,0.0,0.0,0.0,0.0,0.0,0.0,0.0,0.0,0.0,0.0,0.0,0.0,0.0,0.0,0.0,0.0,0.0,0.0,0.0,0.0,0.0,0.0,0.0,0.0,0.0,0.0,0.0,0.0,0.0,0.0,0.0,0.0,0.0,0.0,0.0,0.0,0.0,0.0,0.0,0.0,0.0,0.0,0.0,0.0,0.0,0.0,0.0,0.0,0.0,0.0,0.0,0.0,0.0,0.0,0.0,0.0,0.0,0.0,0.0,0.0,0.0,0.0,0.0,0.0,0.0,0.0,0.0,0.0,0.0,0.0,0.0,0.0,0.0,0.0,0.0,0.0,0.0,0.0,0.0,0.0,0.0,0.0,0.0,0.0,0.0,0.0,0.0,0.0,0.0,0.0,0.0,0.0,0.0,0.0,0.0,0.0,0.0,0.0,0.0,0.0,0.0,0.0,0.0,0.0,0.0,0.0,0.0,0.0,0.0,0.0,0.0,0.0,0.0,0.0,0.0,0.0,0.0,0.0,0.0,0.0,0.0,0.0,0.0,0.0,0.0,0.0,0.0,0.0,0.0,0.0,0.0,0.0,0.0,0.0,0.0,0.0,0.0,0.0,0.0,0.0,0.0,0.0,0.0,0.0,0.0,0.0,0.0,0.0,0.0,0.0,0.0,0.0,0.0,0.0,0.0,0.0,0.0,0.0,0.0,0.0,0.0,0.0,0.0,0.0,0.0,0.0,0.0,0.0,0.0,0.0,0.0,0.0,0.0,0.0,0.0,0.0,0.0,0.0,0.0,0.0,0.0,0.0,0.0,0.0,0.0,0.0,0.0,0.0,0.0,0.0,0.0,0.0,0.0,0.0,0.0,0.0,0.0,0.0,0.0,0.0,0.0,0.0,0.0,0.0,0.0,0.0,0.0,0.0,0.0,0.0,0.0,0.0,0.0,0.0,0.0,0.0,0.0,0.0,0.0,0.0,0.0,0.0,0.0,0.0,0.0,0.0,0.0,0.0,0.0,0.0,0.0,0.0,0.0,0.0,0.0,0.0,0.0,0.0,0.0,0.0,0.0,0.0,0.0,0.0,0.0,0.0,0.0,0.0,0.0,0.0,0.0,0.0,0.0,0.0,0.0,0.0,0.0,0.0,0.0,0.0,0.0,0.0,0.0,0.0,0.0,0.0,0.0,0.0,0.0,0.0,0.0,0.0,0.0,0.0,0.0,0.0,0.0,0.0,0.0,0.0,0.0,0.0,0.0,0.0,0.0,0.0,0.0,0.0,0.0,0.0,0.0,0.0,0.0,0.0,0.0,0.0,0.0,0.0,0.0,0.0,0.0,0.0,0.0,0.0,0.0,0.0,0.0,0.0,0.0,0.0,0.0,0.0,0.0,0.0,0.0,0.0,0.0,0.0,0.0,0.0,0.0,0.0,0.0,0.0,0.0,0.0,0.0,0.0,0.0,0.0,0.0,0.0,0.0,0.0,0.0,0.0,0.0,0.0,0.0,0.0,0.0,0.0,0.0,0.0,0.0,0.0,0.0,0.0,0.0,0.0,0.0,0.0,0.0,0.0,0.0,0.0,0.0,0.0,0.0,0.0,0.0,0.0,0.0,0.0,0.0,0.0,0.0,0.0,0.0,0.0,0.0,0.0,0.0,0.0,0.0,0.0,0.0,0.0,0.0,0.0,0.0,0.0,0.0,0.0,0.0,0.0,0.0,0.0,0.0,0.0,0.0,0.0,0.0,0.0,0.0,0.0,0.0,0.0,0.0,0.0,0.0,0.0,0.0,0.0,0.0,0.0,0.0,0.0,0.0,0.0,0.0,0.0,0.0,0.0,0.0,0.0,0.0,0.0,0.0,0.0,0.0,0.0,0.0,0.0,0.0,0.0,0.0,0.0,0.0,0.0,0.0,0.0,0.0,0.0,0.0,0.0,0.0,0.0,0.0,0.0,0.0,0.0,0.0,0.0,0.0,0.0,0.0,0.0,0.0,0.0,0.0,0.0,0.0,0.0,0.0,0.0,0.0,0.0,0.0,0.0,0.0,0.0,0.0,0.0,0.0,0.0,0.0,0.0,0.0,0.0,0.0,0.0,0.0,0.0,0.0,0.0,0.0,0.0,0.0,0.0,0.0,0.0,0.0,0.0,0.0,0.0,0.0,0.0,0.0,0.0,0.0,0.0,0.0,0.0,0.0,0.0,0.0,0.0,0.0,0.0,0.0,0.0,0.0,0.0,0.0,0.0,0.0,0.0,0.0,0.0,0.0,0.0,0.0,0.0,0.0,0.0,0.0,0.0,0.0,0.0,0.0,0.0,0.0,0.0,0.0,0.0,0.0,0.0,0.0,0.0,0.0,0.0,0.0,0.0,0.0,0.0,0.0,0.0,0.0,0.0,0.0,0.0,0.0,0.0,0.0,0.0,0.0,0.0,0.0,0.0,0.0,0.0,0.0,0.0,0.0,0.0,0.0,0.0,0.0,0.0,0.0,0.0,0.0,0.0,0.0,0.0,0.0,0.0,0.0,0.0,0.0,0.0,0.0,0.0,0.0,0.0,0.0,0.0,0.0,3.4304,3.4073,0.0,0.0,0.0,0.0,0.0,0.0,0.0,0.0,0.0,0.0,0.0,0.0,0.0,0.0,0.0,0.0,0.0,0.0,0.0,0.0,0.0,0.0,0.0,0.0,0.0,0.0,0.0,0.0,0.0,0.0,0.0,0.0,0.0,0.0,0.0,0.0,2.1074,2.1504,2.1953,2.248,2.3086,2.3128,2.2469,2.1251,0.0,0.0,0.0,0.0,0.0,0.0,0.0,0.0,0.0,0.0,0.0,0.0,0.0,0.0,0.0,0.0,0.0,0.0,0.0,0.0,0.0,0.0,0.0,0.0,0.0,0.0,0.0,0.0,0.0,0.0,0.0,0.0,0.0,0.0,0.0,0.0,0.0,0.0,0.0,0.0,0.0,0.0,0.0,0.0,0.0,0.0,0.0,0.0,0.0,0.0,0.0,0.0,0.0,0.0,0.0,0.0,0.0,0.0,0.0,0.0,0.0,0.0,0.0,0.0,0.0,0.0,0.0,0.0,0.0,0.0,3.5027,3.4474,0.0,0.0,0.0,0.0,0.0,0.0,0.0,0.0,0.0,0.0,0.0,0.0,0.0,0.0,0.0,0.0,0.0,0.0,0.0,0.0,0.0,0.0,0.0,2.1133,2.1504,2.1855,2.1894,2.1738,0.0,0.0,0.0,0.0,0.0,0.0,2.0938,2.1699,2.2305,2.2734,2.3286,2.3887,2.4648,2.5589,2.4755,2.2559,2.2754,0.0,0.0,0.0,0.0,0.0,0.0,0.0,0.0,0.0,0.0,0.0,0.0,0.0,0.0,0.0,0.0,0.0,0.0,0.0,0.0,0.0,0.0,0.0,0.0,0.0,0.0,0.0,0.0,0.0,0.0,0.0,0.0,0.0,0.0,0.0,0.0,0.0,0.0,0.0,0.0,0.0,0.0,0.0,0.0,0.0,0.0,0.0,0.0,0.0,0.0,0.0,0.0,0.0,0.0,0.0,0.0,0.0,0.0,0.0,0.0,0.0,0.0,0.0,3.7563,3.8015,3.8015,3.8015,3.8015,3.7889,3.5604,3.4876,3.5253,3.46,0.0,0.0,0.0,0.0,0.0,0.0,0.0,0.0,0.0,0.0,0.0,0.0,0.0,0.0,0.0,0.0,0.0,0.0,0.0,0.0,0.0,2.1758,2.1816,2.1875,2.1894,2.1855,2.1797,0.0,0.0,0.0,0.0,2.1875,2.2246,2.2691,2.3184,2.3613,2.448,2.5078,2.5518,2.6084,2.5947,2.5148,2.4446,2.4808,2.585,0.0,0.0,0.0,0.0,0.0,0.0,0.0,0.0,0.0,0.0,0.0,0.0,0.0,0.0,0.0,0.0,0.0,0.0,0.0,0.0,0.0,0.0,0.0,0.0,0.0,0.0,0.0,0.0,0.0,0.0,0.0,0.0,0.0,0.0,0.0,0.0,0.0,0.0,0.0,0.0,0.0,3.3068,3.3621,0.0,0.0,0.0,0.0,0.0,0.0,0.0,0.0,0.0,0.0,0.0,0.0,0.0,3.583,3.686,3.7487,3.7789,3.7789,3.7939,3.8015,3.8015,3.8015,3.8015,3.799,3.7613,0.0,3.7487,3.6458,0.0,0.0,0.0,0.0,0.0,0.0,0.0,0.0,0.0,0.0,0.0,0.0,0.0,0.0,0.0,0.0,0.0,0.0,0.0,0.0,0.0,2.2441,2.2695,2.293,2.3164,2.3301,2.3301,2.3086,0.0,0.0,2.2949,2.3047,2.3223,2.3633,2.4153,2.4883,2.6543,2.7152,2.6836,2.7841,2.8248,2.8127,2.6804,2.6335,2.6391,2.6112,0.0,0.0,0.0,0.0,0.0,0.0,0.0,0.0,0.0,0.0,0.0,0.0,0.0,0.0,0.0,0.0,0.0,0.0,0.0,0.0,0.0,0.0,0.0,0.0,0.0,0.0,0.0,0.0,0.0,0.0,0.0,0.0,0.0,0.0,0.0,0.0,0.0,0.0,0.0,3.337,3.3746,3.4299,3.4349,3.4449,0.0,0.0,0.0,0.0,0.0,0.0,0.0,0.0,0.0,3.6837,3.6634,3.686,3.7638,3.8216,3.8492,3.8492,3.8793,3.8944,3.8944,3.8944,3.8944,3.8944,3.8944,3.8944,3.8843,3.7412,3.7059,3.7211,0.0,0.0,0.0,0.0,3.6358,3.6107,0.0,0.0,0.0,0.0,0.0,0.0,0.0,0.0,0.0,0.0,0.0,0.0,2.2773,2.3125,2.3477,2.3906,2.4238,2.4414,2.4414,2.4121,2.3945,2.3945,2.3945,2.4062,2.4277,2.4922,2.5625,2.6387,2.8144,2.8745,2.8217,2.926,2.9827,2.9946,2.9006,2.8178,2.7579,2.7979,2.8075,2.7953,0.0,0.0,0.0,0.0,0.0,0.0,0.0,0.0,0.0,0.0,0.0,0.0,0.0,0.0,0.0,0.0,0.0,0.0,0.0,0.0,0.0,0.0,0.0,0.0,0.0,0.0,0.0,0.0,0.0,0.0,0.0,0.0,0.0,0.0,0.0,0.0,0.0,3.4022,3.4299,3.4831,3.5031,3.5203,0.0,0.0,0.0,0.0,0.0,0.0,3.6606,3.6757,3.7161,3.799,3.7739,3.7889,3.8442,3.9019,3.9371,3.9496,3.9923,4.0124,4.0124,4.0124,4.0124,4.0124,4.0124,4.0124,3.9998,3.8316,3.7864,3.8165,3.7613,3.7638,3.8015,3.8015,3.7739,3.7387,0.0,0.0,0.0,0.0,0.0,0.0,0.0,0.0,0.0,0.0,0.0,2.2793,2.3633,2.375,2.3926,2.4355,2.4414,2.4414,2.4414,2.4394,2.4375,2.4375,2.4375,2.4785,2.5577,2.6855,2.7715,2.8164,2.8687,2.9117,2.9528,2.9603,2.9623,2.9659,3.0594,3.0863,3.0547,2.8781,2.8201,2.8462,2.856,0.0,0.0,0.0,0.0,0.0,0.0,0.0,0.0,0.0,0.0,0.0,0.0,0.0,0.0,0.0,0.0,0.0,0.0,0.0,0.0,0.0,0.0,0.0,0.0,0.0,0.0,0.0,0.0,0.0,0.0,0.0,0.0,0.0,0.0,0.0,0.0,0.0,0.0,3.5382,3.5981,0.0,0.0,0.0,0.0,3.7086,3.7563,3.7663,3.7161,3.7638,3.7939,3.8015,3.8517,3.9044,3.9597,4.0149,4.0701,4.1175,4.12,4.12,4.12,4.12,4.12,4.12,4.12,4.12,4.1075,3.9471,3.8844,3.8818,3.8191,3.799,3.8015,3.8015,3.799,3.7965,0.0,0.0,0.0,0.0,0.0,2.0796,2.1171,2.1658,2.2168,2.248,2.2988,2.3457,2.375,2.4277,2.4785,2.5187,2.5527,2.5801,2.6074,2.6094,2.6094,2.6094,2.6094,2.6367,2.6973,2.7695,2.8281,2.8691,3.0148,3.0959,3.1177,3.219,3.3095,3.3813,3.2335,3.2078,3.2643,3.0939,3.0565,3.1004,2.9578,2.9419,0.0,0.0,0.0,0.0,0.0,0.0,0.0,0.0,0.0,0.0,0.0,0.0,0.0,0.0,0.0,0.0,0.0,0.0,0.0,0.0,0.0,0.0,0.0,0.0,0.0,0.0,0.0,0.0,0.0,0.0,0.0,0.0,0.0,0.0,0.0,0.0,0.0,3.6533,3.7086,0.0,3.7688,3.7889,3.7914,3.7739,3.7889,3.809,3.8266,3.8793,3.9245,3.9622,4.0174,4.0551,4.0752,4.0953,4.11,4.1275,4.1275,4.1275,4.1275,4.1275,4.1275,4.1275,4.1275,4.1275,4.125,4.0701,4.045,4.045,4.0224,4.0097,4.0097,4.0097,4.0097,4.0097,0.0,0.0,0.0,1.9938,2.0442,2.1009,2.1385,2.2051,2.2617,2.291,2.3437,2.3965,2.4394,2.4961,2.5527,2.6064,2.6426,2.6719,2.6992,2.7012,2.7012,2.7012,2.7285,2.7578,2.7924,2.8985,2.9501,2.9355,3.1279,3.204,3.1645,3.2746,3.3832,3.4947,3.2615,3.2525,3.3879,3.1859,3.105,3.1096,3.0708,3.0675,3.0714,0.0,0.0,0.0,0.0,0.0,0.0,0.0,0.0,0.0,0.0,0.0,0.0,0.0,0.0,0.0,0.0,0.0,0.0,0.0,0.0,0.0,0.0,0.0,0.0,0.0,0.0,0.0,0.0,0.0,0.0,0.0,0.0,0.0,0.0,3.6282,3.6883,3.7387,3.7965,3.8291,3.8291,3.8467,3.8642,3.8843,3.8843,3.9094,3.9672,4.0049,4.0425,4.0777,4.11,4.1376,4.1605,4.1605,4.1706,4.1882,4.199,4.1936,4.1907,4.2192,4.2238,4.2128,4.2304,4.2404,4.2404,4.2404,4.2404,4.2329,4.1576,4.1275,4.1275,4.1275,4.1275,4.1354,0.0,0.0,2.0189,1.9976,2.048,2.1144,2.1836,2.2266,2.2832,2.3672,2.3809,2.4297,2.5538,2.5693,2.6044,2.6973,2.7031,2.7031,2.7051,2.7051,2.707,2.707,2.7871,2.834,2.8359,3.0695,3.1365,3.0215,3.1889,3.2133,3.0957,3.0995,3.1614,3.2685,3.1518,3.2227,3.4202,3.1455,2.9548,2.866,3.179,3.1622,2.9427,0.0,0.0,0.0,0.0,0.0,0.0,0.0,0.0,0.0,0.0,0.0,0.0,0.0,0.0,0.0,0.0,0.0,0.0,0.0,0.0,0.0,0.0,0.0,0.0,0.0,0.0,0.0,0.0,0.0,0.0,0.0,0.0,0.0,3.643,3.6885,3.7437,3.7965,3.8542,3.8944,3.8969,3.9396,3.9948,4.0501,4.0551,4.0777,4.125,4.13,4.13,4.13,4.1326,4.1656,4.2263,4.2263,4.2539,4.3037,4.329,4.329,4.3118,4.3928,4.4181,4.3865,4.4392,4.4618,4.4618,4.4618,4.4618,4.4418,4.2283,4.1376,4.1376,4.1376,4.1401,4.1455,2.0497,2.0827,2.1006,2.0866,2.14,2.1955,2.2282,2.2695,2.312,2.3711,2.4062,2.4629,2.5577,2.6016,2.6562,2.7422,2.748,2.7617,2.793,2.7949,2.8066,2.8379,2.8926,2.9355,2.9668,3.0339,3.0695,3.0703,3.2072,3.2514,3.2248,3.3063,3.3607,3.3888,3.3607,3.3346,3.3176,3.3254,3.1896,2.9757,3.0325,3.1222,3.2026,0.0,0.0,0.0,0.0,0.0,0.0,0.0,0.0,0.0,0.0,0.0,0.0,0.0,0.0,0.0,0.0,0.0,0.0,0.0,0.0,0.0,0.0,0.0,0.0,0.0,0.0,0.0,0.0,0.0,0.0,0.0,3.6935,3.7412,3.701,3.7838,3.8467,3.8617,3.912,3.9622,4.0023,4.0199,4.0526,4.1025,4.1075,4.1125,4.1275,4.1706,4.1932,4.1932,4.2308,4.2785,4.3338,4.3338,4.3639,4.4166,4.4224,4.4224,4.4192,4.4687,4.482,4.4763,4.5145,4.5336,4.5336,4.5336,4.5336,4.5228,4.4137,4.3658,4.3658,4.3658,4.3828,4.4136,2.1051,2.1256,2.1299,2.1081,2.1594,2.2093,2.2349,2.2853,2.3421,2.4004,2.4434,2.5098,2.6103,2.6504,2.6992,2.7851,2.793,2.8027,2.8281,2.8457,2.875,2.918,2.9609,2.9941,3.0195,3.0886,3.1124,3.0898,3.2133,3.2457,3.196,3.2607,3.3176,3.3685,3.3685,3.3572,3.3402,3.3628,3.3008,3.1851,3.0631,3.1326,3.2971,3.1632,3.1903,3.2863,3.2239,3.2095,3.2147,3.173,0.0,0.0,0.0,0.0,0.0,0.0,0.0,0.0,0.0,0.0,0.0,0.0,0.0,0.0,0.0,0.0,0.0,0.0,0.0,0.0,0.0,0.0,0.0,0.0,3.7789,3.8266,3.7939,3.8467,3.9095,3.9496,3.9848,4.0249,4.0802,4.0852,4.1103,4.163,4.1681,4.1781,4.2007,4.2534,4.2836,4.2836,4.3388,4.3815,4.4141,4.4141,4.4292,4.4618,4.4734,4.4792,4.4817,4.5392,4.5635,4.5693,4.6097,4.6257,4.6257,4.6257,4.6257,4.6206,0.0,0.0,0.0,0.0,4.5164,4.5336,2.1062,2.1225,2.1349,2.1001,2.1433,2.1954,2.227,2.2948,2.3673,2.4387,2.4824,2.5566,2.6875,2.7012,2.7363,2.8223,2.8301,2.832,2.8359,2.8809,2.9238,2.9629,3.0059,3.0273,3.0273,3.1738,3.196,3.0898,3.196,3.196,3.0898,3.0898,3.146,3.2514,3.2628,3.3176,3.3944,3.3233,3.3346,3.3832,3.1903,3.181,3.2705,3.1292,3.2369,3.4409,3.3123,3.3068,3.3657,3.3931,0.0,0.0,0.0,0.0,0.0,0.0,0.0,0.0,0.0,0.0,0.0,0.0,0.0,0.0,0.0,0.0,0.0,0.0,0.0,0.0,0.0,0.0,0.0,0.0,3.8592,3.8994,3.9095,3.9069,3.9421,4.04,4.0576,4.0827,4.1326,4.1376,4.1656,4.2263,4.2363,4.2615,4.3037,4.3589,0.0,0.0,0.0,4.4644,4.4719,4.4719,4.4744,4.4819,4.511,4.5226,4.5251,4.6108,4.6488,4.6539,4.7059,4.7324,4.7324,4.7324,4.7324,4.7221,4.6187,4.5745,4.5745,4.5802,4.5828,4.5859,2.029,2.1114,2.1692,2.182,2.1963,2.2309,2.3032,2.3313,2.3789,2.4844,2.5067,2.5566,2.6875,2.7012,2.7363,2.8223,2.8301,2.8437,2.8769,2.9512,2.998,3.0078,3.0508,3.0762,3.0762,3.1073,3.1112,3.0898,3.1112,3.1112,3.0898,3.0898,3.0995,3.1286,3.2305,3.2285,3.1672,3.3346,3.3119,3.1614,3.2133,3.2277,3.2183,3.1801,3.2341,3.3369,3.3513,3.3711,3.3908,3.3961,3.3748,3.3493,3.394,3.4299,0.0,0.0,0.0,0.0,0.0,0.0,0.0,0.0,0.0,0.0,0.0,0.0,0.0,0.0,0.0,0.0,0.0,0.0,0.0,3.8592,3.917,3.9697,4.0149,4.0199,4.0275,4.0501,4.0849,4.1404,4.1957,4.2062,4.2233,4.2785,4.3237,4.3539,4.3639,4.4166,4.4468,4.4468,4.4568,4.4844,4.5321,4.5321,4.5547,4.5974,4.6034,0.0,4.6119,4.6764,4.7052,4.7052,4.771,4.7997,4.7997,4.7997,4.7997,4.7912,4.7151,4.6872,4.6957,4.7191,4.7308,4.7308,1.9471,2.0348,2.1177,2.1776,2.1909,2.2147,2.2945,2.3237,2.3736,2.4763,2.5082,2.5577,2.6602,2.6894,2.7285,2.793,2.8359,2.8789,2.9219,2.9844,3.0293,3.0527,3.0762,3.0898,3.0898,3.0898,3.0898,3.0898,3.0898,3.0898,3.0898,3.0898,3.0898,3.1015,3.2742,3.2913,3.1903,3.3663,3.3719,3.2664,3.2685,3.2916,3.3168,3.2857,3.3714,3.512,3.5077,3.5141,3.5233,3.5502,3.5252,3.4903,3.5415,3.5353,3.5082,0.0,0.0,0.0,0.0,0.0,0.0,0.0,0.0,0.0,0.0,0.0,0.0,0.0,0.0,3.6709,3.7814,0.0,3.8718,3.9546,3.9923,4.03,4.0799,4.1153,4.1329,4.1329,4.158,4.1957,4.2564,4.2615,4.2785,4.3338,4.3639,4.3915,4.4192,4.4744,4.5045,4.5045,4.5321,4.5598,4.5899,4.5899,4.6024,4.6301,4.6301,4.6386,4.6541,4.6993,4.7265,4.7501,4.7997,4.8172,4.8172,4.8172,4.8172,4.8198,4.7821,4.7703,4.7703,4.788,4.7938,4.7997,1.8956,1.9635,2.052,2.1526,2.176,2.2033,2.2712,2.315,2.372,2.4632,2.5073,2.5555,2.6248,2.6649,2.7109,2.7669,2.8437,2.9101,2.9607,2.9961,3.041,3.0859,3.0898,3.0898,3.0898,3.0898,3.0898,3.0898,3.0898,3.0898,3.0898,3.0898,3.0898,3.0995,3.2892,3.3233,3.2399,3.3572,3.4056,3.4,3.3289,3.3741,3.4681,3.4263,3.5321,3.6963,3.6506,3.6422,3.6582,3.7016,3.6824,3.6456,3.6819,3.636,3.5658,3.5658,3.5378,0.0,0.0,0.0,0.0,0.0,0.0,0.0,0.0,3.7036,3.7487,3.8065,3.8165,3.8341,3.8919,3.912,3.9471,4.0375,4.0601,4.0877,4.143,4.1882,4.2263,4.2363,4.2363,4.259,4.3087,4.3137,4.3363,4.3915,4.4066,4.4317,4.4769,4.5321,4.5648,4.5648,4.6075,4.6301,4.6301,4.6301,4.6301,4.6301,4.6301,4.6446,4.6746,4.6993,4.7265,4.7645,4.7997,4.8172,4.8172,4.8172,4.8172,4.8172,4.8172,4.8172,4.8172,4.8172,4.8172,4.8172,1.9314,1.9798,2.0272,2.1482,2.198,2.2437,2.3122,2.3578,2.4055,2.476,2.5099,2.5506,2.5979,2.6326,2.6777,2.765,2.8437,2.9101,2.9607,2.9961,3.041,3.0859,3.0898,3.0898,3.0898,3.0898,3.0898,3.0898,3.0898,3.0898,3.0898,3.0898,3.0898,3.0898,3.117,3.1228,3.117,3.2399,3.2913,3.297,3.3832,3.4947,3.6013,3.5945,3.6085,3.6302,3.6256,3.6596,3.7087,3.6911,3.6675,3.6382,3.6203,3.6193,3.6329,3.6329,3.6279,3.6329,3.6784,3.7262,3.7638,3.7638,3.7688,3.7764,0.0,3.7864,3.809,3.8668,3.8768,3.8994,3.9496,3.9998,4.0375,4.0501,4.0874,4.143,4.2037,4.2162,4.2389,4.2836,4.2886,4.3112,4.3664,4.3714,4.394,4.4493,4.502,4.5321,4.5397,4.5924,4.6225,4.6225,4.6276,4.6301,4.6301,4.6301,4.6301,4.6301,4.6301,4.6301,4.6386,4.6686,4.7019,4.7265,4.7938,4.8172,4.8172,4.8172,4.8172,4.8172,4.8172,4.8172,4.8172,4.8172,4.8172,4.8172,1.9568,2.0248,2.1047,2.2224,2.2529,2.2832,2.3312,2.3581,2.3936,2.459,2.4775,2.5047,2.5534,2.6082,2.6738,2.765,2.8203,2.873,2.916,2.9824,3.0293,3.0488,3.0742,3.0898,3.0898,3.0898,3.0898,3.0898,3.0898,3.0898,3.0898,3.0898,3.0898,3.0957,3.1614,3.1556,3.1015,3.219,3.2685,3.2742,3.3233,3.4525,3.6177,3.6177,3.6611,3.7281,3.7281,3.7405,0.0,3.737,3.6988,3.6602,3.6479,3.6547,3.6643,3.6835,3.7061,3.7362,3.7588,3.7839,3.8015,3.8015,3.8015,3.809,3.8442,3.8517,3.8668,3.922,3.9597,3.9898,4.0124,4.0626,4.1103,4.143,4.1656,4.2007,4.2615,4.2911,4.3187,4.3438,4.374,4.389,4.3815,4.4091,4.4518,4.507,4.5347,4.5623,4.5949,4.6175,4.6301,4.6301,4.6301,4.6301,4.6301,4.6301,4.6301,4.6301,4.6301,4.6301,4.6301,4.6686,4.7078,4.7501,4.7997,4.8172,4.8172,4.8172,4.8172,4.8172,4.8172,4.8172,4.8172,4.8172,4.8172,4.8172,1.9865,2.0704,2.1647,2.3033,2.3242,2.3297,2.3462,2.359,2.3871,2.4344,2.448,2.4677,2.5137,2.5767,2.6489,2.7162,2.7591,2.8111,2.8711,2.9336,2.9824,3.0176,3.0527,3.0762,3.0898,3.0898,3.0898,3.0898,3.0898,3.0898,3.0898,3.0898,3.0898,3.0937,3.1787,3.173,3.0957,3.1845,3.2399,3.2685,3.2685,3.3909,3.574,3.6068,3.6719,3.7548,3.7868,3.7974,3.793,3.7412,3.7081,3.6869,3.6727,3.6773,3.6969,3.7313,3.7814,3.8241,3.8241,3.8366,3.8467,3.8467,3.8467,3.8592,3.8994,3.9094,3.922,3.9622,4.0124,4.0526,4.0526,4.1078,4.1681,4.2137,4.2338,4.264,4.3137,4.3539,4.3865,4.4016,4.4518,4.4719,4.4317,4.4618,4.5095,4.5673,4.5723,4.5899,4.6276,4.6301,4.6301,4.6301,4.6301,4.6301,4.6301,4.6301,4.6301,4.6301,4.6301,4.6301,4.6301,4.6686,4.7078,4.756,4.7938,4.8114,4.8172,4.8172,4.8172,4.8172,4.8172,4.8172,4.8172,4.8172,4.8172,4.8172,2.0436,2.0896,2.1625,2.3768,2.4165,2.3987,2.3553,2.3877,2.4183,2.4202,2.4399,2.4578,2.4892,2.537,2.5736,2.6006,2.6391,2.7143,2.8262,2.834,2.8906,3.0137,3.0215,3.043,3.0879,3.0898,3.0898,3.0898,3.0898,3.0898,3.0898,3.0898,3.0898,3.0898,3.0937,3.0957,3.0898,3.0937,3.1614,3.2685,3.2685,3.3402,3.4558,3.574,3.6231,3.6394,3.7601,3.7974,3.7829,3.6771,3.679,3.7095,3.6604,3.6749,3.7287,3.7814,3.8391,3.8894,3.8894,3.922,3.9647,3.9647,3.9647,3.9647,3.9672,3.9672,3.9672,3.9697,4.0124,4.0526,4.0526,4.1404,4.2187,4.2213,4.2665,4.3137,4.3689,4.379,4.3991,4.4543,4.5121,4.5447,4.5447,4.5447,4.5698,4.625,4.6276,4.6301,4.6301,4.6301,4.6301,4.6301,4.6301,4.6301,4.6301,4.6301,4.6301,4.6301,4.6301,4.6301,4.6301,4.6686,4.6959,4.7265,4.756,4.788,4.8172,4.8172,4.8172,4.8172,4.8172,4.8172,4.8172,4.8172,4.8172,4.8172,1.9487,1.9797,2.0261,2.1743,2.2013,2.1963,2.1795,2.315,2.3954,2.3188,2.3935,0.0,0.0,0.0,0.0,0.0,2.585,2.6308,2.7143,2.7704,2.8315,2.8906,2.9473,2.998,3.043,3.043,3.0586,3.0898,3.0898,3.0898,3.0898,3.0898,3.0898,3.0898,3.0898,3.0898,3.0898,3.0898,3.1112,3.1518,3.1518,3.2227,3.3247,3.3356,3.389,3.4741,0.0,3.6559,3.7348,3.6651,3.6372,3.6405,3.6382,3.6899,3.7667,3.8793,3.927,3.9421,3.9421,3.9546,3.9697,3.9697,3.9697,3.9697,3.9697,3.9697,3.9697,3.9697,4.0124,4.0626,4.1003,4.1656,4.2338,4.269,4.2861,4.3162,4.3714,4.4116,4.4568,4.5121,4.5698,4.6024,4.6024,4.6024,4.6125,4.6301,4.6301,4.6301,4.6301,4.6301,4.6301,4.6301,4.6301,4.6301,4.6301,4.6301,4.6301,4.6301,4.6301,4.6301,4.6301,4.6686,4.6866,4.6959,4.7231,4.7442,4.756,4.756,4.7703,4.788,4.7619,4.7821,4.8172,4.7938,4.7997,4.8172,1.8968,1.9176,1.9539,2.0672,2.0877,0.0,0.0,0.0,0.0,0.0,0.0,0.0,0.0,0.0,0.0,0.0,0.0,2.5509,2.6181,2.6872,2.7497,2.8101,2.8754,2.9375,2.9961,2.998,3.0117,3.043,3.043,3.0488,3.0644,3.0644,3.0723,3.0898,3.0898,3.0898,3.0898,3.0898,3.0898,3.0879,3.0703,3.1087,3.1808,3.1787,3.2264,0.0,3.3913,3.5017,3.6042,3.609,3.6176,3.6355,3.6603,3.7444,3.8541,3.942,3.9697,3.9697,3.9697,3.9697,3.9697,3.9697,3.9697,3.9697,3.9697,3.9697,3.9697,3.9697,4.0124,4.0626,4.0924,4.1656,4.2313,4.269,4.2836,4.3237,4.3991,4.4392,4.492,4.5698,4.61,4.6301,4.6301,4.6301,4.6301,4.6301,4.6301,4.6301,4.6301,4.6301,4.6301,4.6301,4.6301,4.6301,4.6301,4.6301,4.6301,4.6301,4.6301,4.6301,4.6301,4.6481,4.6686,4.6806,4.6993,4.7087,4.7205,4.7205,4.7324,4.7501,4.7265,4.756,4.7997,4.7762,4.7938,4.8172,1.8916,1.9124,1.9435,0.0,0.0,0.0,0.0,0.0,0.0,0.0,0.0,0.0,0.0,0.0,0.0,0.0,0.0,0.0,2.5509,2.5817,2.6506,2.7752,2.8043,2.8613,2.9453,2.9492,2.9512,2.9531,2.9607,2.9785,3.0156,3.0156,3.041,3.082,3.082,3.082,3.082,3.082,3.082,3.0781,3.0351,3.0156,3.0231,3.1003,3.1257,3.142,3.262,3.3369,3.3963,3.5144,3.6128,3.6866,3.7243,3.8464,3.9697,3.9697,3.9697,3.9697,3.9697,3.9697,3.9697,3.9697,3.9697,3.9697,3.9697,3.9697,3.9697,3.9697,4.0099,4.0475,4.0501,4.1379,4.2137,4.2213,4.264,4.3338,4.4468,4.4618,4.5045,4.6175,4.6301,4.6301,4.6301,4.6301,4.6301,4.6301,4.6301,4.6301,4.6301,4.6301,4.6301,4.6301,4.6301,4.6301,4.6301,4.6301,4.6301,4.6301,4.6301,4.6301,4.6301,4.6301,4.6481,4.6806,4.6806,4.69,4.7146,4.7146,4.7146,4.7205,4.7146,4.7383,4.7703,4.7703,4.788,4.8172,0.0,0.0,0.0,0.0,0.0,0.0,0.0,0.0,0.0,0.0,0.0,0.0,0.0,0.0,0.0,0.0,0.0,0.0,2.4746,2.5177,2.5648,2.6174,2.6756,2.7317,2.7859,2.8403,2.8769,2.9082,2.9414,2.9629,2.9726,2.9726,2.9785,2.9902,2.9902,2.9902,2.9902,2.9902,2.9902,2.9902,2.9785,2.9726,2.9744,2.9569,2.9555,2.9624,3.0441,3.081,3.1288,3.3617,3.5628,3.7292,3.7939,3.8865,3.9697,3.9697,3.9697,3.9697,3.9697,3.9697,3.9697,3.9697,3.9697,3.9697,3.9697,3.9697,3.9697,3.9697,3.9798,4.0023,4.045,4.0752,4.1204,4.2087,4.2313,4.2886,4.4418,4.4618,4.5045,4.6175,4.6301,4.6301,4.6301,4.6301,4.6301,4.6301,4.6301,4.6301,4.6301,4.6301,4.6301,4.6301,4.6301,4.6301,4.6301,4.6301,4.6301,4.6301,4.6301,4.6301,4.6301,4.6301,4.6361,4.6446,4.6446,4.6481,4.6541,4.6541,4.6661,4.69,4.6661,4.6993,4.7645,4.7197,4.7552,4.8114,0.0,0.0,0.0,0.0,0.0,0.0,0.0,0.0,0.0,0.0,0.0,0.0,0.0,0.0,0.0,0.0,0.0,0.0,0.0,2.4703,2.5058,2.5396,2.5895,2.6404,2.7001,2.7336,2.7746,2.8086,2.834,2.8535,2.8785,2.8785,2.8883,2.9023,2.9199,2.9277,2.9297,2.9492,2.9626,0.0,0.0,2.9004,2.8945,2.832,2.8086,2.8119,2.8745,2.9472,3.0548,3.2804,3.4912,3.6795,3.7584,3.8622,3.9542,3.9645,3.9697,3.9747,3.9998,3.9873,3.9747,3.9998,3.9873,3.9697,3.9697,3.9697,3.9697,3.9697,3.9697,3.9798,4.0099,4.035,4.0802,4.1656,4.2062,4.2791,4.4392,4.4618,4.5045,4.6175,4.6301,4.6301,4.6301,4.6301,4.6301,4.6301,4.6301,4.6301,4.6301,4.6301,4.6301,4.6301,4.6301,4.6301,4.6301,4.6301,4.6301,4.6301,4.6301,4.6301,4.6301,4.6301,4.6301,4.6301,4.6301,4.6301,4.6301,4.6301,4.6421,4.6566,4.6361,4.6721,4.7257,4.6925,4.7197,4.7703,0.0,0.0,0.0,0.0,0.0,0.0,0.0,0.0,0.0,1.904,2.1062,2.2485,2.2485,2.3538,0.0,0.0,0.0,0.0,0.0,0.0,2.4647,2.5051,2.5321,2.5743,2.6359,2.6487,2.6659,2.6934,2.6992,2.7207,2.763,2.763,2.7773,2.8144,2.8496,2.8672,2.8691,2.9062,2.9238,2.916,2.8418,2.8125,2.8047,0.0,2.7012,2.707,2.7519,2.886,3.0653,3.2105,3.3986,3.5945,3.6801,3.8108,3.9362,3.9645,3.9697,3.9823,4.0375,4.0124,3.9823,4.0375,4.0099,3.9697,3.9697,3.9697,3.9697,3.9697,3.9697,3.9697,3.9697,4.0099,4.0601,4.11,4.1681,4.2635,4.4292,4.4568,4.5045,4.6175,4.6301,4.6301,4.6301,4.6301,4.6301,4.6301,4.6301,4.6301,4.6301,4.6301,4.6301,4.6301,4.6301,4.6301,4.6301,4.6301,4.6301,4.6301,4.6301,4.6301,4.6301,4.6301,4.6301,4.6301,4.6301,4.6301,4.6301,4.6301,4.6301,4.6301,4.6301,4.6506,4.6806,4.6746,4.6959,4.7205,0.0,0.0,0.0,0.0,0.0,0.0,0.0,0.0,0.0,0.0,2.0706,2.2485,0.0,0.0,0.0,0.0,0.0,0.0,0.0,0.0,0.0,2.4343,2.4591,2.4876,2.5199,2.5791,2.6234,2.6504,2.6836,2.7051,2.7129,2.7129,2.7168,2.7246,2.7324,2.7344,2.7344,2.7422,2.7461,2.7441,2.7305,2.7246,2.7226,2.707,0.0,0.0,2.7519,2.8598,2.9786,3.0087,3.2716,3.5945,3.6801,3.8108,3.9362,3.9645,3.9697,3.9823,4.0375,4.0124,3.9823,4.0375,4.0099,3.9697,3.9697,3.9697,3.9697,3.9697,3.9697,3.9697,3.9697,3.9772,4.0023,4.0576,4.1128,4.2057,4.3714,4.4342,4.5045,4.6175,4.6301,4.6301,4.6301,4.6301,4.6301,4.6301,4.6301,4.6301,4.6301,4.6301,4.6301,4.6301,4.6301,4.6301,4.6301,4.6301,4.6301,4.6301,4.6301,4.6301,4.6301,4.6301,4.6301,4.6301,4.6301,4.6301,4.6301,4.6301,4.6301,4.6301,4.6301,4.6506,4.6746,4.6506,4.6695,4.7146,0.0,0.0,0.0,0.0,0.0,0.0,0.0,1.7902,1.8049,1.8263,2.0522,2.2084,2.1903,2.2739,2.3538,0.0,0.0,0.0,0.0,0.0,0.0,2.4202,0.0,0.0,2.4873,2.5229,2.5641,2.6055,0.0,2.6298,2.6298,2.6298,2.6298,2.6317,2.6582,2.6699,2.6699,2.6914,2.7012,2.6992,2.6777,2.6699,2.666,0.0,0.0,0.0,2.7246,2.8301,2.9626,2.9626,3.1643,3.4395,3.5572,3.734,3.9102,3.9413,3.9594,3.9873,4.0701,4.0325,3.9898,4.0727,4.03,3.9697,3.9697,3.9697,3.9697,3.9697,3.9697,3.9697,3.9697,3.9697,3.9873,4.0425,4.0752,4.148,4.3137,4.384,4.4618,4.5748,4.6125,4.6301,4.6301,4.6301,4.6301,4.6301,4.6301,4.6301,4.6301,4.6301,4.6301,4.6301,4.6301,4.6301,4.6301,4.6301,4.6301,4.6301,4.6301,4.6301,4.6301,4.6301,4.6301,4.6301,4.6301,4.6301,4.6301,4.6301,4.6301,4.6301,4.6301,4.6361,4.6481,4.6361,4.6481,4.6695,0.0,0.0,0.0,0.0,0.0,0.0,0.0,1.8049,1.8195,1.8544,2.0146,2.1333,2.1549,2.2398,2.3362,0.0,0.0,0.0,0.0,0.0,0.0,0.0,0.0,0.0,0.0,0.0,0.0,2.5693,2.5693,0.0,0.0,0.0,0.0,0.0,2.6094,2.625,2.6269,2.6602,2.6738,0.0,0.0,2.625,0.0,0.0,0.0,0.0,0.0,2.8144,2.9453,2.9607,3.0906,3.2767,3.4013,3.624,3.8449,3.9102,3.9413,3.9846,4.0849,4.045,3.9923,4.0874,4.0425,3.9697,3.9697,3.9697,3.9697,3.9697,3.9697,3.9697,3.9697,3.9697,3.9848,4.0275,4.045,4.1053,4.2585,4.3388,4.4217,4.5347,4.5974,4.6301,4.6301,4.6301,4.6301,4.6301,4.6301,4.6301,4.6301,4.6301,4.6301,4.6301,4.6301,4.6301,4.6301,4.6301,4.6301,4.6301,4.6301,4.6301,4.6301,4.6301,4.6301,4.6301,4.6301,4.6301,4.6301,4.6301,4.6301,4.6301,4.6301,4.6301,4.6301,4.6301,4.6301,4.6301,0.0,0.0,0.0,0.0,0.0,0.0,0.0,1.8277,1.8557,1.8838,1.9047,1.9962,2.2065,2.3687,2.4619,0.0,0.0,0.0,0.0,0.0,0.0,0.0,0.0,0.0,0.0,0.0,0.0,2.5693,2.5693,0.0,0.0,0.0,0.0,0.0,0.0,2.5752,2.5752,2.5791,0.0,0.0,0.0,0.0,0.0,0.0,0.0,0.0,0.0,2.8203,2.9043,2.9434,3.0685,3.2141,3.2711,3.4703,3.7126,3.8816,3.931,3.9511,4.0373,4.0149,3.9848,4.045,4.0149,3.9697,3.9697,3.9697,3.9697,3.9697,3.9697,3.9697,3.9697,3.9697,3.9722,3.9772,4.0199,4.0927,4.2112,4.3137,4.4217,4.5347,4.5974,4.6301,4.6301,4.6301,4.6301,4.6301,4.6301,4.6301,4.6301,4.6301,4.6301,4.6301,4.6301,4.6301,4.6301,4.6301,4.6301,4.6301,4.6301,4.6301,4.6301,4.6301,4.6301,4.6301,4.6301,4.6301,4.6301,4.6301,4.6301,4.6301,4.6301,4.6301,4.6301,4.6301,4.6301,4.6301,0.0,0.0,0.0,0.0,0.0,0.0,1.8263,1.8571,1.8851,1.9158,1.9802,2.0927,2.26,2.355,2.4293,2.4743,0.0,0.0,0.0,0.0,0.0,0.0,0.0,0.0,0.0,0.0,2.4941,2.543,2.543,0.0,0.0,0.0,0.0,0.0,0.0,2.5693,2.5693,2.5693,0.0,0.0,0.0,0.0,0.0,0.0,0.0,0.0,0.0,0.0,2.8945,2.9121,2.9964,3.1047,3.202,3.3652,3.564,3.7447,3.8607,3.9486,4.0245,4.0124,3.9823,4.0375,4.0099,3.9697,3.9697,3.9697,3.9597,3.927,3.9471,3.9597,3.927,3.9471,3.9697,3.9697,3.9873,4.04,4.1505,4.2333,4.3338,4.4794,4.5472,4.5949,4.6276,4.6301,4.6301,4.6301,4.6301,4.6301,4.6301,4.6301,4.6301,4.6301,4.6301,4.6301,4.6301,4.6301,4.6301,4.6301,4.6301,4.6301,4.6301,4.6301,4.6301,4.6301,4.6301,4.6301,4.6301,4.6301,4.6301,4.6301,4.6301,4.6301,4.6301,4.6301,4.6301,4.6301,0.0,0.0,0.0,0.0,0.0,1.8036,1.8437,1.8664,1.8931,1.9377,2.0155,2.1288,2.2805,2.3146,2.3718,2.4893,2.4514,0.0,0.0,0.0,0.0,0.0,0.0,0.0,0.0,0.0,2.4782,2.5358,2.5476,2.5632,0.0,0.0,2.6005,2.5937,0.0,0.0,0.0,0.0,0.0,0.0,0.0,0.0,0.0,0.0,0.0,0.0,0.0,0.0,0.0,0.0,0.0,3.0032,3.1095,3.2727,3.4582,3.6433,3.8003,3.9305,3.994,3.9921,3.9798,4.0174,3.9973,3.9697,3.9697,3.9697,3.9546,3.8994,3.917,3.932,3.8994,3.9195,3.9496,3.9672,3.9697,4.0074,4.1125,4.1806,4.2816,4.4418,4.5121,4.5698,4.625,4.6301,4.6301,4.6301,4.6301,4.6301,4.6301,4.6301,4.6301,4.6301,4.6301,4.6301,4.6301,4.6301,4.6301,4.6301,4.6301,4.6301,4.6301,4.6301,4.6301,4.6301,4.6301,4.6301,4.6301,4.6301,4.6301,4.6301,4.6301,4.6301,4.6301,4.6301,4.6301,4.6301,0.0,0.0,0.0,0.0,0.0,0.0,1.8397,1.849,1.8704,1.935,1.943,2.0328,2.2749,2.2656,2.3216,2.5243,2.4679,0.0,0.0,0.0,0.0,0.0,0.0,0.0,0.0,0.0,2.4833,2.5478,2.5798,2.6179,2.6583,2.6839,2.6777,2.6387,0.0,0.0,0.0,0.0,0.0,0.0,0.0,0.0,2.6426,0.0,0.0,0.0,0.0,0.0,0.0,0.0,0.0,0.0,0.0,3.1849,3.4173,3.6025,3.766,3.8893,3.9206,3.949,3.9697,3.9697,3.9697,3.9697,3.9697,3.9697,3.9546,3.8994,3.8868,3.8919,3.8919,3.8868,3.9069,3.9597,3.9697,4.0074,4.1125,4.1806,4.2816,4.4418,4.5121,4.5698,4.625,4.6301,4.6301,4.6301,4.6301,4.6301,4.6301,4.6301,4.6301,4.6301,4.6301,4.6301,4.6301,4.6301,4.6301,4.6301,4.6301,4.6301,4.6301,4.6301,4.6301,4.6301,4.6301,4.6301,4.6301,4.6301,4.6301,4.6301,4.6301,4.6301,4.6301,4.6301,4.6301,4.6301,0.0,0.0,0.0,0.0,0.0,0.0,0.0,1.8664,1.8931,1.9319,1.943,2.0328,2.2749,2.2395,2.2914,2.5224,2.4937,0.0,0.0,0.0,0.0,0.0,0.0,0.0,0.0,0.0,2.5029,2.5694,2.5797,2.6129,2.6602,2.6705,2.6781,2.6816,2.6816,2.6582,0.0,0.0,0.0,0.0,0.0,2.6269,2.6465,0.0,0.0,0.0,0.0,0.0,0.0,0.0,0.0,0.0,0.0,0.0,0.0,3.4262,3.6524,3.8631,3.9154,3.9362,3.9465,3.9645,3.9697,3.9697,3.9697,3.9396,3.8969,3.8391,3.8291,3.8291,3.8291,3.8592,3.9095,3.9597,3.9697,4.0074,4.1125,4.148,4.2359,4.4392,4.5472,4.6125,4.6301,4.6301,4.6301,4.6301,4.6301,4.6301,4.6301,4.6301,4.6301,4.6301,4.6301,4.6301,4.6301,4.6301,4.6301,4.6301,4.6301,4.6301,4.6301,4.6301,4.6301,4.6301,4.6301,4.6301,4.6301,4.6301,4.6301,4.6301,4.6301,4.6301,4.6301,4.6301,4.6301,4.6301,0.0,0.0,0.0,0.0,0.0,0.0,0.0,1.8477,1.8744,1.9145,1.9199,2.0201,2.2733,2.2411,2.293,2.5224,2.5014,0.0,0.0,0.0,0.0,0.0,0.0,0.0,2.4776,2.4922,2.5374,2.6104,2.6191,2.6552,2.7226,2.7439,2.7444,2.7292,2.7448,2.7168,0.0,0.0,0.0,0.0,2.6523,2.6719,2.6934,0.0,0.0,0.0,0.0,0.0,0.0,0.0,0.0,0.0,0.0,0.0,0.0,0.0,3.5306,3.7604,3.8662,3.9154,3.931,3.9517,3.9645,3.9647,3.9421,3.912,3.8642,3.7864,3.7864,3.8015,3.8015,3.8492,3.9095,3.9597,3.9697,4.0074,4.1125,4.1275,4.2103,4.4367,4.5623,4.6301,4.6301,4.6301,4.6301,4.6301,4.6301,4.6301,4.6301,4.6301,4.6301,4.6301,4.6301,4.6301,4.6301,4.6301,4.6301,4.6301,4.6301,4.6301,4.6301,4.6301,4.6301,4.6301,4.6301,4.6301,0.0,4.6301,4.6301,4.6301,4.6301,4.6301,4.6301,4.6301,4.6301,4.6301,0.0,0.0,0.0,0.0,0.0,0.0,0.0,1.7995,1.8195,1.8824,1.8948,1.9991,2.2639,2.2632,2.322,2.5206,0.0,0.0,0.0,0.0,0.0,0.0,0.0,0.0,2.4904,2.5271,2.5858,2.6683,2.6974,2.7474,2.8219,2.8841,2.8663,2.7949,2.8198,2.7871,0.0,0.0,0.0,0.0,2.7051,2.7305,0.0,0.0,0.0,0.0,0.0,0.0,0.0,0.0,0.0,0.0,0.0,0.0,0.0,0.0,0.0,0.0,0.0,3.8715,3.9258,3.9258,3.949,3.9546,3.9044,3.8944,0.0,3.7513,3.7688,3.8015,3.8065,3.8517,3.9095,3.9597,3.9722,4.0124,4.1125,4.1426,4.2304,4.4443,4.5648,4.6301,4.6301,4.6301,4.6301,4.6301,4.6301,4.6301,4.6301,4.6301,4.6301,4.6301,4.6301,4.6301,4.6301,4.6301,4.6301,4.6301,4.6301,4.6301,4.6301,4.6301,4.6301,4.6301,4.6301,4.6301,4.6301,4.6301,4.6301,4.6301,4.6301,4.6301,4.6301,4.6301,4.6301,4.6301,0.0,0.0,0.0,0.0,0.0,0.0,0.0,0.0,0.0,0.0,1.9278,2.045,2.1985,2.2556,2.3427,0.0,0.0,0.0,0.0,0.0,0.0,0.0,0.0,0.0,2.6151,2.6261,2.6683,2.7546,2.7771,2.8146,2.8615,2.8954,2.9138,2.9147,2.8871,2.8301,0.0,0.0,0.0,0.0,2.7383,2.7578,0.0,0.0,0.0,0.0,2.8301,2.8301,0.0,0.0,0.0,0.0,0.0,0.0,0.0,0.0,3.3052,3.4087,3.626,0.0,3.8736,3.9154,3.9362,3.9389,0.0,3.917,3.8844,3.8567,3.8216,3.814,3.8592,3.8768,3.9095,3.9597,4.0049,4.0551,4.12,4.273,4.4217,4.5171,4.5899,4.6301,4.6301,4.6301,4.6301,4.6301,4.6301,4.6301,4.6301,4.6301,4.6301,4.6301,4.6301,4.6301,4.6301,4.6301,4.6301,4.6301,4.6301,4.6301,4.6301,4.6301,4.6301,4.6301,4.6301,4.6301,4.6301,4.6301,4.6301,4.6301,4.6301,4.6301,4.6301,4.6301,4.6301,4.6301,0.0,0.0,0.0,0.0,0.0,0.0,0.0,0.0,0.0,0.0,0.0,0.0,0.0,0.0,0.0,0.0,0.0,0.0,0.0,0.0,0.0,0.0,0.0,2.5711,2.6573,2.6756,2.7251,2.8058,2.8327,2.865,2.9067,2.947,2.9717,2.9674,2.9144,2.8672,0.0,0.0,0.0,2.7617,2.7851,0.0,0.0,0.0,0.0,0.0,2.8301,2.8301,0.0,2.8301,2.8301,2.8301,0.0,0.0,0.0,0.0,3.1918,3.3099,3.4834,3.6641,3.8108,3.842,3.88,3.908,3.9089,3.8866,3.8617,3.8517,3.8442,3.8492,3.8869,3.9069,3.9346,3.9647,4.0149,4.0877,4.1957,4.3539,4.4844,4.5422,4.5974,4.6301,4.6301,4.6301,4.6301,4.6301,4.6301,4.6301,4.6301,4.6301,4.6301,4.6301,4.6301,4.6301,4.6301,4.6301,4.6301,4.6301,4.6301,4.6301,4.6301,4.6301,4.6301,4.6301,4.6301,4.6301,4.6301,4.6301,4.6301,4.6301,4.6301,4.6301,4.6301,4.6301,4.6301,4.6301,0.0,0.0,0.0,0.0,0.0,0.0,0.0,0.0,0.0,0.0,0.0,0.0,0.0,0.0,0.0,0.0,0.0,0.0,0.0,0.0,0.0,0.0,2.5745,2.6333,2.6756,2.716,2.7785,2.8597,2.8811,2.9212,2.9627,3.0216,3.0277,2.9852,2.9264,2.8984,0.0,0.0,2.8301,2.8301,2.8301,0.0,0.0,0.0,0.0,0.0,0.0,0.0,0.0,2.8301,2.8301,2.8301,2.8301,0.0,0.0,0.0,0.0,0.0,3.3333,3.525,3.7032,3.7491,3.8007,3.8432,3.8432,3.8486,3.8464,3.8266,3.8642,3.9045,3.9045,3.9371,3.9722,3.9798,4.0425,4.143,4.3011,4.4116,4.497,4.5547,4.6024,4.6301,4.6301,4.6301,4.6301,4.6301,4.6301,4.6301,4.6301,4.6301,4.6301,4.6301,4.6301,4.6301,4.6301,4.6301,4.6301,4.6301,4.6301,4.6301,4.6301,4.6301,4.6301,4.6301,4.6301,4.6301,4.6301,4.6301,4.6301,4.6301,4.6301,4.6301,4.6301,4.6301,4.6301,4.6301,0.0,0.0,0.0,0.0,0.0,0.0,0.0,0.0,0.0,0.0,0.0,0.0,0.0,0.0,0.0,0.0,0.0,0.0,0.0,0.0,0.0,2.6298,2.6426,2.683,2.762,2.7985,2.86,2.9356,2.9592,2.9905,3.0274,3.0645,3.0587,3.0119,2.9687,2.9258,2.8887,2.8476,2.8301,2.8301,2.8301,0.0,0.0,0.0,0.0,0.0,0.0,0.0,0.0,2.8301,2.8301,2.8301,2.8301,0.0,0.0,0.0,0.0,0.0,3.1673,3.279,3.4321,3.6956,3.7302,3.7263,3.8457,3.8978,3.9161,3.9137,3.9342,3.9572,3.9572,3.9647,3.9848,4.03,4.163,4.3011,4.4192,4.4945,4.5573,4.6125,4.625,4.6301,4.6301,4.6301,4.6301,4.6301,4.6301,4.6301,4.6301,4.6301,4.6301,4.6301,4.6301,4.6301,4.6301,4.6301,4.6301,4.6301,4.6301,4.6301,4.6301,4.6301,4.6301,4.6301,4.6301,4.6301,4.6301,4.6301,4.6301,4.6301,4.6301,4.6301,4.6301,4.6301,4.6301,4.6301,0.0,0.0,0.0,0.0,0.0,0.0,0.0,0.0,0.0,0.0,0.0,0.0,0.0,0.0,0.0,0.0,0.0,0.0,0.0,0.0,2.6296,2.6885,2.7105,2.7508,2.8095,2.8297,2.8766,2.9509,2.9745,3.0098,3.0392,3.0762,3.0781,3.0547,3.0098,2.9668,2.9238,2.8809,2.8496,2.8301,0.0,0.0,0.0,0.0,0.0,0.0,0.0,0.0,0.0,0.0,2.8301,2.8301,2.8301,0.0,0.0,0.0,0.0,0.0,3.0535,3.1317,3.2513,3.46,3.5741,3.6588,3.7394,3.7737,3.7897,3.8056,3.8319,3.8687,3.9362,3.9594,3.9973,4.0827,4.2108,4.3363,4.4468,4.5121,4.5698,4.625,4.6301,4.6301,4.6301,4.6301,4.6301,4.6301,4.6301,4.6301,4.6301,4.6301,4.6301,4.6301,4.6301,4.6301,4.6301,4.6301,4.6301,4.6301,4.6301,4.6301,4.6301,4.6301,4.6301,4.6301,4.6301,4.6301,4.6301,4.6301,4.6301,4.6301,4.6301,4.6301,4.6301,4.6301,4.6301,4.6301,0.0,0.0,0.0,0.0,0.0,0.0,0.0,0.0,0.0,0.0,0.0,0.0,0.0,0.0,0.0,0.0,0.0,0.0,0.0,2.5892,2.6517,2.7344,2.7656,2.7967,2.8388,2.848,2.8858,2.9509,2.9745,3.0098,3.0509,3.0762,3.0898,3.0859,3.041,2.9961,2.9607,2.9101,2.8672,2.8301,0.0,0.0,0.0,0.0,0.0,0.0,0.0,0.0,0.0,0.0,0.0,0.0,0.0,0.0,0.0,2.8301,2.884,2.9411,2.9615,3.0166,3.1011,3.2394,3.4087,3.5498,3.5968,3.6131,3.6348,3.6858,3.7233,3.7844,3.9198,3.9917,4.0601,4.1555,4.2635,4.3714,4.4694,4.5321,4.5824,4.625,4.6301,4.6301,4.6301,4.6301,4.6301,4.6301,4.6301,4.6301,4.6301,4.6301,4.6301,4.6301,4.6301,4.6301,4.6301,4.6301,4.6301,4.6301,4.6301,4.6301,4.6301,4.6301,4.6301,4.6301,4.6301,4.6301,4.6301,4.6301,4.6301,4.6301,4.6301,4.6301,4.6301,4.6301,4.6301,4.6301,0.0,0.0,0.0,0.0,0.0,0.0,0.0,0.0,0.0,0.0,0.0,0.0,0.0,0.0,0.0,0.0,0.0,0.0,2.531,2.6114,2.6903,2.7748,2.7803,2.7967,2.8388,2.8755,2.9135,2.9509,2.9745,3.0216,3.0879,3.0898,3.0898,3.0859,3.041,2.9961,2.9607,2.9101,2.8672,2.8301,2.8301,0.0,0.0,0.0,0.0,0.0,0.0,0.0,0.0,0.0,0.0,0.0,0.0,0.0,2.8301,2.8301,2.8061,2.8029,2.876,2.9015,2.9525,3.1581,3.2517,3.3233,3.4336,3.4814,3.5311,3.6402,3.6911,3.7721,3.9692,4.1118,4.2238,4.276,4.379,4.4719,4.5347,4.5899,4.6276,4.6301,4.6301,4.6301,4.6301,4.6301,4.6301,4.6301,4.6301,4.6301,4.6301,4.6301,4.6301,4.6301,4.6301,4.6301,4.6301,4.6301,4.6301,4.6301,4.6301,4.6301,4.6301,4.6301,4.6301,4.6301,4.6301,4.6301,4.6301,4.6301,4.6301,4.6301,4.6301,4.6301,4.6301,4.6301,4.6301,4.6301,0.0,0.0,0.0,0.0,0.0,0.0,0.0,0.0,0.0,0.0,0.0,0.0,0.0,0.0,0.0,0.0,0.0,0.0,2.531,2.6133,2.694,2.7785,2.7822,2.8134,2.8755,2.8902,2.9153,2.9509,2.9981,3.0333,3.0567,3.082,3.0898,3.0879,3.0703,3.0371,2.9941,2.9512,2.9082,2.8652,2.8398,2.8301,0.0,0.0,0.0,0.0,0.0,0.0,0.0,0.0,2.7402,2.7324,2.7773,2.791,2.7949,2.8223,2.8184,2.8184,2.8769,2.9121,2.9564,3.0605,3.1217,3.1903,3.3063,3.3459,3.3974,3.5435,3.5981,3.7058,4.0021,4.0949,4.1597,4.2824,4.4217,4.5246,4.5447,4.5974,4.6301,4.6301,4.6301,4.6301,4.6301,4.6301,4.6301,4.6301,4.6301,4.6301,4.6301,4.6301,4.6301,4.6301,4.6301,4.6301,4.6301,4.6301,4.6301,4.6301,4.6301,4.6301,4.6301,4.6301,4.6301,4.6301,4.6301,4.6301,4.6301,4.6301,4.6301,4.6301,4.6301,4.6301,4.6301,4.6301,4.6301,4.6301,0.0,0.0,0.0,0.0,0.0,0.0,0.0,0.0,0.0,0.0,0.0,0.0,0.0,0.0,0.0,0.0,0.0,0.0,2.5362,2.6133,2.694,2.7785,2.7822,2.8208,2.8975,2.9094,2.9272,2.9509,3.0098,3.045,3.0567,3.0762,3.0898,3.0898,3.0898,3.0625,3.0176,2.9746,2.9316,2.8887,2.8457,2.8301,0.0,0.0,0.0,0.0,0.0,0.0,0.0,0.0,2.6934,2.6914,2.748,2.7728,2.7806,2.8164,2.8301,2.8418,2.8965,2.9355,2.9707,3.0273,3.0644,3.1151,3.2064,3.2336,3.2786,3.4438,3.5474,3.6815,3.9236,3.9969,4.0785,4.2504,4.3952,4.5047,4.5664,4.6075,4.6301,4.6301,4.6301,4.6301,4.6301,4.6301,4.6301,4.6301,4.6301,4.6301,4.6301,4.6301,4.6301,4.6301,4.6301,4.6301,4.6301,4.6301,4.6301,4.6301,4.6301,4.6301,4.6301,4.6301,4.6301,4.6301,4.6301,4.6301,4.6301,4.6301,4.6301,4.6301,4.6301,4.6301,4.6301,4.6301,4.6301,4.6301,0.0,0.0,0.0,0.0,0.0,0.0,0.0,0.0,0.0,0.0,0.0,0.0,0.0,0.0,0.0,0.0,0.0,0.0,2.5414,2.6133,2.694,2.7785,2.7822,2.815,2.8957,2.9331,2.9509,2.9509,3.0098,3.0567,3.0898,3.0898,3.0898,3.0898,3.0898,3.0644,3.0176,2.9746,2.9316,2.8887,2.8457,2.8301,2.8242,0.0,0.0,0.0,0.0,0.0,0.0,0.0,2.6719,2.6523,2.7383,2.7708,2.7787,2.8164,2.8301,2.8476,2.9336,2.957,2.9785,3.0664,3.0898,3.0996,3.1426,3.1523,3.1979,3.3571,3.5532,3.6979,3.6979,3.8335,4.0014,4.1994,4.2939,4.4099,4.6045,4.6301,4.6301,4.6301,4.6301,4.6301,4.6301,4.6301,4.6301,4.6301,4.6301,4.6301,4.6301,4.6301,4.6301,4.6301,4.6301,4.6301,4.6301,4.6301,4.6301,4.6301,4.6301,4.6301,4.6301,4.6301,4.6301,4.6301,4.6301,4.6301,4.6301,4.6301,4.6301,4.6301,4.6301,4.6301,4.6301,4.6301,4.6301,4.6301,0.0,0.0,0.0,0.0,0.0,0.0,0.0,0.0,0.0,0.0,0.0,0.0,0.0,0.0,0.0,0.0,0.0,0.0,2.5344,2.5148,2.5717,2.7325,2.7675,2.8022,2.8553,2.9183,2.9568,2.9804,3.0216,3.045,3.0567,3.0762,3.0898,3.0898,3.0898,3.082,3.0644,2.9883,2.9492,2.9316,2.8594,2.8125,2.7832,0.0,0.0,0.0,0.0,0.0,0.0,0.0,0.0,0.0,2.6582,2.6973,2.7285,2.7734,2.8262,2.8848,2.9414,2.9785,3.0156,3.0742,3.1113,3.1445,3.1875,3.1738,3.2058,3.4041,3.5202,3.6292,3.7709,3.795,3.8953,4.2188,4.3221,4.4267,4.6035,4.6301,4.6301,4.6301,4.6301,4.6301,4.6301,4.6301,4.6301,4.6301,4.6301,4.6301,4.6301,4.6301,4.6301,4.6301,4.6301,4.6301,4.6301,4.6301,4.6301,4.6301,4.6301,4.6301,4.6301,4.6301,4.6301,4.6301,4.6301,4.6301,4.6301,4.6301,4.6301,4.6301,4.6301,4.6301,4.6301,4.6301,4.6301,4.6301,0.0,0.0,0.0,0.0,0.0,0.0,0.0,0.0,0.0,0.0,1.8513,1.9642,0.0,0.0,0.0,2.4053,2.3523,2.3755,2.5292,2.5147,2.5666,2.7141,2.7398,2.7858,2.8544,2.9018,2.9517,3.0098,3.0333,3.045,3.0567,3.082,3.0898,3.0898,3.0898,3.0898,3.084,2.9941,2.9626,2.9492,2.8457,2.7891,2.7689,0.0,0.0,0.0,0.0,0.0,0.0,0.0,0.0,0.0,2.625,2.668,2.709,2.7539,2.8379,2.9238,2.9492,3.0019,3.0547,3.082,3.1211,3.168,3.2285,3.2344,3.2586,3.3941,3.4529,3.5228,3.6499,3.6747,3.7633,4.0437,4.1605,4.2643,4.4251,4.4583,4.4645,4.4645,4.5159,4.5281,4.4706,4.5671,4.6059,4.555,4.5999,4.6301,4.6301,4.6301,4.6301,4.6301,4.6301,4.6301,4.6301,4.6301,4.6301,4.6301,4.6301,4.6301,4.6301,4.6301,4.6301,4.6301,4.6301,4.6301,4.6301,4.6301,4.6301,4.6301,4.6301,4.6301,4.6301,4.6301,4.6301,4.6301,0.0,0.0,0.0,0.0,0.0,0.0,0.0,0.0,0.0,1.7582,1.8513,1.9591,0.0,0.0,0.0,2.3886,2.3454,2.372,2.5237,2.5621,2.6189,2.7031,2.7141,2.7639,2.8702,2.8721,2.9197,3.0334,3.0372,3.0567,3.0898,3.0898,3.0898,3.0898,3.0898,3.0898,3.084,2.9941,2.9626,2.9509,2.8237,2.7689,2.7571,2.6699,0.0,0.0,0.0,0.0,0.0,0.0,0.0,0.0,2.6211,2.6641,2.709,2.748,2.8589,2.9626,2.9626,3.0215,3.0898,3.0898,3.123,3.1797,3.2656,3.3184,3.3476,3.3476,3.3789,3.4101,3.418,3.5087,3.6349,3.7707,3.8848,4.0105,4.1478,4.1947,4.2138,4.2201,4.3357,4.3606,4.2328,4.446,4.5403,4.4189,4.522,4.5914,4.5914,4.5914,4.5999,4.612,4.612,4.618,4.6301,4.6301,4.6301,4.6301,4.624,4.624,4.6266,4.6301,4.6301,4.624,4.624,4.624,4.624,4.624,4.624,4.624,4.624,4.624,4.618,4.612,4.612,4.624,0.0,0.0,0.0,0.0,0.0,0.0,0.0,0.0,1.7582,1.7582,1.8513,1.928,1.9539,2.1132,0.0,2.2837,2.2705,2.3267,2.4835,2.4454,2.4828,2.6206,2.683,2.7454,2.7989,2.8008,2.8479,2.9526,3.0102,3.0567,3.0898,3.0898,3.0898,3.0898,3.0898,3.0898,3.084,2.9941,2.9626,2.9509,2.8237,2.7461,2.7109,2.6582,2.6172,0.0,0.0,0.0,0.0,0.0,0.0,0.0,2.581,2.6406,2.7031,2.7129,2.8301,2.9626,2.9626,3.0215,3.0898,3.0898,3.1465,3.2246,3.3086,3.3613,3.3926,3.3926,3.4004,3.4277,3.498,3.532,3.6137,3.8145,3.8666,3.9497,4.1415,4.1734,4.1947,4.2138,4.2454,4.2517,4.2201,4.2706,4.2981,4.2643,4.2918,4.3107,4.3107,4.3107,4.3606,4.4706,4.4706,4.522,4.6301,4.6301,4.6301,4.6301,4.5999,4.5878,4.5939,4.618,4.618,4.5878,4.5878,4.5878,4.5878,4.5878,4.5878,4.5878,4.5878,4.5757,4.5453,4.4669,4.4976,4.5817,0.0,0.0,0.0,0.0,0.0,0.0,0.0,0.0,1.8562,1.837,1.8864,1.9176,1.9176,2.0723,0.0,0.0,2.2485,2.2942,2.3905,2.433,2.5021,2.6243,2.6664,2.7086,2.7471,2.7659,2.8219,2.9278,2.9853,3.0374,3.0898,3.0898,3.0898,3.0898,3.0898,3.0898,3.084,2.9941,2.9626,2.9509,2.8237,2.7402,2.6973,2.6543,2.6113,2.5693,2.5693,0.0,0.0,0.0,0.0,0.0,0.0,0.0,2.6758,2.6953,2.793,2.9043,2.9509,3.0059,3.0703,3.1348,3.1836,3.2383,3.3223,3.375,3.4121,3.4336,3.4551,3.4844,3.5312,3.5566,3.6012,3.7153,3.7508,3.7934,3.9038,3.9497,3.9779,3.9975,4.0753,4.1011,4.0322,4.146,4.1947,4.1267,4.1843,4.2201,4.2201,4.2201,4.2517,4.3294,4.3294,4.3606,4.4312,4.4312,4.4312,4.4312,4.4003,4.3755,4.363,4.5123,4.5367,4.4583,4.4583,4.4213,4.363,4.363,4.363,4.363,4.363,4.3505,4.3255,4.273,4.3107,4.3755,0.0,0.0,0.0,0.0,0.0,0.0,0.0,0.0,0.0,1.8959,1.8916,1.8968,1.9176,2.021,2.1251,0.0,0.0,0.0,2.2963,2.4448,2.5601,2.6353,2.6371,2.6627,2.7068,2.7308,2.7977,2.9184,2.9508,3.0026,3.0664,3.082,3.0898,3.0898,3.0898,3.0898,3.084,2.9941,2.9626,2.9509,2.8237,2.7441,2.709,2.666,2.6269,2.5908,2.583,2.581,2.5791,2.5713,0.0,0.0,0.0,0.0,2.6465,2.6797,2.7559,2.8457,2.9238,2.9883,3.0586,3.1758,3.2109,3.2363,3.3144,3.3711,3.4199,3.4609,3.5078,3.541,3.5488,3.5781,3.6016,3.6016,3.62,3.6451,3.6519,3.6991,3.7482,3.7549,3.8838,3.9299,3.8304,4.0192,4.1075,3.9953,4.0882,4.1524,4.1524,4.1524,4.1651,4.182,4.182,4.197,4.2201,4.2138,4.2138,4.2138,4.1756,4.1373,4.1117,4.338,4.3841,4.2793,4.2793,4.2138,4.1117,4.1117,4.1117,4.1117,4.1117,4.1052,4.0988,4.0795,4.1117,4.1478,0.0,0.0,0.0,0.0,0.0,0.0,0.0,0.0,0.0,0.0,1.7793,1.8146,1.9124,2.021,2.0979,2.1081,2.1962,2.2502,2.2603,0.0,0.0,2.5561,2.5527,2.5887,2.6489,2.6561,2.7222,2.8624,2.897,2.9407,2.9766,3.0527,3.0898,3.0898,3.0898,3.0898,3.084,2.9941,2.9626,2.9509,2.8237,2.7689,2.7591,2.709,2.6894,2.6797,2.6426,2.6309,2.625,2.581,2.5693,0.0,0.0,0.0,2.6406,2.6465,2.7324,2.8398,2.8867,2.9883,3.0937,3.1465,3.1894,3.2285,3.2773,3.3496,3.4199,3.4609,3.5078,3.5508,3.5879,3.5976,3.6016,3.6016,3.6016,3.6152,3.6451,3.6586,3.6856,3.7549,3.7816,3.8017,3.8171,3.8503,3.8636,3.8503,3.8636,3.8747,3.8747,3.8747,3.9254,4.0452,4.0452,4.1011,4.2201,4.1924,4.1734,4.1734,4.1117,4.0624,4.0322,4.071,4.0968,4.1011,4.1011,4.0946,4.0753,4.0753,4.0753,4.0753,4.0753,4.0559,4.0192,3.9256,3.9779,4.0688,0.0,0.0,0.0,0.0,0.0,0.0,0.0,0.0,0.0,0.0,0.0,1.7793,1.8251,1.928,1.9952,1.9952,2.0979,2.1944,2.2775,2.3459,2.4307,2.5344,2.5414,2.5558,2.5829,2.6228,2.6905,2.7943,2.8473,2.9058,2.9626,2.9961,3.0156,3.0156,3.0156,3.0156,3.0117,2.9473,2.9199,2.9141,2.834,2.7871,2.7689,2.7461,2.7226,2.6992,2.6797,2.6738,2.668,2.625,2.6094,2.6055,2.5771,0.0,0.0,0.0,2.6621,2.7168,2.8555,2.9687,3.0664,3.1348,3.166,3.1973,3.2637,3.3262,3.3828,3.4258,3.4902,3.5527,3.5937,3.6016,3.6016,3.6016,3.6016,3.6084,3.62,3.6384,3.6654,3.7011,3.7348,3.7683,3.7837,3.8037,3.8191,3.8191,3.8191,3.8191,3.8191,3.8191,3.8437,3.9057,3.9078,3.9233,3.9605,3.9474,3.919,3.8774,3.9322,3.8948,3.7842,3.8639,3.908,3.9212,3.9212,3.8816,3.8109,3.8109,3.8109,3.8109,3.8109,3.7975,3.7775,3.7327,3.7642,3.8287,0.0,0.0,0.0,0.0,0.0,0.0,0.0,0.0,0.0,0.0,0.0,1.7687,1.8003,0.0,0.0,0.0,2.0672,2.1671,2.2501,2.2775,2.3323,2.4189,2.4535,2.4726,2.4939,2.57,2.6548,2.745,2.8033,2.8671,2.9238,2.9355,2.9355,2.9258,2.9528,2.9626,2.9607,2.9101,2.8926,2.8887,2.8574,2.8262,2.7988,2.8158,2.7949,2.7656,2.7539,2.7441,2.7285,2.6855,2.6562,2.6309,2.583,2.5508,0.0,0.0,0.0,2.6415,2.8262,2.9394,3.0215,3.0996,3.1348,3.168,3.2324,3.2891,3.3379,3.3828,3.4512,3.5176,3.5605,3.5879,3.6016,3.6016,3.6016,3.6016,3.6016,3.62,3.6403,3.6539,3.7011,3.7415,3.7549,3.7904,3.8125,3.8191,3.8191,3.8191,3.8191,3.8191,3.8171,3.8037,3.8037,3.7837,3.7482,3.7348,3.7011,3.6384,3.7441,3.724,3.6016,3.7079,3.7595,3.7595,3.7595,3.6991,3.6016,3.6016,3.6016,3.6016,3.6016,3.6016,3.6016,3.6016,3.6132,3.6336,0.0,0.0,0.0,0.0,0.0,0.0,0.0,0.0,0.0,0.0,0.0,1.7989,1.902,2.0107,2.0826,2.0826,2.181,2.203,2.1062,2.1996,2.2097,2.1197,2.2131,0.0,2.358,2.4674,2.5918,2.7328,2.7733,2.8052,2.8359,2.8769,2.873,2.8398,2.9219,2.9626,2.9607,2.9101,2.8926,2.8926,2.8906,2.8867,2.8906,2.9316,2.9509,2.9375,2.8965,2.8574,2.8164,2.7787,2.707,2.6309,2.583,2.5674,2.5577,0.0,0.0,0.0,2.8086,2.8945,2.9707,3.0156,3.0898,3.1523,3.1582,3.2226,3.2949,3.3379,3.3828,3.4258,3.4687,3.5449,3.6016,3.6016,3.6016,3.6016,3.6016,3.6016,3.6132,3.6451,3.6519,3.6856,3.7549,3.7616,3.777,3.8191,3.8191,3.8191,3.8191,3.8191,3.8037,3.7616,3.7616,3.7482,3.7146,3.6722,3.6403,3.6016,3.6084,3.6084,3.6016,3.6084,3.6084,3.6084,3.6084,3.6084,3.6016,3.6016,3.6016,3.6016,3.6016,3.6016,3.6016,3.6016,3.6016,3.6016,0.0,0.0,0.0,0.0,0.0,0.0,0.0,0.0,0.0,0.0,0.0,0.0,0.0,2.0285,2.0104,1.9102,2.0555,2.1607,2.1912,2.2987,2.3438,2.302,2.3388,2.3341,2.2858,2.434,2.5303,2.558,2.685,2.7743,2.8301,2.8437,2.8437,2.8301,2.8613,2.875,2.873,2.8594,2.8672,2.8926,2.8926,2.9082,2.9355,2.9567,2.9626,2.9551,2.9394,2.9238,2.8965,2.8041,2.7637,2.7344,2.5801,2.5508,2.5596,2.5195,2.5801,2.6797,2.7656,2.8105,2.8652,2.9883,3.0234,3.0488,3.1328,3.1758,3.2168,3.2871,3.3359,3.3789,3.4219,3.5019,3.5605,3.5605,3.584,3.6016,3.6016,3.6016,3.6016,3.6132,3.6384,3.6586,3.6856,3.7146,3.7348,3.7502,3.7502,3.7502,3.7502,3.7502,3.7435,3.728,3.728,3.7079,3.6722,3.6336,3.6152,3.6016,3.6016,3.6016,3.6016,3.6016,3.6016,3.6016,3.6016,3.6016,3.6016,3.6016,3.6016,3.6016,3.6016,3.6016,3.6016,3.6016,3.6016,3.6016,0.0,0.0,0.0,0.0,0.0,0.0,0.0,0.0,1.9803,1.9549,0.0,0.0,0.0,0.0,2.1294,2.0223,2.0909,2.148,2.1839,2.2788,2.317,2.2802,2.352,2.352,2.282,2.429,2.5075,2.5054,2.5945,2.6955,2.8086,2.7829,2.7906,2.8301,2.8301,2.8301,2.8301,2.8437,2.8672,2.8945,2.9238,2.9512,2.9805,2.9961,3.0019,3.0019,3.0019,2.9922,2.9648,2.8809,2.8418,2.8008,2.6445,2.584,2.5596,2.5195,2.5586,2.6328,2.7051,2.7493,2.8022,2.9238,2.9668,3.0,3.0879,3.1309,3.168,3.2246,3.2715,3.3125,3.3574,3.4238,3.4883,3.5332,3.5742,3.6016,3.6016,3.6016,3.6016,3.6016,3.62,3.6384,3.6519,3.6722,3.6944,3.7079,3.7079,3.7079,3.7079,3.7079,3.7011,3.6876,3.6809,3.6606,3.6316,3.6084,3.6016,3.6016,3.6016,3.6016,3.6016,3.6016,3.6016,3.6016,3.6016,3.6016,3.6016,3.6016,3.6016,3.6016,3.6016,3.6016,3.6016,3.6016,3.6016,3.6016,0.0,0.0,0.0,0.0,0.0,0.0,0.0,0.0,1.9895,1.9099,0.0,0.0,0.0,0.0,0.0,2.4438,2.3062,2.1816,2.0748,2.1341,2.1234,2.0076,2.2114,2.3235,2.3235,2.4313,2.5248,2.5968,2.5227,2.5841,2.7656,2.6854,2.7168,2.8281,2.8281,2.8281,2.832,2.875,2.8926,2.9004,2.9863,3.0195,3.0273,3.0742,3.0918,3.0918,3.0918,3.0625,3.0234,3.0215,2.9375,2.8262,2.7832,2.6797,2.5615,2.5234,2.541,2.5791,0.0,0.0,0.0,2.8184,2.9219,3.0137,3.0176,3.0859,3.1484,3.1504,3.1855,3.2285,3.2695,3.3125,3.3828,3.5117,3.5684,3.5976,3.5976,3.5996,3.5996,3.5996,3.6016,3.6152,3.6451,3.6519,3.6654,3.7011,3.7079,3.7079,3.7059,3.7059,3.6836,3.6479,3.6093,3.5996,3.5996,3.5996,3.6016,3.6016,3.6016,3.6016,3.6016,3.6016,3.6016,3.6016,3.6016,3.6016,3.6016,3.6016,3.6016,3.6016,3.6016,3.6016,3.6016,3.6016,3.6016,3.6016,0.0,0.0,0.0,0.0,0.0,2.0407,2.0143,2.1751,2.2577,0.0,0.0,0.0,2.2405,2.2356,2.3091,2.4685,2.347,2.2728,2.3048,2.2413,2.1835,2.1267,2.181,2.2165,2.2131,2.337,2.4267,2.4753,2.556,2.6352,2.7187,2.6995,2.7207,2.7885,2.7885,2.8008,2.832,2.875,2.9101,2.9434,2.998,3.0391,3.0742,3.1172,3.1348,3.1387,3.1699,3.1523,3.1055,3.041,2.9961,2.9492,2.8437,2.7031,2.5732,2.5957,2.5879,2.5791,2.6269,0.0,0.0,0.0,0.0,0.0,2.9922,3.0391,3.0742,3.1387,3.1621,3.1836,3.2266,3.2676,3.3086,3.3457,3.4394,3.5059,3.5059,3.5351,3.5566,3.5566,3.584,3.6016,3.6152,3.6152,3.6219,3.6287,3.6287,3.615,3.5922,3.5567,3.5323,3.5191,3.5125,3.5234,3.5566,3.5566,3.5723,3.6016,3.6016,3.6016,3.6016,3.6016,3.6016,3.6016,3.6016,3.6016,3.6016,3.6016,3.6016,3.6016,3.6016,3.6016,3.6016,3.6016,3.6016,3.6016,0.0,0.0,2.1654,2.2131,2.1493,2.107,2.1384,2.226,2.2844,0.0,0.0,0.0,2.5566,2.4218,2.4138,2.6006,2.462,2.39,2.4333,2.3861,2.3358,2.3029,2.3417,2.3379,2.2735,2.3452,2.3977,2.4226,2.473,2.5579,2.6758,2.6404,2.6666,2.7402,2.763,2.7865,2.8086,2.8867,2.9336,2.9685,3.0234,3.0762,3.1191,3.1426,3.1738,3.209,3.2344,3.2266,3.1953,3.125,3.0644,2.9941,2.8496,2.7344,2.6484,2.6211,2.5888,2.5752,2.6055,2.6055,2.625,2.7246,0.0,0.0,2.8945,2.9551,3.0078,3.0605,3.084,3.1152,3.1777,3.209,3.2324,3.25,3.3164,3.3828,3.4355,3.4824,3.5176,3.5371,3.543,3.5605,3.5976,3.5859,3.584,3.6016,3.6016,3.5918,3.5664,3.5234,3.498,3.498,3.4805,3.4824,3.5098,3.5293,3.5527,3.5762,3.5937,3.6016,3.6016,3.6016,3.6016,3.6016,3.6016,3.6016,3.6035,3.6211,3.6191,3.6016,3.6016,3.6016,3.6016,3.6016,3.6016,3.6016,0.0,0.0,2.395,2.5017,2.3885,2.3121,2.4146,2.2866,2.2302,0.0,2.4724,2.6452,2.9088,2.7305,2.6446,2.7726,2.6081,2.503,2.5162,2.529,2.5185,2.4783,2.5554,2.5477,2.422,2.4115,2.4146,2.4295,2.3589,2.4293,2.6109,2.5526,2.5764,2.6749,2.735,2.7708,2.7865,2.9098,2.9646,2.9707,3.0547,3.1133,3.1523,3.1621,3.2168,3.2871,3.2969,3.2969,3.2871,3.2402,3.1367,3.0019,2.855,2.7943,2.75,2.6309,2.583,2.5752,2.5693,2.6016,2.6328,2.6387,2.7285,0.0,2.7845,2.8706,2.9492,2.9492,2.9863,3.043,3.1152,3.1387,3.1582,3.1973,3.207,3.25,3.3691,3.4219,3.4668,3.5117,3.4844,3.4961,3.5801,3.5527,3.5488,3.5918,3.5957,3.5957,3.5957,3.5508,3.5254,3.5254,3.4805,3.459,3.4629,3.5078,3.5351,3.5391,3.582,3.6016,3.6016,3.6016,3.6035,3.6094,3.6094,3.6113,3.6191,3.6582,3.6465,3.6035,3.6074,3.6055,3.6016,3.6016,3.6016,3.6016,2.4671,2.3727,2.2714,2.2509,2.3795,2.467,2.4214,2.5109,2.5577,2.4926,2.5288,2.6248,2.7774,2.6994,2.6807,2.7915,2.6601,2.6027,2.6791,2.5679,2.4857,2.4472,2.3999,2.4056,2.4661,2.4262,2.4492,2.5382,2.5263,2.4937,2.4573,2.5279,2.5457,2.5293,2.6577,2.7519,2.8242,2.9235,2.9766,3.0117,3.0664,3.1133,3.1601,3.2285,3.2851,3.3379,3.4082,3.4101,3.3711,3.293,3.1816,3.0703,3.0371,2.9297,2.8047,2.7461,2.6797,2.6191,2.5791,2.5752,2.5957,2.6309,2.6836,0.0,2.8027,2.8633,2.9043,2.9043,2.9668,3.0137,2.998,3.0527,3.1035,3.1133,3.1426,3.1855,3.2461,3.291,3.332,3.375,3.4043,3.4394,3.4902,3.4883,3.5019,3.5488,3.5508,3.5508,3.5508,3.4766,3.4336,3.4336,3.3906,3.3848,3.4199,3.4629,3.5019,3.5391,3.582,3.6016,3.6016,3.6016,3.6211,3.6543,3.6543,3.6738,3.7051,3.7148,3.6719,3.6055,3.6406,3.6328,3.6016,3.6016,3.6016,3.6016,2.6336,2.5899,2.5141,2.4464,2.5023,2.5558,2.5568,2.6012,2.6442,2.6562,2.6806,2.7656,2.9653,2.8985,2.8552,2.9052,2.8074,2.7584,2.804,2.6945,2.6295,2.635,2.5927,2.5522,2.5102,2.4679,2.4727,2.5244,2.5017,2.4903,2.4922,2.5711,2.5557,2.479,2.657,2.7361,2.7514,2.8978,2.9805,3.0234,3.0703,3.1269,3.1914,3.2559,3.3457,3.4492,3.5137,3.5078,3.457,3.3476,3.2402,3.1445,3.1035,2.998,2.8809,2.8164,2.7519,2.6894,2.623,2.6055,2.6055,2.6055,2.6387,0.0,0.0,2.7656,2.8086,2.8516,2.8945,2.9238,2.9238,2.9961,3.0469,3.0273,3.0781,3.1289,3.1504,3.207,3.2637,3.3066,3.3125,3.3379,3.4004,3.4062,3.4336,3.5,3.5039,3.5156,3.5391,3.4551,3.416,3.4375,3.3769,3.3535,3.375,3.4375,3.4824,3.5059,3.5703,3.6016,3.6035,3.625,3.6465,3.668,3.6894,3.7109,3.7324,3.7519,3.7226,3.668,3.6894,3.6855,3.666,3.666,3.666,3.6621,2.7799,2.8037,2.7831,2.6955,2.6483,2.6392,2.697,2.6554,2.6764,2.8478,2.872,2.9556,3.1769,3.0977,3.0303,3.0259,2.958,2.9218,2.9416,2.8716,2.8427,2.8774,2.8476,2.7598,2.6001,2.5465,2.5186,2.5093,2.474,2.4831,2.5382,2.6073,2.5767,2.4739,2.6877,2.753,2.7084,2.8928,2.998,3.0488,3.0859,3.1523,3.2344,3.2851,3.4062,3.5586,3.6094,3.5937,3.5351,3.4277,3.3242,3.2285,3.1601,3.0664,2.9668,2.8887,2.8301,2.7715,2.6855,2.6641,2.6523,2.6094,2.625,2.6523,0.0,0.0,0.0,2.791,2.8184,0.0,0.0,2.9453,2.9941,2.9512,0.0,0.0,0.0,3.1172,0.0,3.248,3.2246,3.2344,3.3105,3.332,3.3711,3.4394,3.4609,3.4902,3.5371,3.4551,3.4258,3.4687,3.3867,3.3418,3.3418,3.4277,3.4707,3.4707,3.5684,3.6152,3.6152,3.6601,3.6836,3.6934,3.7266,3.7461,3.7578,3.791,3.7851,3.7539,3.7461,3.7363,3.7305,3.7305,3.7305,3.7246,2.6916,2.7031,2.7066,2.6197,2.7102,2.7871,2.7486,2.7685,2.8576,3.0637,3.092,3.1048,3.1367,3.1054,3.0788,3.0662,3.0303,3.0555,3.1769,3.0975,3.0568,3.0605,2.9121,2.8189,2.7985,2.7137,2.6555,2.6237,2.6179,2.5481,2.4313,2.5756,2.5817,2.4896,2.7185,2.8403,2.8687,2.9709,3.0605,3.1367,3.1426,3.1953,3.2812,3.3613,3.4766,3.6055,3.6855,3.6641,3.5937,3.5781,3.4629,3.3262,3.3164,3.2031,3.0644,3.0137,0.0,0.0,0.0,0.0,2.7422,2.6973,2.6914,2.7051,2.7493,0.0,2.7051,2.7148,0.0,0.0,0.0,0.0,0.0,0.0,0.0,0.0,2.9199,2.9551,3.0312,3.1523,3.1621,3.1777,3.2266,3.2988,3.3457,3.3555,3.4277,3.4902,3.5371,3.4551,3.4258,3.4687,3.3867,3.3418,3.3418,3.4277,3.4707,3.4726,3.5996,3.6601,3.6601,3.7031,3.7422,3.7773,3.7832,3.8066,3.8437,3.8476,3.8476,3.8398,3.8008,3.7617,3.7305,3.7305,3.7305,3.7285,2.7638,2.7306,2.6803,2.5904,2.6783,2.7624,2.7899,2.8391,2.9426,3.1421,3.0954,3.1175,3.3065,3.3192,3.2337,3.0414,2.9895,2.9832,3.0103,2.9578,2.9754,3.0859,3.0195,2.9551,2.9043,2.8203,2.7676,2.75,2.6992,2.6439,2.5793,2.671,2.6678,2.5855,2.6989,2.7512,2.757,2.889,2.9783,3.0524,3.1999,3.3144,3.3945,3.4297,3.5547,3.7168,3.7539,3.7422,3.7051,3.6562,3.5586,3.4512,3.4238,3.3164,0.0,3.1465,0.0,0.0,0.0,0.0,2.8242,2.7559,2.7402,2.7441,2.7669,2.7324,2.709,2.7344,0.0,0.0,0.0,0.0,0.0,0.0,2.8379,0.0,0.0,0.0,0.0,0.0,0.0,0.0,3.1719,3.2109,3.2519,3.3027,3.3398,3.3906,3.459,3.4043,3.3887,3.4316,3.375,3.3418,3.3418,3.4277,3.4824,3.5117,3.6172,3.6797,3.7051,3.7461,3.7754,3.793,3.8184,3.8398,3.8574,3.8574,3.8574,3.8555,3.8379,3.8203,3.8047,3.8047,3.8047,3.8008,2.8457,2.8079,2.7492,2.6857,2.6991,2.7415,2.8295,2.931,3.0639,3.232,3.1445,3.1474,3.3841,3.3747,3.2556,3.0185,3.0174,3.0092,2.9665,2.9595,3.0142,3.1561,3.1133,3.0586,2.9941,2.9082,2.8535,2.8301,2.7676,2.7246,2.7031,2.7578,2.7351,2.65,2.7066,2.7039,2.6592,2.7896,2.9077,3.0131,3.2163,3.3992,3.543,3.5547,3.6562,3.7949,3.8066,3.8027,3.7832,3.7226,3.6445,3.5664,3.5215,3.4258,3.3242,0.0,0.0,0.0,3.0351,2.9785,2.9258,2.8452,2.8105,2.8008,2.8008,2.75,2.7129,2.7578,0.0,0.0,0.0,0.0,0.0,0.0,0.0,2.791,0.0,0.0,0.0,0.0,0.0,0.0,0.0,3.1367,3.1777,3.2402,3.2656,3.3125,3.3848,3.3594,3.3633,3.4062,3.3769,3.3652,3.3769,3.4629,3.5293,3.5762,3.6601,3.7168,3.748,3.791,3.8105,3.8125,3.8437,3.8574,3.8574,3.8574,3.8574,3.8574,3.8574,3.8574,3.8574,3.8574,3.8574,3.8535,2.8906,2.9202,2.9495,2.9514,2.8346,2.7792,2.8626,3.0573,3.2404,3.3869,3.3087,3.2448,3.2533,3.124,3.0276,3.0191,3.1559,3.2411,3.2411,3.2929,3.3233,3.334,3.1758,3.0879,3.0859,2.998,2.9121,2.8301,2.8262,2.7832,2.7031,2.7871,2.7618,2.6482,2.7708,2.7598,2.6473,2.721,2.8835,3.0962,3.1727,3.4086,3.7266,3.7676,3.7871,3.7969,3.8398,3.8281,3.791,3.7891,3.7324,3.6562,3.6113,3.5351,3.4551,0.0,0.0,0.0,3.168,3.1152,3.0625,2.9783,2.9199,2.8887,2.8887,2.791,2.7129,0.0,0.0,0.0,0.0,0.0,0.0,0.0,0.0,0.0,0.0,0.0,0.0,0.0,0.0,0.0,0.0,3.1016,3.1523,0.0,3.2324,3.2988,3.3418,3.3437,3.3633,3.4062,3.4062,3.4238,3.4648,3.5527,3.6191,3.6641,3.748,3.7891,3.791,3.8359,3.8555,3.8555,3.8574,3.8574,3.8574,3.8574,3.8574,3.8574,3.8574,3.8574,3.8574,3.8574,3.8574,3.8574,2.9355,2.9687,2.9754,2.8879,2.9044,2.9564,3.0355,3.0472,3.0782,3.1581,3.0719,3.0596,3.2001,3.1702,3.0997,2.9932,3.0359,3.0443,2.996,3.0105,3.0304,3.0502,3.0872,3.0723,2.9901,3.0257,3.0156,2.9551,2.8984,2.8555,2.8281,2.8574,2.8629,2.8496,2.8384,2.7843,2.7149,2.7901,2.8412,2.8893,3.1358,3.3302,3.5116,3.7483,3.8535,3.8789,3.8945,3.8906,3.873,3.8437,3.7969,3.748,3.7324,3.6504,3.5488,3.5078,3.4336,3.3457,3.2598,3.2266,3.1875,3.0723,3.0332,3.0078,2.9473,2.9023,2.8594,0.0,0.0,0.0,0.0,0.0,0.0,0.0,0.0,0.0,0.0,0.0,0.0,0.0,0.0,0.0,0.0,0.0,0.0,0.0,0.0,0.0,3.2969,3.3262,3.3496,3.3633,3.4199,3.4551,3.4707,3.5586,3.6387,3.709,3.7656,3.8086,3.8359,3.8516,3.8574,3.8574,3.8574,3.8574,3.8574,3.8574,3.8574,3.8574,3.8574,3.8574,3.8574,3.8574,3.8574,3.8574,2.9824,3.0137,3.0199,2.9389,3.0287,3.1252,3.1479,3.1019,3.0895,3.1281,3.0053,2.9624,3.1015,3.0818,3.0169,2.9155,2.9524,2.9701,2.917,2.9511,3.0057,3.0691,3.1127,3.1185,3.0822,3.0988,3.0898,3.0449,2.9726,2.9219,2.8926,2.9238,2.9211,2.8841,2.818,2.7452,2.6798,2.7082,2.7421,2.8164,3.1504,3.3633,3.4976,3.7446,3.8402,3.8498,3.8498,3.8892,3.9414,3.9141,3.875,3.8359,3.8203,3.748,3.6621,3.6191,3.5566,3.4785,3.375,3.3359,3.2949,3.166,3.1348,3.1113,3.0234,2.9922,2.959,0.0,0.0,0.0,0.0,0.0,0.0,0.0,0.0,0.0,0.0,0.0,0.0,0.0,0.0,0.0,0.0,0.0,0.0,0.0,0.0,0.0,0.0,3.3105,3.3496,3.3652,3.4629,3.5234,3.541,3.6269,3.7051,3.7754,3.8027,3.8301,3.8574,3.8574,3.8574,3.8574,3.8574,3.8574,3.8574,3.8574,3.8574,3.8574,3.8574,3.8574,3.8574,3.8574,3.8574,3.8574,3.0391,3.0664,3.0996,3.1016,3.2031,3.2667,3.2115,3.2246,3.2515,3.2866,3.0973,2.9571,2.9618,2.8611,2.7932,2.7976,2.9379,3.017,3.0155,3.1128,3.2185,3.3278,3.2209,3.2032,3.3077,3.1983,3.1209,3.0859,3.0334,2.9692,2.8894,2.9692,2.9165,2.7498,2.7138,2.6477,2.5471,2.496,2.6117,2.8573,3.2026,3.4708,3.667,3.7436,3.749,3.7334,3.7469,3.85,3.9922,3.9902,3.9609,3.916,3.8769,3.834,3.791,3.7461,3.7051,3.6445,3.5117,3.4473,3.3867,3.2578,3.2266,3.2031,3.1152,3.0625,3.0195,0.0,0.0,0.0,0.0,0.0,0.0,0.0,0.0,0.0,0.0,0.0,0.0,0.0,0.0,0.0,0.0,0.0,0.0,0.0,0.0,0.0,0.0,0.0,3.3594,3.4062,3.5332,3.623,3.666,3.75,3.8144,3.8574,3.8574,3.8574,3.8574,3.8574,3.8574,3.8574,3.8574,3.8574,3.8574,3.8594,3.8613,3.8613,3.8633,3.8633,3.8633,3.8594,3.8613,3.8633,3.168,3.2012,3.2402,3.2715,3.3047,3.2912,3.1985,3.1527,3.1012,3.0194,2.894,2.8327,2.9045,2.8824,2.8842,2.9325,2.9765,2.9882,2.9643,2.9834,2.9793,2.9412,2.9865,2.9798,2.9044,2.9501,2.9744,2.9818,2.9331,2.8944,2.8442,2.8704,2.8028,2.6713,2.6919,2.6566,2.5897,2.6215,2.7153,2.8492,2.9928,3.1842,3.3908,3.409,3.5867,3.8375,3.9356,3.997,4.0312,4.0,3.9824,3.9707,3.959,3.9238,3.873,3.7988,3.7676,3.7324,3.6035,3.5605,3.5215,3.3906,3.3574,3.3344,3.2109,3.1992,3.1816,3.0762,3.0469,0.0,0.0,0.0,0.0,0.0,0.0,0.0,0.0,0.0,0.0,0.0,0.0,0.0,0.0,0.0,0.0,0.0,0.0,0.0,0.0,0.0,0.0,3.4043,3.5332,3.623,3.666,3.75,3.8144,3.8574,3.8574,3.8574,3.8574,3.8574,3.8574,3.8574,3.8574,3.8574,3.8594,3.8906,3.9043,3.9082,3.9414,3.9551,3.9473,3.8809,3.8984,3.9512,3.2207,3.2656,3.3015,3.2765,3.3017,3.3077,3.2423,3.163,3.0684,2.972,2.8686,2.8359,2.9032,2.9237,2.9456,2.9837,2.9866,2.9793,2.9603,2.9588,2.9597,2.9502,2.9816,2.9768,2.9367,2.9329,2.9613,3.0189,2.9441,2.9172,2.9446,2.8843,2.807,2.7223,2.6472,2.6137,2.6071,2.6722,2.7518,2.8505,2.9281,3.0926,0.0,3.3079,3.4939,3.7657,3.9112,3.9679,3.9718,4.0297,3.9855,3.9128,3.9928,3.9863,3.9414,3.8926,3.8789,3.8496,3.7207,3.6855,3.6543,3.5254,3.4922,3.4629,3.3535,3.332,3.3047,3.1953,3.1582,3.125,3.0547,0.0,0.0,0.0,0.0,0.0,0.0,0.0,0.0,0.0,0.0,0.0,0.0,0.0,0.0,0.0,0.0,0.0,0.0,0.0,0.0,3.4316,3.5625,3.6504,3.6934,3.7793,3.834,3.8574,3.8574,3.8574,3.8574,3.8574,3.8574,3.8594,3.8769,3.8848,3.8887,3.9316,3.9512,3.9531,3.9785,4.0019,4.0098,3.9394,3.9473,3.9863,3.2578,3.3086,3.3283,3.2224,3.2618,3.308,3.2831,3.1825,3.0844,3.0123,2.941,2.909,2.9471,2.9764,2.9939,2.9983,2.9983,2.9983,2.9983,2.9983,3.0465,3.137,3.0809,3.0723,3.1343,2.9993,2.978,3.0703,2.9556,2.9512,3.0429,2.9194,2.8442,0.0,0.0,0.0,0.0,2.6807,2.7671,2.8637,2.9559,3.1154,3.3,3.3317,3.4474,3.6236,3.7755,3.8231,3.8566,4.0529,3.9618,3.8034,3.9971,4.0046,3.9413,3.9602,3.9658,3.9406,3.8132,3.7909,3.7793,3.6582,3.6269,3.6035,3.5078,3.4629,3.416,3.3242,3.2754,3.2324,3.1777,0.0,0.0,0.0,0.0,0.0,0.0,0.0,0.0,0.0,0.0,0.0,0.0,0.0,0.0,0.0,0.0,0.0,0.0,0.0,0.0,3.457,3.5898,3.6747,3.7003,3.8072,3.8355,3.797,3.819,3.8282,3.8282,3.834,3.8506,3.8691,3.9101,3.9297,3.9336,3.9785,3.9849,3.9736,3.9508,3.974,4.024,3.9872,3.9907,4.0059,3.4277,3.4375,3.4181,3.3458,3.3422,3.2931,3.1351,3.0695,3.0064,2.9239,2.9203,2.9515,3.0196,3.0313,3.0378,3.0627,3.0656,3.0656,3.0656,3.0656,3.0592,3.0595,3.0209,2.9729,2.9033,2.8236,2.7987,2.8138,2.7409,2.7377,2.8062,2.7583,2.7289,0.0,0.0,0.0,2.6116,2.7262,2.833,2.9281,2.9983,3.1502,3.3349,3.3413,3.4474,3.6075,3.6316,3.6477,3.6957,4.0118,3.9022,3.6852,4.0082,3.9067,3.6852,3.7961,3.8257,3.8128,3.7572,3.8177,3.875,3.7812,3.7598,3.7266,3.6055,3.6016,3.5859,3.4629,3.4316,3.3906,3.2773,3.1875,0.0,0.0,0.0,0.0,0.0,0.0,0.0,0.0,0.0,0.0,0.0,0.0,0.0,0.0,0.0,0.0,0.0,0.0,0.0,0.0,3.5449,3.5862,0.0,3.7475,3.7217,3.4561,3.5941,3.6608,3.6627,3.6961,3.7876,3.9121,3.957,3.9766,3.9805,4.0234,3.9817,3.8679,3.724,3.7593,3.8929,3.8855,3.9734,4.0898,3.5019,3.4547,3.3911,3.318,3.2478,3.1605,3.0238,3.0082,2.9892,2.9433,2.9676,3.0071,3.0539,3.0598,3.0656,3.0817,3.0817,3.0817,3.0817,3.0817,3.0759,3.0598,3.029,2.9734,2.8944,2.8139,2.7818,2.8095,2.7209,2.7133,2.7781,2.6727,2.6154,2.6022,0.0,2.5404,0.0,2.7319,2.8505,2.9427,3.0167,3.1018,3.2046,3.2046,3.2608,3.3413,3.4311,3.4066,3.3969,3.8408,3.817,3.6477,3.9059,3.8724,3.7321,3.6967,3.6914,3.6825,3.6454,3.7367,3.8387,3.7782,3.8243,3.873,3.7871,3.748,3.707,3.623,3.5527,3.4668,3.3359,3.2598,3.1973,3.1328,0.0,0.0,0.0,0.0,0.0,0.0,0.0,0.0,0.0,0.0,0.0,0.0,0.0,0.0,0.0,0.0,0.0,0.0,0.0,0.0,3.4882,0.0,3.6164,3.3751,3.4696,3.518,3.5197,3.551,3.6147,3.6852,3.7349,3.755,3.7568,3.797,3.7831,3.7197,3.6316,3.6477,3.7277,3.7277,3.8329,3.9924,3.48,3.4084,3.318,3.2419,3.1534,3.0592,2.9724,2.9807,3.0049,3.0049,3.0246,3.0554,3.0803,3.0817,3.0817,3.0817,3.0817,3.0817,3.0817,3.0817,3.0817,3.0817,3.0583,3.0173,2.9603,2.871,2.8298,2.8433,2.7407,2.7242,2.7889,2.6372,2.5644,2.5501,2.5373,2.5721,2.65,2.773,2.8769,2.9632,3.0217,3.0598,3.0817,3.0817,3.0817,3.0984,3.2376,3.1963,3.1467,3.5994,3.6316,3.5268,3.7357,3.7516,3.6717,3.5753,3.543,3.5379,3.5093,3.6184,3.7433,3.6958,3.8212,3.9354,3.8911,3.8515,3.8184,3.7676,3.6562,3.5312,3.418,3.3555,3.2922,3.2247,0.0,0.0,0.0,0.0,0.0,0.0,0.0,0.0,0.0,0.0,0.0,0.0,0.0,0.0,0.0,0.0,0.0,0.0,0.0,3.4655,3.3946,0.0,3.4689,3.2806,3.3396,3.3735,3.3835,3.4127,3.4531,3.4862,3.5316,3.5566,3.5504,3.5473,3.543,3.543,3.5025,3.5106,3.543,3.543,3.6557,3.8249,3.3059,3.3015,3.2675,3.1802,3.1557,3.1197,3.0403,3.0372,3.0387,3.0387,3.0583,3.0788,3.0817,3.0817,3.0817,3.0817,3.0817,3.0817,3.0817,3.0817,3.0817,3.0817,3.0803,3.0612,3.0343,2.9588,2.8846,2.7968,2.6982,2.6769,2.7266,2.6697,2.6561,2.6877,2.7385,2.7687,2.7757,2.8827,2.9632,3.0372,3.0642,3.0803,3.0817,3.0817,3.0817,3.0817,3.0984,3.09,3.115,3.3183,3.269,3.1881,3.5187,3.405,3.1798,3.3265,3.3674,3.3658,3.3626,3.483,3.6098,3.5639,3.6795,3.7951,3.7546,3.8652,3.9473,3.8633,3.7441,3.6387,3.5879,3.5098,3.39,3.2162,0.0,0.0,0.0,0.0,0.0,0.0,0.0,0.0,0.0,0.0,0.0,0.0,0.0,0.0,0.0,0.0,0.0,2.9609,0.0,3.1511,3.0653,3.2851,3.255,2.9799,3.1308,3.2187,3.2507,3.2858,3.3883,3.5333,3.5789,3.5943,3.5782,3.4294,3.3674,3.351,3.1881,3.2293,3.3674,3.3674,3.4717,3.6236,3.3163,3.2408,3.1866,3.2269,3.1293,3.0506,3.0651,3.0627,3.0627,3.0627,3.0744,3.0817,3.0817,3.0817,3.0817,3.0817,3.0817,3.0817,3.0817,3.0817,3.0817,3.0817,3.0817,3.0671,3.0446,2.9705,2.9003,2.8165,2.7466,2.6881,2.6501,2.6322,2.6246,2.6412,2.706,2.7716,2.83,2.9266,2.9939,3.046,3.07,3.0817,3.0817,3.0817,3.0817,3.0817,3.0817,3.0817,3.09,3.1632,3.2046,3.2608,3.3985,3.351,3.2293,3.1963,3.1798,3.1798,3.1798,3.3101,3.4441,3.4212,3.5451,3.6676,3.6535,3.7654,3.8573,3.8235,3.8012,3.7519,3.6582,3.6133,3.5249,3.3237,3.2747,0.0,0.0,0.0,0.0,0.0,0.0,0.0,0.0,0.0,0.0,0.0,0.0,0.0,0.0,0.0,0.0,2.9165,0.0,3.1081,3.0224,3.1798,3.1479,2.9383,3.0485,3.1063,3.1214,3.145,3.1997,3.2651,3.2792,3.2839,3.2854,3.2128,3.1798,3.1798,3.1067,3.1233,3.1798,3.1798,3.2936,3.4474,3.2533,3.1589,3.1075,3.2062,3.0959,3.0238,3.0705,3.0817,3.0817,3.0817,3.0817,3.0817,3.0817,3.0817,3.0817,3.0817,3.0817,3.0817,3.0817,3.0817,3.0817,3.0817,3.0817,3.0715,3.0495,2.9954,2.9398,2.8856,2.8212,2.7438,2.6628,2.6434,2.6402,2.6603,2.7174,2.7949,2.89,2.9676,3.0188,3.051,3.0729,3.0817,3.0817,3.0817,3.0817,3.0817,3.0817,3.0817,3.0817,3.0817,3.1632,3.2623,3.2623,3.2623,3.2376,3.115,3.0817,3.0817,3.0817,3.1715,3.2623,3.2623,3.3985,3.5268,3.5268,3.6348,3.7306,3.7198,3.7724,3.7843,3.6713,3.6502,3.5817,3.3639,3.2764,0.0,0.0,0.0,0.0,0.0,0.0,0.0,2.6643,0.0,0.0,0.0,0.0,0.0,0.0,0.0,0.0,0.0,0.0,0.0,2.9849,3.067,3.0645,2.9676,3.0129,3.0475,3.0495,3.0715,3.0817,3.0817,3.0817,3.0817,3.0817,3.0817,3.0817,3.0817,3.0817,3.0817,3.0817,3.0817,3.155,3.2623,3.0357,3.0416,3.0519,3.0759,3.0817,3.0817,3.0817,3.0817,3.0817,3.0817,3.0817,3.0817,3.0817,3.0817,3.0817,3.0817,3.0817,3.0817,3.0817,3.0817,3.0817,3.0817,3.0817,3.0817,3.0817,3.051,3.0255,2.9851,2.9193,2.8641,2.8075,2.7392,2.7347,2.7874,2.8195,2.8944,2.9866,3.0284,3.0525,3.0817,3.0817,3.0817,3.0817,3.0817,3.0817,3.0817,3.0817,3.0817,3.0817,3.0817,3.0817,3.0817,3.0817,3.0817,3.0817,3.0832,3.0817,3.0817,3.0817,3.0817,3.0817,3.0817,3.2128,3.3429,3.3429,3.4782,3.5892,3.5515,3.6468,3.7023,3.6143,3.6146,3.5428,3.3033,3.2134,3.1304,0.0,0.0,0.0,0.0,2.7686,2.6695,2.8252,0.0,0.0,0.0,0.0,0.0,0.0,0.0,0.0,2.6058,2.7027,0.0,2.8949,2.9286,2.9785,3.0416,3.0431,3.051,3.0817,3.0817,3.0817,3.0817,3.0817,3.0817,3.0817,3.0817,3.0817,3.0817,3.0817,3.0817,3.0817,3.0817,3.0817,3.0817,3.0256,3.0022,3.0107,3.1011,3.0901,3.0805,3.1361,3.149,3.149,3.149,3.13,3.1154,3.1154,3.0964,3.0817,3.0817,3.0817,3.0817,3.0817,3.0817,3.0817,3.0817,3.0817,3.0817,3.0817,3.051,3.0387,3.0284,2.9764,2.9414,2.8969,2.8536,2.8502,2.893,2.9266,2.9705,3.0299,3.0539,3.0729,3.0817,3.0817,3.0817,3.0817,3.0817,3.0817,3.0817,3.0817,3.0817,3.0817,3.0817,3.0817,3.0817,3.0817,3.0817,3.0817,3.0817,3.0817,3.0817,3.0817,3.0817,3.0817,3.0817,3.1233,3.1632,3.1632,3.3019,3.4456,3.5197,3.5738,3.5809,3.5225,3.5138,3.459,3.2675,3.1891,3.0898,2.932,0.0,0.0,0.0,2.9059,2.8863,2.6969,2.6624,0.0,0.0,0.0,0.0,0.0,0.0,0.0,0.0,2.7086,0.0,2.8886,2.9427,2.9925,3.0431,3.0568,3.0729,3.0817,3.0817,3.0817,3.0817,3.0817,3.0817,3.0817,3.0817,3.0817,3.0817,3.0817,3.0817,3.0817,3.0817,3.0817,3.0817,3.0269,3.0184,3.0326,3.1121,3.0994,3.0966,3.1425,3.1368,3.1267,3.1267,3.1095,3.1065,3.1235,3.0959,3.0796,3.0832,3.0817,3.0817,3.0817,3.0817,3.0817,3.0817,3.0817,3.0817,3.0817,3.0627,3.0525,3.0525,3.0203,2.9881,2.9559,2.9354,2.9427,2.9749,2.9954,3.0232,3.0539,3.0744,3.0817,3.0817,3.0817,3.0817,3.0817,3.0817,3.0817,3.0817,3.0817,3.0817,3.0817,3.0817,3.0817,3.0817,3.0817,3.0817,3.0817,3.0817,3.0817,3.0817,3.0817,3.0817,3.0817,3.0817,3.0817,3.0817,3.0817,3.1632,3.2628,3.3467,3.421,3.4512,3.405,3.3984,3.3635,3.2491,3.148,3.0371,2.9247,2.9561,2.9367,0.0,0.0,2.9278,0.0,2.715,2.7089,0.0,0.0,0.0,0.0,0.0,2.5908,2.6852,2.7613,2.8417,2.9251,2.9778,3.0203,3.0525,3.0729,3.0817,3.0817,3.0817,3.0817,3.0817,3.0817,3.0817,3.0817,3.0817,3.0817,3.0817,3.0817,3.0817,3.0817,3.0817,3.0817,3.0817,3.0492,3.0765,3.1038,3.1052,3.1153,3.1153,3.1095,3.0735,3.0461,3.0461,3.0447,3.062,3.1066,3.0781,3.0621,3.0709,3.0749,3.0817,3.0817,3.0817,3.0817,3.0817,3.0734,3.0749,3.0749,3.0734,3.0734,3.0749,3.0525,3.0232,2.9939,2.9939,3.0086,3.0296,3.0296,3.0457,3.0734,3.0734,3.0749,3.0749,3.0832,3.0817,3.0817,3.0817,3.0817,3.0817,3.0817,3.0817,3.0817,3.0817,3.0817,3.0817,3.0817,3.0817,3.0817,3.0817,3.0817,3.0817,3.0817,3.0817,3.0817,3.0817,3.0817,3.0817,3.0817,3.0817,3.0817,3.0817,3.2128,3.3088,3.2741,3.2694,3.2599,3.2284,3.0942,2.9793,2.9486,2.9427,2.9193,2.853,2.8443,2.8256,2.7642,2.7554,2.7422,0.0,0.0,0.0,0.0,0.0,2.7291,2.7569,2.8432,2.9208,2.9895,3.0203,3.051,3.0817,3.0817,3.0817,3.0817,3.0817,3.0817,3.0817,3.0817,3.0817,3.0817,3.0817,3.0817,3.0817,3.0817,3.0817,3.0817,3.0817,3.0817,3.0817,3.0319,3.0492,3.0662,3.0902,3.1206,3.1466,3.1254,3.1194,3.1105,3.1105,3.0895,3.0843,3.0944,3.0662,3.0339,3.0114,3.0545,3.0817,3.0817,3.0817,3.0817,3.0817,3.0499,3.0346,3.0346,2.9998,2.9998,3.0346,3.0592,3.052,3.0116,3.0116,2.9979,2.9717,2.9717,2.9745,2.9816,3.0165,3.0346,3.0346,3.0665,3.0817,3.0817,3.0817,3.0817,3.0817,3.0817,3.0817,3.0817,3.0817,3.0817,3.0817,3.0817,3.0817,3.0817,3.0817,3.0817,3.0817,3.0817,3.0817,3.0817,3.0817,3.0817,3.0817,3.0817,3.0817,3.0817,3.0817,3.115,3.1369,3.1294,3.1279,3.125,3.1175,3.0639,3.0284,3.0129,2.991,2.961,2.9065,2.9072,2.8846,2.8129,2.8114,2.8183,0.0,0.0,2.8227,2.8534,2.8725,2.8739,2.8564,2.8769,2.9325,3.0299,3.0387,3.051,3.0817,3.0817,3.0817,3.0817,3.0817,3.0817,3.0817,3.0817,3.0817,3.0817,3.0817,3.0817,3.0817,3.0817,3.0817,3.0817,3.0817,3.0817,3.0817,3.0123,3.0299,3.053,3.0696,3.1003,3.1147,3.1034,3.0794,3.0616,3.0616,3.0568,3.0547,3.0724,3.0447,3.0285,3.0377,3.0382,3.0392,3.0513,3.0499,3.0499,3.0499,3.0346,3.0095,2.9914,2.9649,2.9649,2.9914,3.0067,3.0067,2.9914,2.9914,2.9747,2.9481,2.9481,2.9481,2.9481,2.9747,2.9914,2.9914,3.015,3.0317,3.0499,3.0499,3.0665,3.0817,3.0817,3.0817,3.0817,3.0817,3.0817,3.0817,3.0817,3.0817,3.0817,3.0817,3.0817,3.0817,3.0817,3.0665,3.0499,3.0499,3.0499,3.0582,3.0749,3.0817,3.0817,3.0817,3.0817,3.0817,3.0817,3.0817,3.0749,3.0582,3.0603,3.0427,3.0132,2.9958,2.9717,2.9558,2.9384,2.921,2.9037,2.9035,2.9012,2.8776,2.8933,0.0,2.9008,2.9421,2.9442,2.912,2.9398,2.9807,3.0431,3.0495,3.0656,3.0817,3.0817,3.0817,3.0817,3.0817,3.0817,3.0817,3.0817,3.0817,3.0817,3.0817,3.0817,3.0817,3.0817,3.0817,3.0817,3.0817,3.0817,3.0817,3.0003,3.0272,3.0616,3.0526,3.0526,3.0616,3.0526,3.0182,2.9913,2.9913,2.9913,3.0093,3.0437,3.0219,3.0219,3.0618,3.0218,2.9957,3.0252,3.0181,3.0153,3.0153,3.0026,2.983,2.9398,2.9398,2.9398,2.9398,2.9481,2.9481,2.9398,2.9398,2.9398,2.9314,2.9314,2.9314,2.9314,2.9398,2.9398,2.9398,2.9481,2.9747,3.0095,3.0095,3.0332,3.0567,3.0567,3.0567,3.0567,3.0567,3.0567,3.0567,3.0567,3.0567,3.0567,3.0567,3.0567,3.0651,3.0665,3.0415,3.0095,3.0095,3.0095,3.0165,3.0484,3.0567,3.0567,3.0567,3.0567,3.0651,3.0665,3.0749,3.0582,3.0263,3.0499,3.048,2.9807,2.9681,2.9746,2.9798,2.9526,2.9511,2.9858,2.9939,2.9777,2.9291,2.9697,2.9792,2.9363,2.9769,2.9881,2.9603,3.0086,3.046,3.0422,3.0685,3.0817,3.0817,3.0817,3.0817,3.0817,3.0817,3.0817,3.0817,3.0817,3.0817,3.0817,3.0817,3.0817,3.0817,3.0817,3.0817,3.0817,3.0817,3.0817,3.0817,2.9913,3.0272,3.0437,3.0093,3.0361,3.0437,3.0093,2.9913,2.9913,2.9913,2.9913,2.9913,3.0003,2.9963,2.9829,2.9764,2.9656,2.9817,3.0365,3.0099,2.9958,2.9958,2.9369,2.8992,2.8908,2.8908,2.8908,2.8908,2.9314,2.9314,2.8908,2.8908,2.874,2.8389,2.8389,2.8389,2.8389,2.874,2.8908,2.8908,2.9314,2.9565,2.9565,2.9565,2.9649,2.9732,2.9732,2.9732,2.9732,2.9732,2.9732,2.9732,2.9732,2.9732,2.9732,2.9732,2.9732,2.9816,3.0165,2.9998,2.9565,2.9565,2.9565,2.9649,2.9649,2.9732,2.9732,2.9732,2.9732,2.9816,3.0248,3.0263,3.0263,3.0179,3.0263,3.015,2.9592,2.9495,2.9564,2.9591,2.9855,2.9921,2.9731,3.0112,3.0112,2.9621,3.003,3.0229,3.0007,3.0437,3.0656,3.0598,3.0437,3.0481,3.0744,3.0803,3.0817,3.0817,3.0817,3.0817,3.0817,3.0817,3.0817,3.0817,3.0817,3.0817,3.0817,3.0817,3.0817,3.0817,3.0817,3.0817,3.0817,3.0817,3.0817,3.0817,2.9913,3.0093,3.0182,2.9913,3.0093,3.0182,2.9913,2.9913,2.9913,2.9913,2.9913,2.9913,2.9913,2.9913,2.986,2.9726,2.9713,2.9837,3.0131,2.9941,2.9766,2.9766,2.9306,2.8903,2.8487,2.8487,2.8487,2.8487,2.8726,2.8642,2.8487,2.8487,2.8403,2.8221,2.8221,2.8221,2.8234,2.8403,2.8487,2.8487,2.8726,2.8894,2.9146,2.9146,2.9314,2.9481,2.9481,2.9481,2.9481,2.9481,2.9481,2.9481,2.9481,2.9481,2.9481,2.9481,2.9481,2.9481,2.9495,2.9328,2.9146,2.9146,2.9146,2.9146,2.9398,2.9481,2.9481,2.9481,2.9481,2.9565,2.9747,2.983,2.9747,2.9495,2.9663,2.9663,2.916,2.9146,2.923,2.9481,2.9495,2.9439,2.9549,3.0033,2.995,2.9285,2.9867,3.0022,2.9495,2.983,3.0067,3.0067,3.0437,3.0671,3.0817,3.0817,3.0817,3.0817,3.0817,3.0817,3.0817,3.0817,3.0817,3.0817,3.0817,3.0817,3.0817,3.0817,3.0817,3.0817,3.0817,3.0817,3.0817,3.0817,3.0817,3.0817,2.9913,2.9913,2.9913,2.9913,2.9913,2.9913,2.9913,2.9913,2.9913,2.9913,2.9913,2.9913,2.9913,2.9913,2.9913,2.9913,2.9913,2.9913,2.9913,2.9839,2.973,2.9662,2.9376,2.8893,2.8341,2.8243,2.8301,2.8221,2.8221,2.8221,2.8221,2.8221,2.8221,2.8221,2.8221,2.8221,2.8221,2.8221,2.8221,2.8221,2.8221,2.8403,2.8655,2.8655,2.8894,2.923,2.923,2.923,2.923,2.923,2.923,2.923,2.923,2.923,2.923,2.923,2.923,2.9146,2.8908,2.874,2.8655,2.8655,2.8655,2.874,2.9146,2.923,2.923,2.923,2.923,2.923,2.9314,2.9314,2.923,2.8824,2.9076,2.9146,2.874,2.8655,2.8824,2.9314,2.8992,2.8992,2.9481,2.983,2.9663,2.8824,2.9579,2.9663,2.8824,2.923,2.9481,2.9481,3.015,3.0484,3.0484,3.0484,3.0484,3.0484,3.0484,3.0484,3.0484,3.0582,3.0665,3.0665,3.0749,3.0817,3.0817,3.0817,3.0817,3.0817,3.0817,3.0817,3.0817,3.0817,3.0817,3.0817,2.9913,2.9913,2.9913,2.9913,2.9913,2.9913,2.9913,2.9913,2.9913,2.9913,2.9913,2.9913,2.9913,2.9913,2.9913,2.9913,2.9913,2.9913,2.9913,2.9873,2.9726,2.9547,2.9165,2.8871,2.8577,2.8577,2.843,2.8221,2.8221,2.8221,2.8221,2.8221,2.8221,2.8221,2.8221,2.8221,2.8221,2.8221,2.8221,2.8221,2.8221,2.8221,2.8234,2.8234,2.8234,2.8305,2.8305,2.8305,2.8305,2.8305,2.8305,2.8305,2.8305,2.8305,2.8305,2.8305,2.8305,2.8403,2.874,2.8571,2.8234,2.8234,2.8234,2.8221,2.8318,2.8305,2.8305,2.8305,2.8305,2.8403,2.8824,2.8824,2.8824,2.8824,2.8824,2.874,2.8318,2.8234,2.8403,2.8824,2.8824,2.8992,2.9481,2.9565,2.9314,2.8824,2.923,2.9314,2.8824,2.923,2.9481,2.9481,2.9565,2.9565,2.9565,2.9565,2.9565,2.9565,2.9565,2.9565,2.9649,3.0081,3.0263,3.0263,3.0665,3.0817,3.0817,3.0817,3.0817,3.0817,3.0817,3.0817,3.0817,3.0817,3.0817,3.0817,2.9913,2.9913,2.9913,2.9913,2.9913,2.9913,2.9913,2.9913,2.9913,2.9913,2.9913,2.9913,2.9913,2.9913,2.9913,2.9913,2.9913,2.9913,2.9913,2.9913,2.978,2.9499,2.9379,2.9098,2.8617,2.8604,2.8457,2.8221,2.8221,2.8221,2.8221,2.8221,2.8221,2.8221,2.8221,2.8221,2.8221,2.8221,2.8221,2.8221,2.8221,2.8221,2.8221,2.8221,2.8221,2.8221,2.8221,2.8221,2.8221,2.8221,2.8221,2.8221,2.8221,2.8221,2.8221,2.8221,2.8221,2.8221,2.8403,2.8318,2.8221,2.8221,2.8221,2.8221,2.8221,2.8221,2.8221,2.8221,2.8221,2.8221,2.8403,2.8403,2.8403,2.8403,2.8403,2.8403,2.8221,2.8221,2.8221,2.8403,2.8403,2.8473,2.8642,2.8894,2.8908,2.8487,2.8824,2.8908,2.8487,2.8558,2.8726,2.8726,2.8726,2.8978,2.9481,2.9481,2.9481,2.9481,2.9481,2.9663,2.9914,3.0095,3.0346,3.0582,3.0734,3.0817,3.0817,3.0817,3.0817,3.0817,3.0817,3.0817,3.0817,3.0817,3.0817,3.0817,2.9913,2.9913,2.9913,2.9913,2.9913,2.9913,2.9913,2.9913,2.9913,2.9913,2.9913,2.9913,2.9913,2.9913,2.9913,2.9913,2.9913,2.9913,2.9913,2.9913,2.982,2.9633,2.9619,2.9392,2.8898,2.8791,2.8591,2.8283,2.8274,2.8221,2.8221,2.8221,2.8221,2.8221,2.8221,2.8221,2.8221,2.8221,2.8221,2.8221,2.8221,2.8221,2.8221,2.8221,2.8221,2.8221,2.8221,2.8221,2.8221,2.8221,2.8221,2.8221,2.8221,2.8221,2.8221,2.8221,2.8221,2.8221,2.8221,2.8221,2.8221,2.8221,2.8221,2.8221,2.8221,2.8221,2.8221,2.8221,2.8221,2.8221,2.8221,2.8221,2.8221,2.8221,2.8221,2.8221,2.8221,2.8221,2.8221,2.8221,2.8221,2.8221,2.8221,2.8487,2.8487,2.8221,2.8487,2.8487,2.8234,2.8221,2.8221,2.8221,2.8221,2.8473,2.9062,2.9062,2.9062,2.9062,2.9062,2.9244,2.9579,2.9663,2.9998,3.0401,3.0401,3.0484,3.0582,3.0582,3.0582,3.0582,3.0734,3.0817,3.0817,3.0817,3.0817,3.0817,2.9913,2.9913,2.9913,2.9913,2.9913,2.9913,2.9913,2.9913,2.9913,2.9913,2.9913,2.9913,2.9913,2.9913,2.9913,2.9913,2.9913,2.9913,2.9913,2.9913,2.9913,2.9913,2.9913,2.978,2.9486,2.9192,2.8898,2.8604,2.8297,2.8221,2.8221,2.8221,2.8221,2.8221,2.8221,2.8221,2.8221,2.8221,2.8221,2.8221,2.8221,2.8221,2.8221,2.8221,2.8221,2.8221,2.8221,2.8221,2.8221,2.8221,2.8221,2.8221,2.8221,2.8221,2.8221,2.8221,2.8221,2.8221,2.8221,2.8221,2.8221,2.8221,2.8221,2.8221,2.8221,2.8221,2.8221,2.8221,2.8221,2.8221,2.8221,2.8221,2.8221,2.8221,2.8221,2.8221,2.8221,2.8221,2.8221,2.8221,2.8221,2.8221,2.8221,2.8221,2.8221,2.8221,2.8221,2.8221,2.8221,2.8221,2.8221,2.8221,2.8221,2.8221,2.8221,2.8221,2.8221,2.8221,2.8221,2.8221,2.8221,2.8655,2.9076,2.9481,2.9481,2.9747,3.0179,3.0179,3.0179,3.0263,3.0665,3.0817,3.0817,3.0817,3.0817,3.0817,2.9913,2.9913,2.9913,2.9913,2.9913,2.9913,2.9913,2.9913,2.9913,2.9913,2.9913,2.9913,2.9913,2.9913,2.9913,2.9913,2.9913,2.9913,2.9913,2.9913,2.9913,2.9913,2.9913,2.978,2.9486,2.9192,2.8898,2.8604,2.8297,2.8221,2.8221,2.8221,2.8221,2.8221,2.8221,2.8221,2.8221,2.8221,2.8221,2.8221,2.8221,2.8221,2.8221,2.8221,2.8221,2.8221,2.8221,2.8221,2.8221,2.8221,2.8221,2.8221,2.8221,2.8221,2.8221,2.8221,2.8221,2.8221,2.8221,2.8221,2.8221,2.8221,2.8221,2.8221,2.8221,2.8221,2.8221,2.8221,2.8221,2.8221,2.8221,2.8221,2.8221,2.8221,2.8221,2.8221,2.8221,2.8221,2.8221,2.8221,2.8221,2.8221,2.8221,2.8221,2.8221,2.8221,2.8221,2.8221,2.8221,2.8221,2.8221,2.8221,2.8221,2.8221,2.8221,2.8221,2.8221,2.8221,2.8221,2.8318,2.8655,2.874,2.9076,2.9481,2.9481,2.9565,2.9747,2.9747,2.9747,2.9732,2.9816,2.99,2.99,3.0248,3.0415,3.0415,2.9913,2.9913,2.9913,2.9913,2.9913,2.9913,2.9913,2.9913,2.9913,2.9913,2.9913,2.9913,2.9913,2.9913,2.9913,2.9913,2.9913,2.9913,2.9913,2.9913,2.9913,2.9913,2.9913,2.9833,2.9659,2.9245,2.8951,2.8778,2.835,2.8221,2.8221,2.8221,2.8221,2.8221,2.8221,2.8221,2.8221,2.8221,2.8221,2.8221,2.8221,2.8221,2.8221,2.8221,2.8221,2.8221,2.8221,2.8221,2.8221,2.8221,2.8221,2.8221,2.8221,2.8221,2.8221,2.8221,2.8221,2.8221,2.8221,2.8221,2.8221,2.8221,2.8221,2.8221,2.8221,2.8221,2.8221,2.8221,2.8221,2.8221,2.8221,2.8221,2.8221,2.8221,2.8221,2.8221,2.8221,2.8221,2.8221,2.8221,2.8221,2.8221,2.8221,2.8221,2.8221,2.8221,2.8221,2.8221,2.8221,2.8221,2.8221,2.8221,2.8221,2.8221,2.8221,2.8221,2.8221,2.8221,2.8221,2.8318,2.8571,2.8571,2.881,2.923,2.9062,2.9062,2.923,2.923,2.923,2.923,2.9398,2.9481,2.9565,2.983,2.9914,2.9998,2.9913,2.9913,2.9913,2.9913,2.9913,2.9913,2.9913,2.9913,2.9913,2.9913,2.9913,2.9913,2.9913,2.9913,2.9913,2.9913,2.9913,2.9913,2.9913,2.9913,2.9913,2.9913,2.9913,2.9913,2.9913,2.9339,2.9045,2.9045,2.843,2.8221,2.8221,2.8221,2.8221,2.8221,2.8221,2.8221,2.8221,2.8221,2.8221,2.8221,2.8221,2.8221,2.8221,2.8221,2.8221,2.8221,2.8221,2.8221,2.8221,2.8221,2.8221,2.8221,2.8221,2.8221,2.8221,2.8221,2.8221,2.8221,2.8221,2.8221,2.8221,2.8221,2.8221,2.8221,2.8221,2.8221,2.8221,2.8221,2.8221,2.8221,2.8221,2.8221,2.8221,2.8221,2.8221,2.8221,2.8221,2.8221,2.8221,2.8221,2.8221,2.8221,2.8221,2.8221,2.8221,2.8221,2.8221,2.8221,2.8221,2.8221,2.8221,2.8221,2.8221,2.8221,2.8221,2.8221,2.8221,2.8221,2.8221,2.8221,2.8221,2.8221,2.8403,2.874,2.8403,2.8403,2.874,2.874,2.874,2.8824,2.923,2.9398,2.9398,2.9398,2.9398,2.9398,2.9913,2.9913,2.9913,2.9913,2.9913,2.9913,2.9913,2.9913,2.9913,2.9913,2.9913,2.9913,2.9913,2.9913,2.9913,2.9913,2.9913,2.9913,2.9913,2.9913,2.9913,2.9913,2.9913,2.9913,2.9913,2.9339,2.9045,2.9045,2.843,2.8221,2.8221,2.8221,2.8221,2.8221,2.8221,2.8221,2.8221,2.8221,2.8221,2.8221,2.8221,2.8221,2.8221,2.8221,2.8221,2.8221,2.8221,2.8221,2.8221,2.8221,2.8221,2.8221,2.8221,2.8221,2.8221,2.8221,2.8221,2.8221,2.8221,2.8221,2.8221,2.8221,2.8221,2.8221,2.8221,2.8221,2.8221,2.8221,2.8221,2.8221,2.8221,2.8221,2.8221,2.8221,2.8221,2.8221,2.8221,2.8221,2.8221,2.8221,2.8221,2.8221,2.8221,2.8221,2.8221,2.8221,2.8221,2.8221,2.8221,2.8221,2.8221,2.8221,2.8221,2.8221,2.8221,2.8221,2.8221,2.8221,2.8221,2.8221,2.8221,2.8221,2.8221,2.8318,2.8234,2.8221,2.8318,2.8318,2.8318,2.8305,2.8473,2.8473,2.8473,2.8824,2.8992,2.8992,2.9913,2.9913,2.9913,2.9913,2.9913,2.9913,2.9913,2.9913,2.9913,2.9913,2.9913,2.9913,2.9913,2.9913,2.9913,2.9913,2.9913,2.9913,2.9913,2.9913,2.9913,2.9913,2.9913,2.9913,2.9913,2.9486,2.9179,2.9045,2.843,2.8221,2.8221,2.8221,2.8221,2.8221,2.8221,2.8221,2.8221,2.8221,2.8221,2.8221,2.8221,2.8221,2.8221,2.8221,2.8221,2.8221,2.8221,2.8221,2.8221,2.8221,2.8221,2.8221,2.8221,2.8221,2.8221,2.8221,2.8221,2.8221,2.8221,2.8221,2.8221,2.8221,2.8221,2.8221,2.8221,2.8221,2.8221,2.8221,2.8221,2.8221,2.8221,2.8221,2.8221,2.8221,2.8221,2.8221,2.8221,2.8221,2.8221,2.8221,2.8221,2.8221,2.8221,2.8221,2.8221,2.8221,2.8221,2.8221,2.8221,2.8221,2.8221,2.8221,2.8221,2.8221,2.8221,2.8221,2.8221,2.8221,2.8221,2.8221,2.8221,2.8221,2.8221,2.8221,2.8221,2.8221,2.8221,2.8221,2.8221,2.8221,2.8221,2.8221,2.8221,2.8403,2.8487,2.8571,2.9913,2.9913,2.9913,2.9913,2.9913,2.9913,2.9913,2.9913,2.9913,2.9913,2.9913,2.9913,2.9913,2.9913,2.9913,2.9913,2.9913,2.9913,2.9913,2.9913,2.9913,2.9913,2.9913,2.9913,2.9913,2.9633,2.9339,2.9045,2.8484,2.8274,2.8221,2.8221,2.8221,2.8221,2.8221,2.8221,2.8221,2.8221,2.8221,2.8221,2.8221,2.8221,2.8221,2.8221,2.8221,2.8221,2.8221,2.8221,2.8221,2.8221,2.8221,2.8221,2.8221,2.8221,2.8221,2.8221,2.8221,2.8221,2.8221,2.8221,2.8221,2.8221,2.8221,2.8221,2.8221,2.8221,2.8221,2.8221,2.8221,2.8221,2.8221,2.8221,2.8221,2.8221,2.8221,2.8221,2.8221,2.8221,2.8221,2.8221,2.8221,2.8221,2.8221,2.8221,2.8221,2.8221,2.8221,2.8221,2.8221,2.8221,2.8221,2.8221,2.8221,2.8221,2.8221,2.8221,2.8221,2.8221,2.8221,2.8221,2.8221,2.8221,2.8221,2.8221,2.8221,2.8221,2.8221,2.8221,2.8221,2.8221,2.8221,2.8221,2.8221,2.8221,2.8221,2.8221,2.9913,2.9913,2.9913,2.9913,2.9913,2.9913,2.9913,2.9913,2.9913,2.9913,2.9913,2.9913,2.9913,2.9913,2.9913,2.9913,2.9913,2.9913,2.9913,2.9913,2.9913,2.9913,2.9913,2.9913,2.9913,2.9633,2.9339,2.9045,2.8711,2.8404,2.8221,2.8221,2.8221,2.8221,2.8221,2.8221,2.8221,2.8221,2.8221,2.8221,2.8221,2.8221,2.8221,2.8221,2.8221,2.8221,2.8221,2.8221,2.8221,2.8221,2.8221,2.8221,2.8221,2.8221,2.8221,2.8221,2.8221,2.8221,2.8221,2.8221,2.8221,2.8221,2.8221,2.8221,2.8221,2.8221,2.8221,2.8221,2.8221,2.8221,2.8221,2.8221,2.8221,2.8221,2.8221,2.8221,2.8221,2.8221,2.8221,2.8221,2.8221,2.8221,2.8221,2.8221,2.8221,2.8221,2.8221,2.8221,2.8221,2.8221,2.8221,2.8221,2.8221,2.8221,2.8221,2.8221,2.8221,2.8221,2.8221,2.8221,2.8221,2.8221,2.8221,2.8221,2.8221,2.8221,2.8221,2.8221,2.8221,2.8221,2.8221,2.8221,2.8221,2.8221,2.8221,2.8221,2.9913,2.9913,2.9913,2.9913,2.9913,2.9913,2.9913,2.9913,2.9913,2.9913,2.9913,2.9913,2.9913,2.9913,2.9913,2.9913,2.9913,2.9913,2.9913,2.9913,2.9913,2.9913,2.9913,2.9913,2.9913,2.9793,2.9579,2.9285,2.8831,2.8444,2.8221,2.8221,2.8221,2.8221,2.8221,2.8221,2.8221,2.8221,2.8221,2.8221,2.8221,2.8221,2.8221,2.8221,2.8221,2.8221,2.8221,2.8221,2.8221,2.8221,2.8221,2.8221,2.8221,2.8221,2.8221,2.8221,2.8221,2.8221,2.8221,2.8221,2.8221,2.8221,2.8221,2.8221,2.8221,2.8221,2.8221,2.8221,2.8221,2.8221,2.8221,2.8221,2.8221,2.8221,2.8221,2.8221,2.8221,2.8221,2.8221,2.8221,2.8221,2.8221,2.8221,2.8221,2.8221,2.8221,2.8221,2.8221,2.8221,2.8221,2.8221,2.8221,2.8221,2.8221,2.8221,2.8221,2.8221,2.8221,2.8221,2.8221,2.8221,2.8221,2.8221,2.8221,2.8221,2.8221,2.8221,2.8221,2.8221,2.8221,2.8221,2.8221,2.8221,2.8221,2.8221,2.8221]}]]